Time,TemperatureF,DewpointF,PressureIn,WindDirection,WindDirectionDegrees,WindSpeedMPH,WindSpeedGustMPH,Humidity,HourlyPrecipIn,Conditions,Clouds,dailyrainin,SoftwareType,DateUTC
2013-03-12 00:00:00,43.2,42.1,30.06,SSE,158,2.9,2.9,96,0.00,,SKC,0.00,VWS V14.01,2013-03-12 04:00:00,
2013-03-12 00:02:00,43.3,42.3,30.06,SSE,158,0.9,2.2,96,0.00,,SKC,0.00,VWS V14.01,2013-03-12 04:02:00,
2013-03-12 00:04:00,43.3,42.3,30.06,SSE,158,2.7,2.7,96,0.00,,SKC,0.00,VWS V14.01,2013-03-12 04:04:00,
2013-03-12 00:06:00,43.3,42.3,30.06,SSE,158,2.5,3.4,96,0.00,,SKC,0.00,VWS V14.01,2013-03-12 04:06:00,
2013-03-12 00:07:00,43.3,42.3,30.06,South,180,0.0,3.1,96,0.00,,SKC,0.00,VWS V14.01,2013-03-12 04:07:00,
2013-03-12 00:08:00,43.3,42.3,30.06,SSE,158,2.2,2.7,96,0.00,,SKC,0.00,VWS V14.01,2013-03-12 04:08:00,
2013-03-12 00:10:00,43.3,42.3,30.06,SE,135,0.0,2.7,96,0.00,,SKC,0.00,VWS V14.01,2013-03-12 04:10:00,
2013-03-12 00:12:00,43.5,42.5,30.06,SSE,158,2.5,3.8,96,0.00,,SKC,0.00,VWS V14.01,2013-03-12 04:12:00,
2013-03-12 00:14:00,43.5,42.5,30.06,South,180,2.0,3.1,96,0.00,,SKC,0.00,VWS V14.01,2013-03-12 04:14:00,
2013-03-12 00:16:00,43.5,42.5,30.06,South,180,0.0,0.0,96,0.00,,SKC,0.00,VWS V14.01,2013-03-12 04:16:00,
2013-03-12 00:17:00,43.7,42.6,30.06,South,180,0.0,1.3,96,0.00,,SKC,0.00,VWS V14.01,2013-03-12 04:17:00,
2013-03-12 00:18:00,43.7,42.6,30.06,SSW,202,0.0,0.0,96,0.00,,SKC,0.00,VWS V14.01,2013-03-12 04:18:00,
2013-03-12 00:20:00,43.7,42.6,30.06,South,180,0.0,0.0,96,0.00,,SKC,0.00,VWS V14.01,2013-03-12 04:20:00,
2013-03-12 00:22:00,43.7,42.6,30.06,South,180,0.0,0.0,96,0.00,,SKC,0.00,VWS V14.01,2013-03-12 04:22:00,
2013-03-12 00:24:00,43.7,42.6,30.06,South,180,0.0,0.0,96,0.00,,SKC,0.00,VWS V14.01,2013-03-12 04:24:00,
2013-03-12 00:26:00,43.7,42.6,30.06,South,180,0.0,0.0,96,0.00,,SKC,0.00,VWS V14.01,2013-03-12 04:26:00,
2013-03-12 00:27:00,43.7,42.6,30.06,SSE,158,0.0,0.0,96,0.00,,SKC,0.00,VWS V14.01,2013-03-12 04:27:00,
2013-03-12 00:28:00,43.7,42.6,30.06,SSE,158,0.0,0.0,96,0.00,,SKC,0.00,VWS V14.01,2013-03-12 04:28:00,
2013-03-12 00:30:00,43.7,42.6,30.06,South,180,0.9,1.6,96,0.00,,SKC,0.00,VWS V14.01,2013-03-12 04:30:00,
2013-03-12 00:32:00,43.7,42.6,30.06,SSE,158,1.3,2.5,96,0.00,,SKC,0.00,VWS V14.01,2013-03-12 04:32:00,
2013-03-12 00:34:00,43.7,42.6,30.06,SSE,158,1.1,2.5,96,0.00,,SKC,0.00,VWS V14.01,2013-03-12 04:34:00,
2013-03-12 00:36:00,43.7,42.6,30.06,SSE,158,1.1,2.5,96,0.00,,SKC,0.00,VWS V14.01,2013-03-12 04:36:00,
2013-03-12 00:37:00,43.7,42.6,30.06,SSW,202,0.0,2.2,96,0.00,,SKC,0.00,VWS V14.01,2013-03-12 04:37:00,
2013-03-12 00:38:00,43.7,42.6,30.06,South,180,0.0,2.2,96,0.00,,SKC,0.00,VWS V14.01,2013-03-12 04:38:00,
2013-03-12 00:40:00,43.7,42.6,30.06,South,180,0.0,2.2,96,0.00,,SKC,0.00,VWS V14.01,2013-03-12 04:40:00,
2013-03-12 00:42:00,43.7,42.6,30.06,South,180,0.0,0.0,96,0.00,,SKC,0.00,VWS V14.01,2013-03-12 04:42:00,
2013-03-12 00:44:00,43.7,42.6,30.06,South,180,0.0,0.0,96,0.00,,SKC,0.00,VWS V14.01,2013-03-12 04:44:00,
2013-03-12 00:46:00,43.7,42.6,30.06,South,180,0.0,0.0,96,0.00,,SKC,0.00,VWS V14.01,2013-03-12 04:46:00,
2013-03-12 00:47:00,43.7,42.6,30.06,South,180,0.0,0.0,96,0.00,,SKC,0.00,VWS V14.01,2013-03-12 04:47:00,
2013-03-12 00:48:00,43.7,42.6,30.06,South,180,0.0,0.0,96,0.00,,SKC,0.00,VWS V14.01,2013-03-12 04:48:00,
2013-03-12 00:50:00,43.7,42.6,30.06,South,180,0.0,0.0,96,0.00,,SKC,0.00,VWS V14.01,2013-03-12 04:50:00,
2013-03-12 00:52:00,43.7,42.6,30.06,South,180,0.0,0.0,96,0.00,,SKC,0.00,VWS V14.01,2013-03-12 04:52:00,
2013-03-12 00:54:00,43.7,42.6,30.06,South,180,0.0,0.0,96,0.00,,SKC,0.00,VWS V14.01,2013-03-12 04:54:00,
2013-03-12 00:56:00,43.7,42.6,30.06,South,180,1.1,1.1,96,0.00,,SKC,0.00,VWS V14.01,2013-03-12 04:56:00,
2013-03-12 00:57:00,43.9,42.8,30.06,SE,135,2.9,2.9,96,0.00,,SKC,0.00,VWS V14.01,2013-03-12 04:57:00,
2013-03-12 00:58:00,43.9,42.8,30.06,SE,135,2.9,2.9,96,0.00,,SKC,0.00,VWS V14.01,2013-03-12 04:58:00,
2013-03-12 01:00:00,43.9,42.8,30.06,SSE,158,2.7,3.4,96,0.00,,SKC,0.00,VWS V14.01,2013-03-12 05:00:00,
2013-03-12 01:02:00,43.9,42.8,30.06,SE,135,1.1,2.2,96,0.00,,SKC,0.00,VWS V14.01,2013-03-12 05:02:00,
2013-03-12 01:04:00,43.9,42.8,30.06,South,180,0.0,1.6,96,0.00,,SKC,0.00,VWS V14.01,2013-03-12 05:04:00,
2013-03-12 01:06:00,43.9,42.8,30.06,South,180,0.0,0.0,96,0.00,,SKC,0.00,VWS V14.01,2013-03-12 05:06:00,
2013-03-12 01:07:00,43.9,42.8,30.06,SSW,202,0.0,0.0,96,0.00,,SKC,0.00,VWS V14.01,2013-03-12 05:07:00,
2013-03-12 01:08:00,43.9,42.8,30.06,SW,225,0.0,0.0,96,0.00,,SKC,0.00,VWS V14.01,2013-03-12 05:08:00,
2013-03-12 01:10:00,44.1,43.0,30.06,SSW,202,0.0,0.0,96,0.00,,SKC,0.00,VWS V14.01,2013-03-12 05:10:00,
2013-03-12 01:12:00,44.1,43.0,30.06,South,180,3.4,3.4,96,0.00,,SKC,0.00,VWS V14.01,2013-03-12 05:12:00,
2013-03-12 01:14:00,44.1,43.0,30.06,South,180,0.0,3.4,96,0.00,,SKC,0.00,VWS V14.01,2013-03-12 05:14:00,
2013-03-12 01:16:00,44.1,43.0,30.06,SSE,158,2.9,2.9,96,0.00,,SKC,0.00,VWS V14.01,2013-03-12 05:16:00,
2013-03-12 01:17:00,44.1,43.0,30.06,SE,135,3.1,3.1,96,0.00,,SKC,0.00,VWS V14.01,2013-03-12 05:17:00,
2013-03-12 01:18:00,44.1,43.0,30.06,SSE,158,2.5,3.1,96,0.00,,SKC,0.00,VWS V14.01,2013-03-12 05:18:00,
2013-03-12 01:20:00,44.1,43.0,30.06,SSE,158,2.5,2.9,96,0.00,,SKC,0.00,VWS V14.01,2013-03-12 05:20:00,
2013-03-12 01:22:00,44.2,43.2,30.06,SE,135,4.3,4.3,96,0.00,,SKC,0.00,VWS V14.01,2013-03-12 05:22:00,
2013-03-12 01:24:00,44.2,43.2,30.06,South,180,2.9,4.3,96,0.00,,SKC,0.00,VWS V14.01,2013-03-12 05:24:00,
2013-03-12 01:26:00,44.6,43.5,30.06,South,180,4.3,4.3,96,0.00,,SKC,0.00,VWS V14.01,2013-03-12 05:26:00,
2013-03-12 01:27:00,44.6,43.5,30.06,SE,135,3.8,3.8,96,0.00,,SKC,0.00,VWS V14.01,2013-03-12 05:27:00,
2013-03-12 01:28:00,44.6,43.5,30.06,SE,135,4.0,4.0,96,0.00,,SKC,0.00,VWS V14.01,2013-03-12 05:28:00,
2013-03-12 01:30:00,44.8,44.0,30.06,SSE,158,2.0,3.8,97,0.00,,SKC,0.00,VWS V14.01,2013-03-12 05:30:00,
2013-03-12 01:32:00,44.8,44.0,30.06,SSE,158,4.9,4.9,97,0.00,,SKC,0.00,VWS V14.01,2013-03-12 05:32:00,
2013-03-12 01:34:00,44.8,44.0,30.06,South,180,4.0,6.0,97,0.00,,SKC,0.00,VWS V14.01,2013-03-12 05:34:00,
2013-03-12 01:36:00,44.8,44.0,30.06,SSE,158,5.6,5.6,97,0.00,,SKC,0.00,VWS V14.01,2013-03-12 05:36:00,
2013-03-12 01:37:00,45.0,44.2,30.06,SSE,158,4.3,4.7,97,0.00,,SKC,0.00,VWS V14.01,2013-03-12 05:37:00,
2013-03-12 01:38:00,45.0,44.2,30.06,SSE,158,4.3,4.7,97,0.00,,SKC,0.00,VWS V14.01,2013-03-12 05:38:00,
2013-03-12 01:40:00,45.0,43.9,30.06,SE,135,4.9,6.3,96,0.00,,SKC,0.00,VWS V14.01,2013-03-12 05:40:00,
2013-03-12 01:42:00,45.1,44.1,30.06,SSE,158,4.3,5.4,96,0.00,,SKC,0.00,VWS V14.01,2013-03-12 05:42:00,
2013-03-12 01:44:00,45.0,43.9,30.06,SSE,158,5.6,5.6,96,0.00,,SKC,0.00,VWS V14.01,2013-03-12 05:44:00,
2013-03-12 01:46:00,45.0,43.9,30.06,SE,135,4.3,4.3,96,0.00,,SKC,0.00,VWS V14.01,2013-03-12 05:46:00,
2013-03-12 01:47:00,45.0,43.9,30.06,SE,135,5.6,5.6,96,0.00,,SKC,0.00,VWS V14.01,2013-03-12 05:47:00,
2013-03-12 01:48:00,45.0,43.9,30.06,SE,135,5.6,5.6,96,0.00,,SKC,0.00,VWS V14.01,2013-03-12 05:48:00,
2013-03-12 01:50:00,45.0,43.9,30.06,SSE,158,5.8,6.5,96,0.00,,SKC,0.00,VWS V14.01,2013-03-12 05:50:00,
2013-03-12 01:52:00,45.1,44.1,30.06,SE,135,4.0,4.9,96,0.00,,SKC,0.00,VWS V14.01,2013-03-12 05:52:00,
2013-03-12 01:54:00,45.1,44.1,30.06,SSE,158,4.3,5.4,96,0.00,,SKC,0.00,VWS V14.01,2013-03-12 05:54:00,
2013-03-12 01:56:00,45.1,44.1,30.06,SE,135,4.3,6.3,96,0.00,,SKC,0.00,VWS V14.01,2013-03-12 05:56:00,
2013-03-12 01:57:00,45.1,44.1,30.06,SE,135,5.6,7.2,96,0.00,,SKC,0.00,VWS V14.01,2013-03-12 05:57:00,
2013-03-12 01:58:00,45.1,44.1,30.06,SE,135,5.6,7.2,96,0.00,,SKC,0.00,VWS V14.01,2013-03-12 05:58:00,
2013-03-12 02:00:00,45.1,44.1,30.03,SE,135,5.8,6.3,96,0.00,,SKC,0.00,VWS V14.01,2013-03-12 06:00:00,
2013-03-12 02:02:00,45.1,44.1,30.03,SE,135,5.8,6.0,96,0.00,,SKC,0.00,VWS V14.01,2013-03-12 06:02:00,
2013-03-12 02:03:00,45.1,44.1,30.03,SSE,158,4.3,6.0,96,0.00,,SKC,0.00,VWS V14.01,2013-03-12 06:03:00,
2013-03-12 02:04:00,45.1,44.1,30.03,SSE,158,5.6,5.6,96,0.00,,SKC,0.00,VWS V14.01,2013-03-12 06:04:00,
2013-03-12 02:06:00,45.1,44.1,30.03,SE,135,3.1,5.6,96,0.00,,SKC,0.00,VWS V14.01,2013-03-12 06:06:00,
2013-03-12 02:08:00,45.1,44.1,30.03,SSE,158,3.6,5.8,96,0.00,,SKC,0.00,VWS V14.01,2013-03-12 06:08:00,
2013-03-12 02:10:00,45.1,44.1,30.03,SE,135,3.6,5.4,96,0.00,,SKC,0.00,VWS V14.01,2013-03-12 06:10:00,
2013-03-12 02:12:00,45.3,44.2,30.03,SE,135,4.9,5.4,96,0.00,,SKC,0.00,VWS V14.01,2013-03-12 06:12:00,
2013-03-12 02:13:00,45.3,44.2,30.03,SE,135,5.4,5.4,96,0.00,,SKC,0.00,VWS V14.01,2013-03-12 06:13:00,
2013-03-12 02:14:00,45.3,44.2,30.03,SE,135,5.4,5.8,96,0.00,,SKC,0.00,VWS V14.01,2013-03-12 06:14:00,
2013-03-12 02:16:00,45.3,44.2,30.03,SE,135,4.3,5.8,96,0.00,,SKC,0.00,VWS V14.01,2013-03-12 06:16:00,
2013-03-12 02:18:00,45.3,44.2,30.03,SSE,158,4.0,6.0,96,0.00,,SKC,0.00,VWS V14.01,2013-03-12 06:18:00,
2013-03-12 02:20:00,45.3,44.2,30.03,SE,135,4.0,5.4,96,0.00,,SKC,0.00,VWS V14.01,2013-03-12 06:20:00,
2013-03-12 02:22:00,45.3,44.2,30.03,SSE,158,4.7,6.0,96,0.00,,SKC,0.00,VWS V14.01,2013-03-12 06:22:00,
2013-03-12 02:23:00,45.3,44.2,30.03,SE,135,4.5,5.6,96,0.00,,SKC,0.00,VWS V14.01,2013-03-12 06:23:00,
2013-03-12 02:24:00,45.3,44.2,30.03,SE,135,5.4,6.5,96,0.00,,SKC,0.00,VWS V14.01,2013-03-12 06:24:00,
2013-03-12 02:26:00,45.3,44.2,30.03,SE,135,5.4,5.6,96,0.00,,SKC,0.00,VWS V14.01,2013-03-12 06:26:00,
2013-03-12 02:28:00,45.5,44.4,30.03,SSE,158,4.7,6.0,96,0.00,,SKC,0.00,VWS V14.01,2013-03-12 06:28:00,
2013-03-12 02:30:00,45.5,44.4,30.00,South,180,4.9,6.3,96,0.00,,SKC,0.00,VWS V14.01,2013-03-12 06:30:00,
2013-03-12 02:32:00,45.5,44.4,30.00,SSE,158,6.5,6.5,96,0.00,,SKC,0.00,VWS V14.01,2013-03-12 06:32:00,
2013-03-12 02:33:00,45.5,44.4,30.00,SSE,158,5.6,6.5,96,0.00,,SKC,0.00,VWS V14.01,2013-03-12 06:33:00,
2013-03-12 02:34:00,45.5,44.4,30.00,SSE,158,5.8,5.8,96,0.00,,SKC,0.00,VWS V14.01,2013-03-12 06:34:00,
2013-03-12 02:36:00,45.7,44.9,30.00,SSE,158,6.5,6.5,97,0.00,,SKC,0.00,VWS V14.01,2013-03-12 06:36:00,
2013-03-12 02:38:00,45.9,45.1,30.00,SSE,158,4.9,6.3,97,0.00,,SKC,0.00,VWS V14.01,2013-03-12 06:38:00,
2013-03-12 02:40:00,45.9,45.1,30.00,SSE,158,5.4,7.2,97,0.00,,SKC,0.00,VWS V14.01,2013-03-12 06:40:00,
2013-03-12 02:42:00,46.0,45.2,30.00,SSE,158,9.6,9.8,97,0.00,,SKC,0.00,VWS V14.01,2013-03-12 06:42:00,
2013-03-12 02:43:00,46.0,45.2,30.00,SE,135,7.2,9.8,97,0.00,,SKC,0.00,VWS V14.01,2013-03-12 06:43:00,
2013-03-12 02:44:00,46.0,45.2,30.00,SE,135,9.4,12.1,97,0.00,,SKC,0.00,VWS V14.01,2013-03-12 06:44:00,
2013-03-12 02:46:00,46.2,45.4,30.00,SE,135,3.6,11.0,97,0.00,,SKC,0.00,VWS V14.01,2013-03-12 06:46:00,
2013-03-12 02:48:00,46.2,45.4,30.00,South,180,7.4,10.3,97,0.00,,SKC,0.00,VWS V14.01,2013-03-12 06:48:00,
2013-03-12 02:50:00,46.4,45.6,30.00,SE,135,8.7,8.7,97,0.00,,SKC,0.00,VWS V14.01,2013-03-12 06:50:00,
2013-03-12 02:52:00,46.4,45.6,30.00,SSE,158,5.6,8.1,97,0.00,,SKC,0.00,VWS V14.01,2013-03-12 06:52:00,
2013-03-12 02:53:00,46.6,45.8,30.00,South,180,6.5,8.1,97,0.00,,SKC,0.00,VWS V14.01,2013-03-12 06:53:00,
2013-03-12 02:54:00,46.6,45.8,30.00,SE,135,3.6,6.5,97,0.00,,SKC,0.00,VWS V14.01,2013-03-12 06:54:00,
2013-03-12 02:56:00,46.6,45.8,30.00,SSE,158,6.0,10.5,97,0.00,,SKC,0.00,VWS V14.01,2013-03-12 06:56:00,
2013-03-12 02:58:00,46.8,46.0,30.00,SSE,158,4.9,8.7,97,0.00,,SKC,0.00,VWS V14.01,2013-03-12 06:58:00,
2013-03-12 03:00:00,46.8,46.0,30.00,SSE,158,7.8,8.1,97,0.00,,SKC,0.00,VWS V14.01,2013-03-12 07:00:00,
2013-03-12 03:02:00,46.8,46.0,30.00,SE,135,6.3,6.5,97,0.00,,SKC,0.00,VWS V14.01,2013-03-12 07:02:00,
2013-03-12 03:03:00,46.8,46.0,30.00,South,180,5.6,7.4,97,0.00,,SKC,0.00,VWS V14.01,2013-03-12 07:03:00,
2013-03-12 03:04:00,46.8,46.0,30.00,SSW,202,4.0,6.5,97,0.00,,SKC,0.00,VWS V14.01,2013-03-12 07:04:00,
2013-03-12 03:06:00,46.9,46.1,30.00,South,180,8.5,8.5,97,0.00,,SKC,0.00,VWS V14.01,2013-03-12 07:06:00,
2013-03-12 03:08:00,47.1,46.3,30.00,SSE,158,7.8,7.8,97,0.00,,SKC,0.00,VWS V14.01,2013-03-12 07:08:00,
2013-03-12 03:10:00,47.1,46.3,30.00,SSE,158,6.3,8.7,97,0.00,,SKC,0.00,VWS V14.01,2013-03-12 07:10:00,
2013-03-12 03:12:00,47.1,46.3,30.00,SSE,158,8.1,8.1,97,0.00,,SKC,0.00,VWS V14.01,2013-03-12 07:12:00,
2013-03-12 03:13:00,47.1,46.3,30.00,SE,135,3.8,8.5,97,0.00,,SKC,0.00,VWS V14.01,2013-03-12 07:13:00,
2013-03-12 03:14:00,47.1,46.3,30.00,SE,135,4.0,7.8,97,0.00,,SKC,0.00,VWS V14.01,2013-03-12 07:14:00,
2013-03-12 03:16:00,47.1,46.3,30.00,SSE,158,5.4,6.5,97,0.00,,SKC,0.00,VWS V14.01,2013-03-12 07:16:00,
2013-03-12 03:18:00,47.3,46.5,30.00,SE,135,6.0,8.5,97,0.00,,SKC,0.00,VWS V14.01,2013-03-12 07:18:00,
2013-03-12 03:20:00,47.3,46.5,30.00,SE,135,6.5,6.5,97,0.00,,SKC,0.00,VWS V14.01,2013-03-12 07:20:00,
2013-03-12 03:22:00,47.3,46.5,30.00,South,180,6.0,8.1,97,0.00,,SKC,0.00,VWS V14.01,2013-03-12 07:22:00,
2013-03-12 03:23:00,47.3,46.5,30.00,SSE,158,5.8,6.3,97,0.00,,SKC,0.00,VWS V14.01,2013-03-12 07:23:00,
2013-03-12 03:24:00,47.3,46.5,30.00,SSE,158,7.8,7.8,97,0.00,,SKC,0.00,VWS V14.01,2013-03-12 07:24:00,
2013-03-12 03:26:00,47.5,46.7,30.00,SSE,158,6.3,6.5,97,0.00,,SKC,0.00,VWS V14.01,2013-03-12 07:26:00,
2013-03-12 03:28:00,47.5,46.7,29.97,SE,135,6.3,6.3,97,0.00,,SKC,0.00,VWS V14.01,2013-03-12 07:28:00,
2013-03-12 03:30:00,47.5,46.7,29.97,SSE,158,6.5,6.5,97,0.00,,SKC,0.00,VWS V14.01,2013-03-12 07:30:00,
2013-03-12 03:32:00,47.5,46.7,29.97,SSE,158,4.7,8.7,97,0.00,,SKC,0.00,VWS V14.01,2013-03-12 07:32:00,
2013-03-12 03:33:00,47.5,46.7,29.97,SSE,158,5.6,9.2,97,0.00,,SKC,0.00,VWS V14.01,2013-03-12 07:33:00,
2013-03-12 03:34:00,47.5,46.7,29.97,SE,135,6.5,9.2,97,0.00,,SKC,0.00,VWS V14.01,2013-03-12 07:34:00,
2013-03-12 03:36:00,47.5,46.7,29.97,SSE,158,7.4,8.7,97,0.00,,SKC,0.00,VWS V14.01,2013-03-12 07:36:00,
2013-03-12 03:38:00,47.5,46.7,29.97,SE,135,6.0,8.1,97,0.00,,SKC,0.00,VWS V14.01,2013-03-12 07:38:00,
2013-03-12 03:40:00,47.5,46.7,29.97,SE,135,7.4,7.4,97,0.00,,SKC,0.00,VWS V14.01,2013-03-12 07:40:00,
2013-03-12 03:42:00,47.7,46.8,29.97,SE,135,5.8,9.6,97,0.00,,SKC,0.00,VWS V14.01,2013-03-12 07:42:00,
2013-03-12 03:43:00,47.7,46.8,29.94,SSE,158,2.7,7.8,97,0.00,,SKC,0.00,VWS V14.01,2013-03-12 07:43:00,
2013-03-12 03:44:00,47.7,46.8,29.94,South,180,3.4,7.8,97,0.00,,SKC,0.00,VWS V14.01,2013-03-12 07:44:00,
2013-03-12 03:46:00,47.7,46.8,29.94,SE,135,7.6,7.8,97,0.00,,SKC,0.00,VWS V14.01,2013-03-12 07:46:00,
2013-03-12 03:48:00,47.7,46.8,29.94,SE,135,5.8,7.6,97,0.00,,SKC,0.00,VWS V14.01,2013-03-12 07:48:00,
2013-03-12 03:50:00,47.7,46.8,29.94,SSE,158,3.8,7.2,97,0.00,,SKC,0.00,VWS V14.01,2013-03-12 07:50:00,
2013-03-12 03:52:00,47.7,46.8,29.94,SSE,158,5.4,5.4,97,0.00,,SKC,0.00,VWS V14.01,2013-03-12 07:52:00,
2013-03-12 03:53:00,47.7,46.8,29.94,SSE,158,6.0,7.2,97,0.00,,SKC,0.00,VWS V14.01,2013-03-12 07:53:00,
2013-03-12 03:54:00,47.7,46.8,29.94,SE,135,3.1,7.2,97,0.00,,SKC,0.00,VWS V14.01,2013-03-12 07:54:00,
2013-03-12 03:56:00,47.7,46.6,29.94,SE,135,6.5,7.4,96,0.00,,SKC,0.00,VWS V14.01,2013-03-12 07:56:00,
2013-03-12 03:58:00,47.7,46.6,29.97,SSE,158,6.3,8.1,96,0.00,,SKC,0.00,VWS V14.01,2013-03-12 07:58:00,
2013-03-12 04:00:00,47.7,46.6,29.97,SSE,158,7.2,11.0,96,0.00,,SKC,0.00,VWS V14.01,2013-03-12 08:00:00,
2013-03-12 04:02:00,47.8,46.8,29.97,SE,135,4.9,7.6,96,0.00,,SKC,0.00,VWS V14.01,2013-03-12 08:02:00,
2013-03-12 04:03:00,47.8,46.8,29.97,South,180,7.8,7.8,96,0.00,,SKC,0.00,VWS V14.01,2013-03-12 08:03:00,
2013-03-12 04:04:00,47.8,46.8,29.97,SSE,158,6.5,7.8,96,0.00,,SKC,0.00,VWS V14.01,2013-03-12 08:04:00,
2013-03-12 04:06:00,47.8,46.8,29.97,SSE,158,3.6,10.1,96,0.00,,SKC,0.00,VWS V14.01,2013-03-12 08:06:00,
2013-03-12 04:08:00,47.8,46.8,29.97,South,180,3.4,8.1,96,0.00,,SKC,0.00,VWS V14.01,2013-03-12 08:08:00,
2013-03-12 04:10:00,47.8,46.8,29.97,South,180,4.0,6.0,96,0.00,,SKC,0.00,VWS V14.01,2013-03-12 08:10:00,
2013-03-12 04:12:00,47.8,46.8,29.97,SSE,158,6.3,7.4,96,0.00,,SKC,0.00,VWS V14.01,2013-03-12 08:12:00,
2013-03-12 04:13:00,47.8,46.8,29.97,SSE,158,3.6,6.3,96,0.00,,SKC,0.00,VWS V14.01,2013-03-12 08:13:00,
2013-03-12 04:14:00,47.8,46.8,29.97,SSE,158,6.0,6.0,96,0.00,,SKC,0.00,VWS V14.01,2013-03-12 08:14:00,
2013-03-12 04:16:00,47.8,46.8,29.97,South,180,4.7,5.4,96,0.00,,SKC,0.00,VWS V14.01,2013-03-12 08:16:00,
2013-03-12 04:18:00,47.8,46.8,29.97,South,180,4.0,5.4,96,0.00,,SKC,0.00,VWS V14.01,2013-03-12 08:18:00,
2013-03-12 04:20:00,48.0,46.9,29.97,SSE,158,3.8,6.0,96,0.00,,SKC,0.00,VWS V14.01,2013-03-12 08:20:00,
2013-03-12 04:22:00,48.0,46.9,29.97,South,180,5.4,5.4,96,0.00,,SKC,0.00,VWS V14.01,2013-03-12 08:22:00,
2013-03-12 04:23:00,48.0,46.7,29.97,SSE,158,7.2,7.2,95,0.00,,SKC,0.00,VWS V14.01,2013-03-12 08:23:00,
2013-03-12 04:24:00,48.0,46.7,29.97,SSE,158,5.4,7.2,95,0.00,,SKC,0.00,VWS V14.01,2013-03-12 08:24:00,
2013-03-12 04:26:00,48.0,46.7,29.97,SE,135,4.0,4.0,95,0.00,,SKC,0.00,VWS V14.01,2013-03-12 08:26:00,
2013-03-12 04:28:00,48.0,46.7,29.94,SSE,158,5.8,6.3,95,0.00,,SKC,0.00,VWS V14.01,2013-03-12 08:28:00,
2013-03-12 04:30:00,48.0,46.7,29.94,South,180,4.7,5.8,95,0.00,,SKC,0.00,VWS V14.01,2013-03-12 08:30:00,
2013-03-12 04:32:00,48.0,46.7,29.94,South,180,5.8,5.8,95,0.00,,SKC,0.00,VWS V14.01,2013-03-12 08:32:00,
2013-03-12 04:33:00,47.8,46.5,29.94,SSE,158,3.4,7.4,95,0.00,,SKC,0.00,VWS V14.01,2013-03-12 08:33:00,
2013-03-12 04:34:00,47.8,46.5,29.94,SSE,158,5.4,7.4,95,0.00,,SKC,0.00,VWS V14.01,2013-03-12 08:34:00,
2013-03-12 04:36:00,47.8,46.5,29.94,SW,225,1.6,4.0,95,0.00,,SKC,0.00,VWS V14.01,2013-03-12 08:36:00,
2013-03-12 04:38:00,47.8,46.2,29.94,SE,135,1.6,4.3,94,0.00,,SKC,0.00,VWS V14.01,2013-03-12 08:38:00,
2013-03-12 04:40:00,47.8,46.2,29.94,SSE,158,3.8,4.5,94,0.00,,SKC,0.00,VWS V14.01,2013-03-12 08:40:00,
2013-03-12 04:42:00,47.8,46.2,29.94,South,180,3.4,4.9,94,0.00,,SKC,0.00,VWS V14.01,2013-03-12 08:42:00,
2013-03-12 04:43:00,47.8,46.2,29.97,SE,135,2.5,4.7,94,0.00,,SKC,0.00,VWS V14.01,2013-03-12 08:43:00,
2013-03-12 04:44:00,47.8,46.2,29.97,SSE,158,3.6,4.7,94,0.00,,SKC,0.00,VWS V14.01,2013-03-12 08:44:00,
2013-03-12 04:46:00,47.8,46.2,29.97,SE,135,4.3,4.3,94,0.00,,SKC,0.00,VWS V14.01,2013-03-12 08:46:00,
2013-03-12 04:48:00,47.8,46.2,29.97,SSE,158,4.3,4.3,94,0.00,,SKC,0.00,VWS V14.01,2013-03-12 08:48:00,
2013-03-12 04:50:00,47.8,46.2,29.97,SE,135,2.7,4.3,94,0.00,,SKC,0.00,VWS V14.01,2013-03-12 08:50:00,
2013-03-12 04:52:00,48.0,46.4,29.97,SW,225,3.6,3.6,94,0.00,,SKC,0.00,VWS V14.01,2013-03-12 08:52:00,
2013-03-12 04:53:00,48.0,46.4,29.97,SSE,158,2.5,4.0,94,0.00,,SKC,0.00,VWS V14.01,2013-03-12 08:53:00,
2013-03-12 04:54:00,48.0,46.4,29.97,SSE,158,2.5,4.0,94,0.00,,SKC,0.00,VWS V14.01,2013-03-12 08:54:00,
2013-03-12 04:56:00,48.0,46.4,29.97,South,180,3.1,3.1,94,0.00,,SKC,0.00,VWS V14.01,2013-03-12 08:56:00,
2013-03-12 04:58:00,48.0,46.4,29.97,SSE,158,3.4,3.4,94,0.00,,SKC,0.00,VWS V14.01,2013-03-12 08:58:00,
2013-03-12 05:00:00,48.0,46.4,29.97,South,180,4.9,4.9,94,0.00,,SKC,0.00,VWS V14.01,2013-03-12 09:00:00,
2013-03-12 05:02:00,48.2,46.6,29.97,SE,135,4.0,4.9,94,0.00,,SKC,0.00,VWS V14.01,2013-03-12 09:02:00,
2013-03-12 05:03:00,48.2,46.3,29.97,SE,135,5.8,5.8,93,0.00,,SKC,0.00,VWS V14.01,2013-03-12 09:03:00,
2013-03-12 05:04:00,48.2,46.3,29.97,SE,135,5.8,5.8,93,0.00,,SKC,0.00,VWS V14.01,2013-03-12 09:04:00,
2013-03-12 05:06:00,48.2,46.6,30.21,South,180,4.9,4.9,94,0.00,,SKC,0.00,VWS V14.01,2013-03-12 09:06:00,
2013-03-12 05:07:00,48.4,46.5,29.97,SSE,158,6.0,6.0,93,0.00,,SKC,0.00,VWS V14.01,2013-03-12 09:07:00,
2013-03-12 05:08:00,48.4,46.5,29.97,SSE,158,6.0,6.0,93,0.00,,SKC,0.00,VWS V14.01,2013-03-12 09:08:00,
2013-03-12 05:09:00,48.4,46.5,29.97,SSE,158,6.0,6.0,93,0.00,,SKC,0.00,VWS V14.01,2013-03-12 09:09:00,
2013-03-12 05:10:00,48.4,46.5,29.97,ESE,112,3.8,6.0,93,0.00,,SKC,0.00,VWS V14.01,2013-03-12 09:10:00,
2013-03-12 05:11:00,48.4,46.5,29.97,SE,135,5.4,6.0,93,0.00,,SKC,0.00,VWS V14.01,2013-03-12 09:11:00,
2013-03-12 05:12:00,48.4,46.5,29.97,SE,135,3.1,6.0,93,0.00,,SKC,0.00,VWS V14.01,2013-03-12 09:12:00,
2013-03-12 05:13:00,48.4,46.5,29.97,SE,135,3.1,6.0,93,0.00,,SKC,0.00,VWS V14.01,2013-03-12 09:13:00,
2013-03-12 05:14:00,48.4,46.5,29.97,SE,135,3.1,6.0,93,0.00,,SKC,0.00,VWS V14.01,2013-03-12 09:14:00,
2013-03-12 05:15:00,48.4,46.5,29.97,SE,135,3.1,6.0,93,0.00,,SKC,0.00,VWS V14.01,2013-03-12 09:15:00,
2013-03-12 05:16:00,48.6,46.6,29.97,SSE,158,2.5,6.0,93,0.00,,SKC,0.00,VWS V14.01,2013-03-12 09:16:00,
2013-03-12 05:17:00,48.6,46.6,29.97,South,180,4.0,6.0,93,0.00,,SKC,0.00,VWS V14.01,2013-03-12 09:17:00,
2013-03-12 05:18:00,48.6,46.6,29.97,South,180,4.0,6.0,93,0.00,,SKC,0.00,VWS V14.01,2013-03-12 09:18:00,
2013-03-12 05:20:00,48.6,46.6,29.97,SE,135,3.8,6.0,93,0.00,,SKC,0.00,VWS V14.01,2013-03-12 09:20:00,
2013-03-12 05:21:00,48.6,46.6,29.97,SE,135,2.9,6.0,93,0.00,,SKC,0.00,VWS V14.01,2013-03-12 09:21:00,
2013-03-12 05:22:00,48.6,46.6,29.97,SSE,158,4.3,6.0,93,0.00,,SKC,0.00,VWS V14.01,2013-03-12 09:22:00,
2013-03-12 05:23:00,48.6,46.6,29.97,South,180,3.8,6.0,93,0.00,,SKC,0.00,VWS V14.01,2013-03-12 09:23:00,
2013-03-12 05:24:00,48.6,46.6,29.97,South,180,3.8,6.0,93,0.00,,SKC,0.00,VWS V14.01,2013-03-12 09:24:00,
2013-03-12 05:25:00,48.6,46.6,29.97,SSE,158,5.8,6.0,93,0.00,,SKC,0.00,VWS V14.01,2013-03-12 09:25:00,
2013-03-12 05:26:00,48.6,46.6,29.97,SSE,158,5.8,6.0,93,0.00,,SKC,0.00,VWS V14.01,2013-03-12 09:26:00,
2013-03-12 05:27:00,48.6,46.6,29.97,SSE,158,6.5,6.5,93,0.00,,SKC,0.00,VWS V14.01,2013-03-12 09:27:00,
2013-03-12 05:28:00,48.6,46.6,29.97,SSE,158,5.6,6.5,93,0.00,,SKC,0.00,VWS V14.01,2013-03-12 09:28:00,
2013-03-12 05:29:00,48.6,46.6,29.94,SSE,158,5.6,6.5,93,0.00,,SKC,0.00,VWS V14.01,2013-03-12 09:29:00,
2013-03-12 05:30:00,48.6,46.6,29.94,SSE,158,5.6,6.5,93,0.00,,SKC,0.00,VWS V14.01,2013-03-12 09:30:00,
2013-03-12 05:31:00,48.6,46.6,29.94,SE,135,6.5,6.5,93,0.00,,SKC,0.00,VWS V14.01,2013-03-12 09:31:00,
2013-03-12 05:32:00,48.6,46.3,29.94,SE,135,6.5,6.5,92,0.00,,SKC,0.00,VWS V14.01,2013-03-12 09:32:00,
2013-03-12 05:33:00,48.7,46.5,29.94,SSE,158,5.4,6.5,92,0.00,,SKC,0.00,VWS V14.01,2013-03-12 09:33:00,
2013-03-12 05:35:00,48.7,46.5,29.94,SSE,158,4.7,6.5,92,0.00,,SKC,0.00,VWS V14.01,2013-03-12 09:35:00,
2013-03-12 05:36:00,48.6,46.3,29.94,SSE,158,4.3,6.5,92,0.00,,SKC,0.00,VWS V14.01,2013-03-12 09:36:00,
2013-03-12 05:37:00,48.7,46.5,29.94,SSE,158,6.9,6.9,92,0.00,,SKC,0.00,VWS V14.01,2013-03-12 09:37:00,
2013-03-12 05:38:00,48.6,46.3,29.94,SSE,158,6.9,6.9,92,0.00,,SKC,0.00,VWS V14.01,2013-03-12 09:38:00,
2013-03-12 05:39:00,48.6,46.3,29.94,SSE,158,6.9,6.9,92,0.00,,SKC,0.00,VWS V14.01,2013-03-12 09:39:00,
2013-03-12 05:40:00,48.6,46.3,29.94,South,180,6.7,6.9,92,0.00,,SKC,0.00,VWS V14.01,2013-03-12 09:40:00,
2013-03-12 05:41:00,48.7,46.5,29.94,South,180,4.3,6.9,92,0.00,,SKC,0.00,VWS V14.01,2013-03-12 09:41:00,
2013-03-12 05:42:00,48.7,46.5,29.94,SE,135,6.0,6.9,92,0.00,,SKC,0.00,VWS V14.01,2013-03-12 09:42:00,
2013-03-12 05:43:00,48.7,46.5,29.94,SSE,158,5.4,6.9,92,0.00,,SKC,0.00,VWS V14.01,2013-03-12 09:43:00,
2013-03-12 05:44:00,48.7,46.5,29.97,SSE,158,3.8,6.9,92,0.00,,SKC,0.00,VWS V14.01,2013-03-12 09:44:00,
2013-03-12 05:45:00,48.7,46.5,29.97,SSE,158,3.8,6.9,92,0.00,,SKC,0.00,VWS V14.01,2013-03-12 09:45:00,
2013-03-12 05:46:00,48.7,46.5,29.97,SSE,158,3.8,6.9,92,0.00,,SKC,0.00,VWS V14.01,2013-03-12 09:46:00,
2013-03-12 05:47:00,48.7,46.5,29.97,SSE,158,6.0,6.9,92,0.00,,SKC,0.00,VWS V14.01,2013-03-12 09:47:00,
2013-03-12 05:48:00,48.7,46.5,29.97,SE,135,5.8,6.9,92,0.00,,SKC,0.00,VWS V14.01,2013-03-12 09:48:00,
2013-03-12 05:49:00,48.7,46.5,29.97,SE,135,2.5,6.9,92,0.00,,SKC,0.00,VWS V14.01,2013-03-12 09:49:00,
2013-03-12 05:51:00,48.7,46.5,29.97,East,90,2.9,6.9,92,0.00,,SKC,0.00,VWS V14.01,2013-03-12 09:51:00,
2013-03-12 05:52:00,48.7,46.5,29.97,SSE,158,6.3,6.9,92,0.00,,SKC,0.00,VWS V14.01,2013-03-12 09:52:00,
2013-03-12 05:53:00,48.7,46.5,29.97,SSE,158,6.3,6.9,92,0.00,,SKC,0.00,VWS V14.01,2013-03-12 09:53:00,
2013-03-12 05:54:00,48.7,46.5,29.97,SSE,158,6.3,6.9,92,0.00,,SKC,0.00,VWS V14.01,2013-03-12 09:54:00,
2013-03-12 05:55:00,48.7,46.5,29.97,SSE,158,5.4,6.9,92,0.00,,SKC,0.00,VWS V14.01,2013-03-12 09:55:00,
2013-03-12 05:56:00,48.7,46.5,29.97,SSE,158,5.4,6.9,92,0.00,,SKC,0.00,VWS V14.01,2013-03-12 09:56:00,
2013-03-12 05:57:00,48.7,46.5,29.97,SSE,158,4.9,6.9,92,0.00,,SKC,0.00,VWS V14.01,2013-03-12 09:57:00,
2013-03-12 05:58:00,48.7,46.5,29.97,SSE,158,5.8,6.9,92,0.00,,SKC,0.00,VWS V14.01,2013-03-12 09:58:00,
2013-03-12 05:59:00,48.7,46.5,29.97,SSE,158,5.8,6.9,92,0.00,,SKC,0.00,VWS V14.01,2013-03-12 09:59:00,
2013-03-12 06:00:00,48.7,46.5,29.97,SSE,158,5.8,6.7,92,0.00,,SKC,0.00,VWS V14.01,2013-03-12 10:00:00,
2013-03-12 06:01:00,48.7,46.5,29.97,SSE,158,5.8,6.3,92,0.00,,SKC,0.00,VWS V14.01,2013-03-12 10:01:00,
2013-03-12 06:02:00,48.7,46.5,29.97,SE,135,8.5,8.5,92,0.00,,SKC,0.00,VWS V14.01,2013-03-12 10:02:00,
2013-03-12 06:03:00,48.7,46.5,29.97,SE,135,8.5,8.5,92,0.00,,SKC,0.00,VWS V14.01,2013-03-12 10:03:00,
2013-03-12 06:04:00,48.7,46.5,29.97,South,180,7.6,8.5,92,0.00,,SKC,0.00,VWS V14.01,2013-03-12 10:04:00,
2013-03-12 06:05:00,48.7,46.5,29.97,SSE,158,2.7,8.5,92,0.00,,SKC,0.00,VWS V14.01,2013-03-12 10:05:00,
2013-03-12 06:07:00,48.7,46.5,29.97,SSE,158,5.8,8.5,92,0.00,,SKC,0.00,VWS V14.01,2013-03-12 10:07:00,
2013-03-12 06:08:00,48.7,46.5,29.97,SSE,158,6.3,8.5,92,0.00,,SKC,0.00,VWS V14.01,2013-03-12 10:08:00,
2013-03-12 06:09:00,48.7,46.5,29.97,South,180,6.5,8.5,92,0.00,,SKC,0.00,VWS V14.01,2013-03-12 10:09:00,
2013-03-12 06:10:00,48.7,46.5,29.97,SSE,158,8.5,8.5,92,0.00,,SKC,0.00,VWS V14.01,2013-03-12 10:10:00,
2013-03-12 06:11:00,48.9,46.7,29.97,SSE,158,8.5,8.5,92,0.00,,SKC,0.00,VWS V14.01,2013-03-12 10:11:00,
2013-03-12 06:12:00,48.9,46.7,29.97,SE,135,3.6,8.5,92,0.00,,SKC,0.00,VWS V14.01,2013-03-12 10:12:00,
2013-03-12 06:13:00,48.9,46.7,29.97,SE,135,3.6,8.5,92,0.00,,SKC,0.00,VWS V14.01,2013-03-12 10:13:00,
2013-03-12 06:14:00,48.9,46.7,29.97,SE,135,3.6,8.5,92,0.00,,SKC,0.00,VWS V14.01,2013-03-12 10:14:00,
2013-03-12 06:15:00,48.9,46.7,29.97,South,180,6.5,8.5,92,0.00,,SKC,0.00,VWS V14.01,2013-03-12 10:15:00,
2013-03-12 06:16:00,48.9,46.7,29.97,SSE,158,6.9,8.5,92,0.00,,SKC,0.00,VWS V14.01,2013-03-12 10:16:00,
2013-03-12 06:17:00,48.9,46.7,29.97,SSE,158,6.9,8.5,92,0.00,,SKC,0.00,VWS V14.01,2013-03-12 10:17:00,
2013-03-12 06:18:00,48.9,46.7,29.97,South,180,4.3,8.5,92,0.00,,SKC,0.00,VWS V14.01,2013-03-12 10:18:00,
2013-03-12 06:19:00,48.9,46.7,29.97,South,180,2.9,8.5,92,0.00,,SKC,0.00,VWS V14.01,2013-03-12 10:19:00,
2013-03-12 06:20:00,48.9,46.7,29.97,South,180,2.9,8.5,92,0.00,,SKC,0.00,VWS V14.01,2013-03-12 10:20:00,
2013-03-12 06:22:00,49.1,46.9,29.97,SSE,158,5.8,8.5,92,0.00,,SKC,0.00,VWS V14.01,2013-03-12 10:22:00,
2013-03-12 06:23:00,49.1,46.9,29.97,SSE,158,5.8,8.5,92,0.00,,SKC,0.00,VWS V14.01,2013-03-12 10:23:00,
2013-03-12 06:24:00,49.1,46.9,29.97,SSE,158,5.8,8.5,92,0.00,,SKC,0.00,VWS V14.01,2013-03-12 10:24:00,
2013-03-12 06:25:00,49.1,46.9,29.97,SSE,158,5.8,8.5,92,0.00,,SKC,0.00,VWS V14.01,2013-03-12 10:25:00,
2013-03-12 06:26:00,49.1,46.9,29.97,SE,135,5.4,8.5,92,0.00,,SKC,0.00,VWS V14.01,2013-03-12 10:26:00,
2013-03-12 06:27:00,49.1,46.9,29.97,SSE,158,6.5,8.5,92,0.00,,SKC,0.00,VWS V14.01,2013-03-12 10:27:00,
2013-03-12 06:28:00,49.1,46.9,29.97,SSE,158,6.5,8.5,92,0.00,,SKC,0.00,VWS V14.01,2013-03-12 10:28:00,
2013-03-12 06:29:00,49.1,46.9,29.94,SSE,158,6.5,8.5,92,0.00,,SKC,0.00,VWS V14.01,2013-03-12 10:29:00,
2013-03-12 06:30:00,49.1,46.9,29.94,SSE,158,8.5,8.5,92,0.00,,SKC,0.00,VWS V14.01,2013-03-12 10:30:00,
2013-03-12 06:31:00,49.1,46.9,29.94,SSE,158,8.5,8.5,92,0.00,,SKC,0.00,VWS V14.01,2013-03-12 10:31:00,
2013-03-12 06:32:00,49.1,46.9,29.94,SE,135,6.9,8.5,92,0.00,,SKC,0.00,VWS V14.01,2013-03-12 10:32:00,
2013-03-12 06:33:00,49.1,46.9,29.94,SE,135,6.9,8.5,92,0.00,,SKC,0.00,VWS V14.01,2013-03-12 10:33:00,
2013-03-12 06:34:00,49.1,46.9,29.94,SSE,158,6.7,8.5,92,0.00,,SKC,0.00,VWS V14.01,2013-03-12 10:34:00,
2013-03-12 06:35:00,49.1,46.6,29.94,SSE,158,6.7,8.5,91,0.00,,SKC,0.00,VWS V14.01,2013-03-12 10:35:00,
2013-03-12 06:36:00,49.1,46.6,29.94,SE,135,6.3,8.5,91,0.00,,SKC,0.00,VWS V14.01,2013-03-12 10:36:00,
2013-03-12 06:38:00,49.1,46.6,29.94,SE,135,6.7,8.5,91,0.00,,SKC,0.00,VWS V14.01,2013-03-12 10:38:00,
2013-03-12 06:39:00,49.1,46.6,29.94,SE,135,7.2,8.5,91,0.00,,SKC,0.00,VWS V14.01,2013-03-12 10:39:00,
2013-03-12 06:40:00,49.1,46.6,29.94,SSE,158,8.1,8.5,91,0.00,,SKC,0.00,VWS V14.01,2013-03-12 10:40:00,
2013-03-12 06:41:00,49.1,46.6,29.94,SSE,158,8.1,8.5,91,0.00,,SKC,0.00,VWS V14.01,2013-03-12 10:41:00,
2013-03-12 06:42:00,49.1,46.6,29.94,SSE,158,8.1,8.5,91,0.00,,SKC,0.00,VWS V14.01,2013-03-12 10:42:00,
2013-03-12 06:43:00,49.1,46.6,29.94,SSE,158,5.8,8.5,91,0.00,,SKC,0.00,VWS V14.01,2013-03-12 10:43:00,
2013-03-12 06:44:00,49.1,46.6,29.94,SSE,158,8.1,8.5,91,0.00,,SKC,0.00,VWS V14.01,2013-03-12 10:44:00,
2013-03-12 06:45:00,49.1,46.6,29.94,SE,135,6.3,8.5,91,0.00,,SKC,0.00,VWS V14.01,2013-03-12 10:45:00,
2013-03-12 06:46:00,49.1,46.6,29.94,SE,135,6.3,8.5,91,0.00,,SKC,0.00,VWS V14.01,2013-03-12 10:46:00,
2013-03-12 06:47:00,48.9,46.4,29.94,SSE,158,6.0,8.5,91,0.00,,SKC,0.00,VWS V14.01,2013-03-12 10:47:00,
2013-03-12 06:48:00,48.9,46.4,29.94,SSE,158,3.4,8.5,91,0.00,,SKC,0.00,VWS V14.01,2013-03-12 10:48:00,
2013-03-12 06:49:00,48.9,46.4,29.94,SSE,158,6.3,8.5,91,0.00,,SKC,0.00,VWS V14.01,2013-03-12 10:49:00,
2013-03-12 06:50:00,48.9,46.4,29.94,South,180,6.0,8.5,91,0.00,,SKC,0.00,VWS V14.01,2013-03-12 10:50:00,
2013-03-12 06:51:00,48.9,46.4,29.94,SE,135,5.6,8.5,91,0.00,,SKC,0.00,VWS V14.01,2013-03-12 10:51:00,
2013-03-12 06:52:00,49.1,46.6,29.94,SSE,158,6.5,8.1,91,0.00,,SKC,0.00,VWS V14.01,2013-03-12 10:52:00,
2013-03-12 06:54:00,49.1,46.6,29.94,SSE,158,5.8,8.1,91,0.00,,SKC,0.00,VWS V14.01,2013-03-12 10:54:00,
2013-03-12 06:55:00,49.1,46.6,29.94,SSE,158,6.3,8.1,91,0.00,,SKC,0.00,VWS V14.01,2013-03-12 10:55:00,
2013-03-12 06:56:00,49.1,46.6,29.94,SSE,158,6.3,8.1,91,0.00,,SKC,0.00,VWS V14.01,2013-03-12 10:56:00,
2013-03-12 06:57:00,49.1,46.6,29.94,South,180,6.3,8.1,91,0.00,,SKC,0.00,VWS V14.01,2013-03-12 10:57:00,
2013-03-12 06:58:00,49.1,46.6,29.94,SSE,158,6.9,8.1,91,0.00,,SKC,0.00,VWS V14.01,2013-03-12 10:58:00,
2013-03-12 06:59:00,49.1,46.6,29.94,SSE,158,6.9,8.1,91,0.00,,SKC,0.00,VWS V14.01,2013-03-12 10:59:00,
2013-03-12 07:00:00,49.1,46.6,29.94,SSE,158,8.5,8.5,91,0.00,,SKC,0.00,VWS V14.01,2013-03-12 11:00:00,
2013-03-12 07:01:00,49.1,46.6,29.94,SE,135,10.7,10.7,91,0.00,,SKC,0.00,VWS V14.01,2013-03-12 11:01:00,
2013-03-12 07:02:00,48.9,46.4,29.94,SSE,158,6.5,10.7,91,0.00,,SKC,0.00,VWS V14.01,2013-03-12 11:02:00,
2013-03-12 07:03:00,48.9,46.4,29.94,SSE,158,7.6,10.7,91,0.00,,SKC,0.00,VWS V14.01,2013-03-12 11:03:00,
2013-03-12 07:04:00,48.9,46.4,29.94,SSE,158,10.3,10.7,91,0.00,,SKC,0.00,VWS V14.01,2013-03-12 11:04:00,
2013-03-12 07:05:00,48.9,46.4,29.94,SE,135,8.7,10.7,91,0.00,,SKC,0.00,VWS V14.01,2013-03-12 11:05:00,
2013-03-12 07:06:00,48.9,46.4,29.94,SSE,158,5.4,10.7,91,0.00,,SKC,0.00,VWS V14.01,2013-03-12 11:06:00,
2013-03-12 07:07:00,48.9,46.4,29.94,SSE,158,5.4,10.7,91,0.00,,SKC,0.00,VWS V14.01,2013-03-12 11:07:00,
2013-03-12 07:09:00,48.9,46.4,29.94,SSE,158,5.8,10.7,91,0.00,,SKC,0.00,VWS V14.01,2013-03-12 11:09:00,
2013-03-12 07:10:00,48.9,46.4,29.94,SSE,158,5.8,10.7,91,0.00,,SKC,0.00,VWS V14.01,2013-03-12 11:10:00,
2013-03-12 07:11:00,48.9,46.4,29.94,SSE,158,8.1,10.7,91,0.00,,SKC,0.00,VWS V14.01,2013-03-12 11:11:00,
2013-03-12 07:12:00,48.9,46.4,29.94,SSE,158,8.1,10.7,91,0.00,,SKC,0.00,VWS V14.01,2013-03-12 11:12:00,
2013-03-12 07:13:00,48.9,46.4,29.94,SSE,158,7.6,10.7,91,0.00,,SKC,0.00,VWS V14.01,2013-03-12 11:13:00,
2013-03-12 07:14:00,48.9,46.4,29.94,South,180,6.5,10.7,91,0.00,,SKC,0.00,VWS V14.01,2013-03-12 11:14:00,
2013-03-12 07:15:00,48.9,46.4,29.94,South,180,6.5,10.7,91,0.00,,SKC,0.00,VWS V14.01,2013-03-12 11:15:00,
2013-03-12 07:16:00,48.9,46.4,29.94,South,180,6.5,10.7,91,0.00,,SKC,0.00,VWS V14.01,2013-03-12 11:16:00,
2013-03-12 07:17:00,48.9,46.4,29.94,South,180,7.8,10.7,91,0.00,,SKC,0.00,VWS V14.01,2013-03-12 11:17:00,
2013-03-12 07:18:00,48.9,46.4,29.94,South,180,6.3,10.7,91,0.00,,SKC,0.00,VWS V14.01,2013-03-12 11:18:00,
2013-03-12 07:19:00,48.7,46.2,29.94,SSE,158,6.5,10.7,91,0.00,,SKC,0.00,VWS V14.01,2013-03-12 11:19:00,
2013-03-12 07:20:00,48.7,46.2,29.94,SSE,158,6.5,10.7,91,0.00,,SKC,0.00,VWS V14.01,2013-03-12 11:20:00,
2013-03-12 07:21:00,48.7,46.2,29.94,SSE,158,6.5,10.7,91,0.00,,SKC,0.00,VWS V14.01,2013-03-12 11:21:00,
2013-03-12 07:22:00,48.7,46.2,29.94,SSE,158,7.4,10.3,91,0.00,,SKC,0.00,VWS V14.01,2013-03-12 11:22:00,
2013-03-12 07:23:00,48.7,46.2,29.94,SE,135,4.3,10.3,91,0.00,,SKC,0.00,VWS V14.01,2013-03-12 11:23:00,
2013-03-12 07:24:00,48.7,46.2,29.94,SE,135,6.5,10.3,91,0.00,,SKC,0.00,VWS V14.01,2013-03-12 11:24:00,
2013-03-12 07:25:00,48.7,46.2,29.94,SE,135,6.5,8.7,91,0.00,,SKC,0.00,VWS V14.01,2013-03-12 11:25:00,
2013-03-12 07:26:00,48.9,46.7,29.94,SE,135,7.4,8.1,92,0.00,,SKC,0.00,VWS V14.01,2013-03-12 11:26:00,
2013-03-12 07:27:00,48.9,46.7,29.94,South,180,7.2,8.1,92,0.00,,SKC,0.00,VWS V14.01,2013-03-12 11:27:00,
2013-03-12 07:28:00,48.9,46.7,29.94,SSE,158,3.8,8.1,92,0.00,,SKC,0.00,VWS V14.01,2013-03-12 11:28:00,
2013-03-12 07:29:00,48.9,46.7,29.94,SSE,158,3.8,8.1,92,0.00,,SKC,0.00,VWS V14.01,2013-03-12 11:29:00,
2013-03-12 07:30:00,48.9,46.7,29.94,SSE,158,6.0,8.1,92,0.00,,SKC,0.00,VWS V14.01,2013-03-12 11:30:00,
2013-03-12 07:31:00,48.9,46.7,29.94,SSE,158,6.3,8.1,92,0.00,,SKC,0.00,VWS V14.01,2013-03-12 11:31:00,
2013-03-12 07:32:00,48.9,46.7,29.94,SSE,158,6.3,7.8,92,0.00,,SKC,0.00,VWS V14.01,2013-03-12 11:32:00,
2013-03-12 07:33:00,48.9,46.7,29.94,SSE,158,6.3,7.8,92,0.00,,SKC,0.00,VWS V14.01,2013-03-12 11:33:00,
2013-03-12 07:34:00,48.9,46.7,29.94,SSE,158,6.3,7.8,92,0.00,,SKC,0.00,VWS V14.01,2013-03-12 11:34:00,
2013-03-12 07:35:00,49.1,46.9,29.94,South,180,7.8,7.8,92,0.00,,SKC,0.00,VWS V14.01,2013-03-12 11:35:00,
2013-03-12 07:36:00,49.1,46.9,29.94,SSE,158,5.8,7.8,92,0.00,,SKC,0.00,VWS V14.01,2013-03-12 11:36:00,
2013-03-12 07:37:00,49.1,46.9,29.94,SSE,158,5.8,7.8,92,0.00,,SKC,0.00,VWS V14.01,2013-03-12 11:37:00,
2013-03-12 07:38:00,49.1,46.9,29.94,South,180,6.5,7.8,92,0.00,,SKC,0.00,VWS V14.01,2013-03-12 11:38:00,
2013-03-12 07:39:00,49.1,46.9,29.94,South,180,6.3,7.8,92,0.00,,SKC,0.00,VWS V14.01,2013-03-12 11:39:00,
2013-03-12 07:40:00,49.3,47.1,29.94,SSE,158,7.6,7.8,92,0.00,,SKC,0.00,VWS V14.01,2013-03-12 11:40:00,
2013-03-12 07:41:00,49.3,47.1,29.94,South,180,7.4,7.8,92,0.00,,SKC,0.00,VWS V14.01,2013-03-12 11:41:00,
2013-03-12 07:42:00,49.3,47.1,29.94,South,180,3.8,7.8,92,0.00,,SKC,0.00,VWS V14.01,2013-03-12 11:42:00,
2013-03-12 07:43:00,49.3,47.1,29.94,SSE,158,2.5,7.8,92,0.00,,SKC,0.00,VWS V14.01,2013-03-12 11:43:00,
2013-03-12 07:44:00,49.3,47.1,29.94,SSE,158,8.5,8.5,92,0.00,,SKC,0.00,VWS V14.01,2013-03-12 11:44:00,
2013-03-12 07:45:00,49.3,47.1,29.94,SSE,158,6.7,8.5,92,0.00,,SKC,0.00,VWS V14.01,2013-03-12 11:45:00,
2013-03-12 07:46:00,49.3,47.1,29.94,SSE,158,7.4,8.5,92,0.00,,SKC,0.00,VWS V14.01,2013-03-12 11:46:00,
2013-03-12 07:47:00,49.3,47.1,29.94,SSE,158,8.5,8.5,92,0.00,,SKC,0.00,VWS V14.01,2013-03-12 11:47:00,
2013-03-12 07:48:00,49.5,47.2,29.94,SSE,158,6.3,8.5,92,0.00,,SKC,0.00,VWS V14.01,2013-03-12 11:48:00,
2013-03-12 07:49:00,49.5,47.2,29.94,SSE,158,2.9,8.5,92,0.00,,SKC,0.00,VWS V14.01,2013-03-12 11:49:00,
2013-03-12 07:50:00,49.5,47.2,29.94,South,180,6.0,8.5,92,0.00,,SKC,0.00,VWS V14.01,2013-03-12 11:50:00,
2013-03-12 07:51:00,49.5,47.2,29.94,SE,135,6.5,8.5,92,0.00,,SKC,0.00,VWS V14.01,2013-03-12 11:51:00,
2013-03-12 07:52:00,49.5,47.2,29.94,SE,135,6.3,8.5,92,0.00,,SKC,0.00,VWS V14.01,2013-03-12 11:52:00,
2013-03-12 07:53:00,49.5,47.2,29.94,SSE,158,2.7,8.5,92,0.00,,SKC,0.00,VWS V14.01,2013-03-12 11:53:00,
2013-03-12 07:54:00,49.6,47.4,29.94,SE,135,8.7,8.7,92,0.00,,SKC,0.00,VWS V14.01,2013-03-12 11:54:00,
2013-03-12 07:55:00,49.6,47.4,29.94,SE,135,5.4,8.7,92,0.00,,SKC,0.00,VWS V14.01,2013-03-12 11:55:00,
2013-03-12 07:56:00,49.6,47.4,29.94,SSE,158,7.4,8.7,92,0.00,,SKC,0.00,VWS V14.01,2013-03-12 11:56:00,
2013-03-12 07:57:00,49.6,47.4,29.94,SE,135,8.1,8.7,92,0.00,,SKC,0.00,VWS V14.01,2013-03-12 11:57:00,
2013-03-12 07:58:00,49.6,47.4,29.94,SE,135,5.6,8.7,92,0.00,,SKC,0.00,VWS V14.01,2013-03-12 11:58:00,
2013-03-12 07:59:00,49.8,47.6,29.94,SSE,158,5.4,8.7,92,0.00,,SKC,0.00,VWS V14.01,2013-03-12 11:59:00,
2013-03-12 08:00:00,49.8,47.6,29.94,South,180,9.8,9.8,92,0.00,,SKC,0.00,VWS V14.01,2013-03-12 12:00:00,
2013-03-12 08:01:00,49.8,47.6,29.94,SSE,158,7.2,9.8,92,0.00,,SKC,0.00,VWS V14.01,2013-03-12 12:01:00,
2013-03-12 08:03:00,50.0,47.8,29.94,SSE,158,6.5,9.8,92,0.00,,SKC,0.00,VWS V14.01,2013-03-12 12:03:00,
2013-03-12 08:04:00,50.0,47.8,29.94,SSE,158,7.4,9.8,92,0.00,,SKC,0.00,VWS V14.01,2013-03-12 12:04:00,
2013-03-12 08:05:00,50.0,47.8,29.94,SSE,158,8.5,9.8,92,0.00,,SKC,0.00,VWS V14.01,2013-03-12 12:05:00,
2013-03-12 08:06:00,50.0,47.8,29.94,South,180,8.7,9.8,92,0.00,,SKC,0.00,VWS V14.01,2013-03-12 12:06:00,
2013-03-12 08:07:00,50.0,47.8,29.94,SSE,158,5.8,9.8,92,0.00,,SKC,0.00,VWS V14.01,2013-03-12 12:07:00,
2013-03-12 08:08:00,50.2,48.0,29.94,SSE,158,8.1,9.8,92,0.00,,SKC,0.00,VWS V14.01,2013-03-12 12:08:00,
2013-03-12 08:09:00,50.2,48.0,29.94,SE,135,6.3,9.8,92,0.00,,SKC,0.00,VWS V14.01,2013-03-12 12:09:00,
2013-03-12 08:10:00,50.2,48.0,29.94,SSE,158,5.6,9.8,92,0.00,,SKC,0.00,VWS V14.01,2013-03-12 12:10:00,
2013-03-12 08:11:00,50.2,48.0,29.94,SE,135,5.4,9.8,92,0.00,,SKC,0.00,VWS V14.01,2013-03-12 12:11:00,
2013-03-12 08:13:00,50.2,48.0,29.94,SE,135,7.6,9.8,92,0.00,,SKC,0.00,VWS V14.01,2013-03-12 12:13:00,
2013-03-12 08:14:00,50.2,48.0,29.94,SSE,158,7.8,9.8,92,0.00,,SKC,0.00,VWS V14.01,2013-03-12 12:14:00,
2013-03-12 08:15:00,50.4,48.1,29.94,SE,135,8.5,9.8,92,0.00,,SKC,0.00,VWS V14.01,2013-03-12 12:15:00,
2013-03-12 08:16:00,50.4,48.1,29.94,SE,135,4.5,9.8,92,0.00,,SKC,0.00,VWS V14.01,2013-03-12 12:16:00,
2013-03-12 08:17:00,50.4,47.8,29.94,SSE,158,6.7,9.8,91,0.00,,SKC,0.00,VWS V14.01,2013-03-12 12:17:00,
2013-03-12 08:18:00,50.4,47.8,29.94,South,180,6.3,9.8,91,0.00,,SKC,0.00,VWS V14.01,2013-03-12 12:18:00,
2013-03-12 08:19:00,50.4,47.8,29.94,South,180,6.5,9.8,91,0.00,,SKC,0.00,VWS V14.01,2013-03-12 12:19:00,
2013-03-12 08:20:00,50.5,48.0,29.94,South,180,7.4,9.8,91,0.00,,SKC,0.00,VWS V14.01,2013-03-12 12:20:00,
2013-03-12 08:21:00,50.5,48.0,29.94,SSE,158,7.8,9.8,91,0.00,,SKC,0.00,VWS V14.01,2013-03-12 12:21:00,
2013-03-12 08:22:00,50.5,48.0,29.94,SE,135,7.4,8.7,91,0.00,,SKC,0.00,VWS V14.01,2013-03-12 12:22:00,
2013-03-12 08:23:00,50.5,48.0,29.94,SE,135,6.0,8.7,91,0.00,,SKC,0.00,VWS V14.01,2013-03-12 12:23:00,
2013-03-12 08:24:00,50.5,48.0,29.94,SSE,158,7.6,8.7,91,0.00,,SKC,0.00,VWS V14.01,2013-03-12 12:24:00,
2013-03-12 08:25:00,50.5,48.0,29.94,SE,135,5.4,8.7,91,0.00,,SKC,0.00,VWS V14.01,2013-03-12 12:25:00,
2013-03-12 08:27:00,50.7,48.2,29.94,South,180,6.0,8.7,91,0.00,,SKC,0.00,VWS V14.01,2013-03-12 12:27:00,
2013-03-12 08:28:00,50.7,48.2,29.94,SE,135,4.3,8.5,91,0.00,,SKC,0.00,VWS V14.01,2013-03-12 12:28:00,
2013-03-12 08:29:00,50.7,48.2,29.94,South,180,4.9,8.5,91,0.00,,SKC,0.00,VWS V14.01,2013-03-12 12:29:00,
2013-03-12 08:31:00,50.7,48.2,29.94,SE,135,6.3,8.5,91,0.00,,SKC,0.00,VWS V14.01,2013-03-12 12:31:00,
2013-03-12 08:32:00,50.7,48.2,29.94,South,180,6.5,8.5,91,0.00,,SKC,0.00,VWS V14.01,2013-03-12 12:32:00,
2013-03-12 08:33:00,50.7,47.9,29.94,SSE,158,6.3,8.5,90,0.00,,SKC,0.00,VWS V14.01,2013-03-12 12:33:00,
2013-03-12 08:34:00,50.9,48.1,29.94,SSE,158,6.5,8.5,90,0.00,,SKC,0.00,VWS V14.01,2013-03-12 12:34:00,
2013-03-12 08:35:00,50.9,48.1,29.94,South,180,7.4,8.5,90,0.00,,SKC,0.00,VWS V14.01,2013-03-12 12:35:00,
2013-03-12 08:36:00,50.9,48.1,29.94,SSE,158,6.0,8.5,90,0.00,,SKC,0.00,VWS V14.01,2013-03-12 12:36:00,
2013-03-12 08:38:00,50.9,48.1,29.94,SE,135,5.8,7.8,90,0.00,,SKC,0.00,VWS V14.01,2013-03-12 12:38:00,
2013-03-12 08:39:00,51.1,48.2,29.94,SSE,158,6.5,7.8,90,0.00,,SKC,0.00,VWS V14.01,2013-03-12 12:39:00,
2013-03-12 08:40:00,51.1,48.2,29.94,SSE,158,5.4,7.8,90,0.00,,SKC,0.00,VWS V14.01,2013-03-12 12:40:00,
2013-03-12 08:41:00,51.1,48.2,29.94,SE,135,6.3,7.8,90,0.00,,SKC,0.00,VWS V14.01,2013-03-12 12:41:00,
2013-03-12 08:42:00,51.1,48.2,29.94,SSE,158,4.7,7.8,90,0.00,,SKC,0.00,VWS V14.01,2013-03-12 12:42:00,
2013-03-12 08:43:00,51.1,48.2,29.94,SSE,158,7.4,7.8,90,0.00,,SKC,0.00,VWS V14.01,2013-03-12 12:43:00,
2013-03-12 08:44:00,51.1,48.2,29.94,SSE,158,9.4,9.4,90,0.00,,SKC,0.00,VWS V14.01,2013-03-12 12:44:00,
2013-03-12 08:45:00,51.1,48.2,29.94,SSE,158,3.6,9.4,90,0.00,,SKC,0.00,VWS V14.01,2013-03-12 12:45:00,
2013-03-12 08:46:00,51.1,48.2,29.94,SSE,158,5.6,9.4,90,0.00,,SKC,0.00,VWS V14.01,2013-03-12 12:46:00,
2013-03-12 08:47:00,51.1,48.0,29.94,SSE,158,7.8,9.4,89,0.00,,SKC,0.00,VWS V14.01,2013-03-12 12:47:00,
2013-03-12 08:48:00,51.3,48.1,29.94,SE,135,6.5,9.4,89,0.00,,SKC,0.00,VWS V14.01,2013-03-12 12:48:00,
2013-03-12 08:49:00,51.3,48.1,29.94,SSE,158,7.4,9.4,89,0.00,,SKC,0.00,VWS V14.01,2013-03-12 12:49:00,
2013-03-12 08:50:00,51.3,48.1,29.94,SSE,158,8.5,9.4,89,0.00,,SKC,0.00,VWS V14.01,2013-03-12 12:50:00,
2013-03-12 08:51:00,51.1,48.0,29.94,SSE,158,8.1,9.4,89,0.00,,SKC,0.00,VWS V14.01,2013-03-12 12:51:00,
2013-03-12 08:52:00,51.3,48.1,29.94,SSE,158,7.2,9.4,89,0.00,,SKC,0.00,VWS V14.01,2013-03-12 12:52:00,
2013-03-12 08:53:00,51.3,48.1,29.94,South,180,6.5,9.4,89,0.00,,SKC,0.00,VWS V14.01,2013-03-12 12:53:00,
2013-03-12 08:54:00,51.3,48.1,29.94,SSE,158,7.2,9.4,89,0.00,,SKC,0.00,VWS V14.01,2013-03-12 12:54:00,
2013-03-12 08:55:00,51.3,48.1,29.94,SSE,158,6.3,9.4,89,0.00,,SKC,0.00,VWS V14.01,2013-03-12 12:55:00,
2013-03-12 08:56:00,51.3,48.1,29.94,SSE,158,7.8,9.4,89,0.00,,SKC,0.00,VWS V14.01,2013-03-12 12:56:00,
2013-03-12 08:57:00,51.3,48.1,29.94,South,180,7.2,9.4,89,0.00,,SKC,0.00,VWS V14.01,2013-03-12 12:57:00,
2013-03-12 08:58:00,51.3,48.1,29.94,South,180,10.7,10.7,89,0.00,,SKC,0.00,VWS V14.01,2013-03-12 12:58:00,
2013-03-12 08:59:00,51.3,48.1,29.94,South,180,8.5,10.7,89,0.00,,SKC,0.00,VWS V14.01,2013-03-12 12:59:00,
2013-03-12 09:00:00,51.3,47.8,29.94,SSE,158,7.8,10.7,88,0.00,,SKC,0.00,VWS V14.01,2013-03-12 13:00:00,
2013-03-12 09:01:00,51.3,47.8,29.94,SSE,158,6.5,10.7,88,0.00,,SKC,0.00,VWS V14.01,2013-03-12 13:01:00,
2013-03-12 09:02:00,51.3,47.8,29.94,SSE,158,6.5,10.7,88,0.00,,SKC,0.00,VWS V14.01,2013-03-12 13:02:00,
2013-03-12 09:03:00,51.3,47.8,29.94,SE,135,6.5,10.7,88,0.00,,SKC,0.00,VWS V14.01,2013-03-12 13:03:00,
2013-03-12 09:04:00,51.3,47.8,29.94,SSE,158,8.1,10.7,88,0.00,,SKC,0.00,VWS V14.01,2013-03-12 13:04:00,
2013-03-12 09:05:00,51.3,47.8,29.94,SW,225,11.9,11.9,88,0.00,,SKC,0.00,VWS V14.01,2013-03-12 13:05:00,
2013-03-12 09:06:00,51.3,47.8,29.94,SE,135,12.3,12.3,88,0.00,,SKC,0.00,VWS V14.01,2013-03-12 13:06:00,
2013-03-12 09:07:00,51.3,47.8,29.94,SSE,158,5.4,12.3,88,0.00,,SKC,0.00,VWS V14.01,2013-03-12 13:07:00,
2013-03-12 09:08:00,51.3,47.8,29.94,SSE,158,8.1,12.3,88,0.00,,SKC,0.00,VWS V14.01,2013-03-12 13:08:00,
2013-03-12 09:09:00,51.3,47.8,29.94,SSE,158,8.7,12.3,88,0.00,,SKC,0.00,VWS V14.01,2013-03-12 13:09:00,
2013-03-12 09:10:00,51.3,47.8,29.94,SSE,158,7.4,12.3,88,0.00,,SKC,0.00,VWS V14.01,2013-03-12 13:10:00,
2013-03-12 09:11:00,51.3,47.8,29.94,SE,135,8.7,12.3,88,0.00,,SKC,0.00,VWS V14.01,2013-03-12 13:11:00,
2013-03-12 09:12:00,51.4,48.0,29.94,SSE,158,8.1,12.3,88,0.00,,SKC,0.00,VWS V14.01,2013-03-12 13:12:00,
2013-03-12 09:13:00,51.4,48.0,29.94,SSE,158,8.7,12.3,88,0.00,,SKC,0.00,VWS V14.01,2013-03-12 13:13:00,
2013-03-12 09:14:00,51.4,48.0,29.94,SSE,158,5.4,12.3,88,0.00,,SKC,0.00,VWS V14.01,2013-03-12 13:14:00,
2013-03-12 09:15:00,51.4,48.0,29.94,SE,135,6.3,12.3,88,0.00,,SKC,0.00,VWS V14.01,2013-03-12 13:15:00,
2013-03-12 09:16:00,51.4,48.0,29.94,SSE,158,7.4,12.3,88,0.00,,SKC,0.00,VWS V14.01,2013-03-12 13:16:00,
2013-03-12 09:17:00,51.4,48.0,29.94,SE,135,6.5,12.3,88,0.00,,SKC,0.00,VWS V14.01,2013-03-12 13:17:00,
2013-03-12 09:18:00,51.6,48.2,29.94,SE,135,7.4,12.3,88,0.00,,SKC,0.00,VWS V14.01,2013-03-12 13:18:00,
2013-03-12 09:19:00,51.6,48.2,29.94,South,180,6.0,12.3,88,0.00,,SKC,0.00,VWS V14.01,2013-03-12 13:19:00,
2013-03-12 09:20:00,51.6,48.2,29.94,SSE,158,5.6,12.3,88,0.00,,SKC,0.00,VWS V14.01,2013-03-12 13:20:00,
2013-03-12 09:21:00,51.6,48.2,29.94,SE,135,8.1,12.3,88,0.00,,SKC,0.00,VWS V14.01,2013-03-12 13:21:00,
2013-03-12 09:22:00,51.6,48.2,29.94,South,180,7.8,12.3,88,0.00,,SKC,0.00,VWS V14.01,2013-03-12 13:22:00,
2013-03-12 09:23:00,51.6,48.2,29.94,SSE,158,7.6,12.3,88,0.00,,SKC,0.00,VWS V14.01,2013-03-12 13:23:00,
2013-03-12 09:24:00,51.6,48.2,29.94,SE,135,7.4,12.3,88,0.00,,SKC,0.00,VWS V14.01,2013-03-12 13:24:00,
2013-03-12 09:25:00,51.6,48.2,29.94,SE,135,6.5,12.3,88,0.00,,SKC,0.00,VWS V14.01,2013-03-12 13:25:00,
2013-03-12 09:26:00,51.8,48.1,29.94,SSE,158,6.5,8.7,87,0.00,,SKC,0.00,VWS V14.01,2013-03-12 13:26:00,
2013-03-12 09:27:00,51.8,48.1,29.94,SE,135,7.6,8.7,87,0.00,,SKC,0.00,VWS V14.01,2013-03-12 13:27:00,
2013-03-12 09:28:00,51.8,48.1,29.94,SSE,158,4.3,8.7,87,0.00,,SKC,0.00,VWS V14.01,2013-03-12 13:28:00,
2013-03-12 09:29:00,51.8,48.1,29.94,SSE,158,5.8,8.7,87,0.00,,SKC,0.00,VWS V14.01,2013-03-12 13:29:00,
2013-03-12 09:30:00,51.8,48.1,29.94,SE,135,8.5,8.7,87,0.00,,SKC,0.00,VWS V14.01,2013-03-12 13:30:00,
2013-03-12 09:31:00,51.8,48.1,29.94,South,180,7.8,8.7,87,0.00,,SKC,0.00,VWS V14.01,2013-03-12 13:31:00,
2013-03-12 09:32:00,52.0,48.2,29.94,SSE,158,6.7,8.7,87,0.00,,SKC,0.00,VWS V14.01,2013-03-12 13:32:00,
2013-03-12 09:33:00,52.0,48.2,29.94,SE,135,9.2,9.2,87,0.00,,SKC,0.00,VWS V14.01,2013-03-12 13:33:00,
2013-03-12 09:34:00,52.0,48.2,29.94,SSE,158,6.5,9.2,87,0.00,,SKC,0.00,VWS V14.01,2013-03-12 13:34:00,
2013-03-12 09:35:00,52.0,48.2,29.94,SSE,158,8.7,9.2,87,0.00,,SKC,0.00,VWS V14.01,2013-03-12 13:35:00,
2013-03-12 09:36:00,52.2,48.4,29.94,SSE,158,5.6,9.2,87,0.00,,SKC,0.00,VWS V14.01,2013-03-12 13:36:00,
2013-03-12 09:37:00,52.2,48.4,29.94,SSE,158,8.1,9.2,87,0.00,,SKC,0.00,VWS V14.01,2013-03-12 13:37:00,
2013-03-12 09:38:00,52.2,48.4,29.94,SSE,158,5.8,9.2,87,0.00,,SKC,0.00,VWS V14.01,2013-03-12 13:38:00,
2013-03-12 09:39:00,52.3,48.6,29.94,SSE,158,6.5,9.2,87,0.00,,SKC,0.00,VWS V14.01,2013-03-12 13:39:00,
2013-03-12 09:40:00,52.3,48.6,29.94,East,90,10.1,10.1,87,0.00,,SKC,0.00,VWS V14.01,2013-03-12 13:40:00,
2013-03-12 09:41:00,52.3,48.6,29.94,SE,135,7.8,10.1,87,0.00,,SKC,0.00,VWS V14.01,2013-03-12 13:41:00,
2013-03-12 09:42:00,52.3,48.6,29.94,SSE,158,7.2,10.1,87,0.00,,SKC,0.00,VWS V14.01,2013-03-12 13:42:00,
2013-03-12 09:43:00,52.3,48.6,29.94,South,180,7.8,10.1,87,0.00,,SKC,0.00,VWS V14.01,2013-03-12 13:43:00,
2013-03-12 09:44:00,52.5,48.8,29.94,SSE,158,7.6,10.1,87,0.00,,SKC,0.00,VWS V14.01,2013-03-12 13:44:00,
2013-03-12 09:45:00,52.5,48.8,29.94,SE,135,5.6,10.1,87,0.00,,SKC,0.00,VWS V14.01,2013-03-12 13:45:00,
2013-03-12 09:46:00,52.5,48.8,29.94,SSE,158,8.7,10.1,87,0.00,,SKC,0.00,VWS V14.01,2013-03-12 13:46:00,
2013-03-12 09:47:00,52.5,48.8,29.94,SSE,158,10.3,10.3,87,0.00,,SKC,0.00,VWS V14.01,2013-03-12 13:47:00,
2013-03-12 09:48:00,52.5,48.8,29.94,SSE,158,8.7,10.3,87,0.00,,SKC,0.00,VWS V14.01,2013-03-12 13:48:00,
2013-03-12 09:49:00,52.7,48.6,29.94,South,180,12.1,12.1,86,0.00,,SKC,0.00,VWS V14.01,2013-03-12 13:49:00,
2013-03-12 09:50:00,52.7,48.6,29.94,South,180,7.8,12.1,86,0.00,,SKC,0.00,VWS V14.01,2013-03-12 13:50:00,
2013-03-12 09:51:00,52.7,48.6,29.94,South,180,8.5,12.1,86,0.00,,SKC,0.00,VWS V14.01,2013-03-12 13:51:00,
2013-03-12 09:52:00,52.9,48.8,29.94,SSE,158,6.3,12.1,86,0.00,,SKC,0.00,VWS V14.01,2013-03-12 13:52:00,
2013-03-12 09:53:00,52.9,48.8,29.94,SSE,158,7.4,12.1,86,0.00,,SKC,0.00,VWS V14.01,2013-03-12 13:53:00,
2013-03-12 09:54:00,52.9,48.8,29.94,ESE,112,7.6,12.1,86,0.00,,SKC,0.00,VWS V14.01,2013-03-12 13:54:00,
2013-03-12 09:55:00,52.9,48.8,29.94,SSE,158,8.1,12.1,86,0.00,,SKC,0.00,VWS V14.01,2013-03-12 13:55:00,
2013-03-12 09:56:00,52.9,48.8,29.94,SE,135,5.6,12.1,86,0.00,,SKC,0.00,VWS V14.01,2013-03-12 13:56:00,
2013-03-12 09:57:00,52.9,48.8,29.94,SE,135,6.7,12.1,86,0.00,,SKC,0.00,VWS V14.01,2013-03-12 13:57:00,
2013-03-12 09:58:00,52.9,48.8,29.94,SE,135,4.3,12.1,86,0.00,,SKC,0.00,VWS V14.01,2013-03-12 13:58:00,
2013-03-12 09:59:00,52.9,48.5,29.91,SSE,158,8.1,12.1,85,0.00,,SKC,0.00,VWS V14.01,2013-03-12 13:59:00,
2013-03-12 10:00:00,52.9,48.5,29.91,SE,135,10.3,12.1,85,0.00,,SKC,0.00,VWS V14.01,2013-03-12 14:00:00,
2013-03-12 10:01:00,52.9,48.5,29.91,SSE,158,7.8,12.1,85,0.00,,SKC,0.00,VWS V14.01,2013-03-12 14:01:00,
2013-03-12 10:02:00,52.9,48.5,29.91,SE,135,6.5,12.1,85,0.00,,SKC,0.00,VWS V14.01,2013-03-12 14:02:00,
2013-03-12 10:03:00,52.9,48.5,29.91,SE,135,6.3,12.1,85,0.00,,SKC,0.00,VWS V14.01,2013-03-12 14:03:00,
2013-03-12 10:05:00,52.9,48.5,29.91,SSE,158,7.4,12.1,85,0.00,,SKC,0.00,VWS V14.01,2013-03-12 14:05:00,
2013-03-12 10:07:00,52.9,48.5,29.91,SSE,158,6.5,12.1,85,0.00,,SKC,0.00,VWS V14.01,2013-03-12 14:07:00,
2013-03-12 10:08:00,52.9,48.5,29.91,SE,135,8.1,12.1,85,0.00,,SKC,0.00,VWS V14.01,2013-03-12 14:08:00,
2013-03-12 10:09:00,52.9,48.5,29.91,SE,135,4.0,12.1,85,0.00,,SKC,0.00,VWS V14.01,2013-03-12 14:09:00,
2013-03-12 10:10:00,52.9,48.5,29.91,SSE,158,8.5,12.1,85,0.00,,SKC,0.00,VWS V14.01,2013-03-12 14:10:00,
2013-03-12 10:11:00,52.9,48.2,29.91,SE,135,6.7,10.3,84,0.00,,SKC,0.00,VWS V14.01,2013-03-12 14:11:00,
2013-03-12 10:12:00,52.9,48.2,29.91,SSE,158,7.8,10.3,84,0.00,,SKC,0.00,VWS V14.01,2013-03-12 14:12:00,
2013-03-12 10:13:00,53.1,48.7,29.91,SSE,158,5.6,10.3,85,0.00,,SKC,0.00,VWS V14.01,2013-03-12 14:13:00,
2013-03-12 10:14:00,53.1,48.4,29.91,SSE,158,6.9,10.3,84,0.00,,SKC,0.00,VWS V14.01,2013-03-12 14:14:00,
2013-03-12 10:15:00,53.1,48.7,29.91,South,180,5.6,10.3,85,0.00,,SKC,0.00,VWS V14.01,2013-03-12 14:15:00,
2013-03-12 10:16:00,53.1,48.7,29.91,SSE,158,7.4,10.3,85,0.00,,SKC,0.00,VWS V14.01,2013-03-12 14:16:00,
2013-03-12 10:17:00,53.2,48.8,29.91,South,180,4.3,10.3,85,0.00,,SKC,0.00,VWS V14.01,2013-03-12 14:17:00,
2013-03-12 10:18:00,53.2,48.5,29.91,South,180,7.6,10.3,84,0.00,,SKC,0.00,VWS V14.01,2013-03-12 14:18:00,
2013-03-12 10:19:00,53.2,48.8,29.91,SSE,158,6.3,10.3,85,0.00,,SKC,0.00,VWS V14.01,2013-03-12 14:19:00,
2013-03-12 10:20:00,53.2,48.5,29.91,SSE,158,10.3,10.3,84,0.00,,SKC,0.00,VWS V14.01,2013-03-12 14:20:00,
2013-03-12 10:21:00,53.4,49.0,29.91,South,180,8.5,10.3,85,0.00,,SKC,0.00,VWS V14.01,2013-03-12 14:21:00,
2013-03-12 10:22:00,53.4,49.0,29.91,SSE,158,5.4,10.3,85,0.00,,SKC,0.00,VWS V14.01,2013-03-12 14:22:00,
2013-03-12 10:23:00,53.4,49.0,29.91,SSE,158,5.8,10.3,85,0.00,,SKC,0.00,VWS V14.01,2013-03-12 14:23:00,
2013-03-12 10:24:00,53.4,49.0,29.91,SE,135,5.4,10.3,85,0.00,,SKC,0.00,VWS V14.01,2013-03-12 14:24:00,
2013-03-12 10:25:00,53.4,48.7,29.91,South,180,8.5,10.3,84,0.00,,SKC,0.00,VWS V14.01,2013-03-12 14:25:00,
2013-03-12 10:26:00,53.4,48.7,29.91,SE,135,4.0,10.3,84,0.00,,SKC,0.00,VWS V14.01,2013-03-12 14:26:00,
2013-03-12 10:27:00,53.4,48.7,29.91,SSE,158,6.0,10.3,84,0.00,,SKC,0.00,VWS V14.01,2013-03-12 14:27:00,
2013-03-12 10:28:00,53.4,48.7,29.91,South,180,6.0,10.3,84,0.00,,SKC,0.00,VWS V14.01,2013-03-12 14:28:00,
2013-03-12 10:29:00,53.4,49.0,29.91,South,180,5.4,10.3,85,0.00,,SKC,0.00,VWS V14.01,2013-03-12 14:29:00,
2013-03-12 10:30:00,53.4,49.0,29.91,SSE,158,4.3,10.3,85,0.00,,SKC,0.00,VWS V14.01,2013-03-12 14:30:00,
2013-03-12 10:31:00,53.2,48.8,29.91,South,180,3.4,10.3,85,0.00,,SKC,0.00,VWS V14.01,2013-03-12 14:31:00,
2013-03-12 10:32:00,53.2,48.8,29.91,SSE,158,4.9,10.3,85,0.00,,SKC,0.00,VWS V14.01,2013-03-12 14:32:00,
2013-03-12 10:33:00,53.2,48.8,29.91,SSE,158,4.9,10.3,85,0.00,,SKC,0.00,VWS V14.01,2013-03-12 14:33:00,
2013-03-12 10:34:00,53.2,48.8,29.91,South,180,3.4,10.3,85,0.00,,SKC,0.00,VWS V14.01,2013-03-12 14:34:00,
2013-03-12 10:35:00,53.1,48.7,29.91,SSE,158,3.4,10.3,85,0.00,,SKC,0.00,VWS V14.01,2013-03-12 14:35:00,
2013-03-12 10:36:00,53.1,48.7,29.91,SE,135,2.5,10.3,85,0.00,,SKC,0.00,VWS V14.01,2013-03-12 14:36:00,
2013-03-12 10:37:00,53.1,48.7,29.91,SSW,202,3.6,10.3,85,0.00,,SKC,0.00,VWS V14.01,2013-03-12 14:37:00,
2013-03-12 10:38:00,53.1,48.7,29.91,SSE,158,4.9,10.3,85,0.00,,SKC,0.00,VWS V14.01,2013-03-12 14:38:00,
2013-03-12 10:39:00,53.1,48.7,29.91,SE,135,3.4,10.3,85,0.00,,SKC,0.00,VWS V14.01,2013-03-12 14:39:00,
2013-03-12 10:40:00,53.1,48.7,29.91,West,270,4.3,8.5,85,0.00,,SKC,0.00,VWS V14.01,2013-03-12 14:40:00,
2013-03-12 10:41:00,53.1,48.7,29.91,SSE,158,5.6,8.5,85,0.00,,SKC,0.00,VWS V14.01,2013-03-12 14:41:00,
2013-03-12 10:42:00,53.1,48.7,29.91,SSE,158,5.8,8.5,85,0.00,,SKC,0.00,VWS V14.01,2013-03-12 14:42:00,
2013-03-12 10:43:00,53.1,48.7,29.91,SE,135,3.8,8.5,85,0.00,,SKC,0.00,VWS V14.01,2013-03-12 14:43:00,
2013-03-12 10:44:00,53.1,48.7,29.91,SE,135,5.6,8.5,85,0.00,,SKC,0.00,VWS V14.01,2013-03-12 14:44:00,
2013-03-12 10:45:00,53.1,48.7,29.91,SSE,158,4.0,6.0,85,0.00,,SKC,0.00,VWS V14.01,2013-03-12 14:45:00,
2013-03-12 10:46:00,53.1,49.0,29.91,SSE,158,6.5,6.5,86,0.00,,SKC,0.00,VWS V14.01,2013-03-12 14:46:00,
2013-03-12 10:47:00,53.1,49.0,29.91,SSE,158,4.3,6.5,86,0.00,,SKC,0.00,VWS V14.01,2013-03-12 14:47:00,
2013-03-12 10:48:00,53.1,49.0,29.91,SW,225,5.6,6.5,86,0.00,,SKC,0.00,VWS V14.01,2013-03-12 14:48:00,
2013-03-12 10:49:00,53.1,49.0,29.91,South,180,5.6,6.5,86,0.00,,SKC,0.00,VWS V14.01,2013-03-12 14:49:00,
2013-03-12 10:50:00,53.1,49.0,29.91,SSE,158,5.4,6.5,86,0.00,,SKC,0.00,VWS V14.01,2013-03-12 14:50:00,
2013-03-12 10:51:00,53.1,49.0,29.91,SSE,158,5.6,6.5,86,0.00,,SKC,0.00,VWS V14.01,2013-03-12 14:51:00,
2013-03-12 10:52:00,53.1,49.0,29.91,SE,135,2.5,6.5,86,0.00,,SKC,0.00,VWS V14.01,2013-03-12 14:52:00,
2013-03-12 10:53:00,53.1,49.0,29.91,SSE,158,3.1,6.5,86,0.00,,SKC,0.00,VWS V14.01,2013-03-12 14:53:00,
2013-03-12 10:54:00,53.1,49.0,29.91,SSE,158,5.8,6.5,86,0.00,,SKC,0.00,VWS V14.01,2013-03-12 14:54:00,
2013-03-12 10:55:00,53.1,49.0,29.91,SE,135,7.2,7.2,86,0.00,,SKC,0.00,VWS V14.01,2013-03-12 14:55:00,
2013-03-12 10:56:00,53.1,49.0,29.91,SSE,158,6.5,7.2,86,0.00,,SKC,0.00,VWS V14.01,2013-03-12 14:56:00,
2013-03-12 10:57:00,53.1,49.0,29.91,SE,135,4.5,7.2,86,0.00,,SKC,0.00,VWS V14.01,2013-03-12 14:57:00,
2013-03-12 10:58:00,53.1,49.0,29.91,SSE,158,5.6,7.2,86,0.00,,SKC,0.00,VWS V14.01,2013-03-12 14:58:00,
2013-03-12 10:59:00,53.1,49.0,29.91,South,180,6.3,7.2,86,0.00,,SKC,0.00,VWS V14.01,2013-03-12 14:59:00,
2013-03-12 11:00:00,53.1,49.0,29.91,SSE,158,3.6,7.2,86,0.00,,SKC,0.00,VWS V14.01,2013-03-12 15:00:00,
2013-03-12 11:01:00,53.1,49.0,29.91,SSE,158,3.8,7.2,86,0.00,,SKC,0.00,VWS V14.01,2013-03-12 15:01:00,
2013-03-12 11:02:00,53.1,49.0,29.91,South,180,3.8,7.2,86,0.00,,SKC,0.00,VWS V14.01,2013-03-12 15:02:00,
2013-03-12 11:03:00,53.1,49.0,29.91,SSE,158,4.9,7.2,86,0.00,,SKC,0.00,VWS V14.01,2013-03-12 15:03:00,
2013-03-12 11:04:00,53.1,49.0,29.91,SE,135,8.1,8.1,86,0.00,,SKC,0.00,VWS V14.01,2013-03-12 15:04:00,
2013-03-12 11:06:00,53.2,49.2,29.91,WSW,248,5.8,8.1,86,0.00,,SKC,0.00,VWS V14.01,2013-03-12 15:06:00,
2013-03-12 11:07:00,53.2,49.2,29.91,SSE,158,6.5,8.1,86,0.00,,SKC,0.00,VWS V14.01,2013-03-12 15:07:00,
2013-03-12 11:08:00,53.2,49.2,29.91,SSE,158,6.0,8.1,86,0.00,,SKC,0.00,VWS V14.01,2013-03-12 15:08:00,
2013-03-12 11:09:00,53.2,49.2,29.91,SW,225,7.2,8.1,86,0.00,,SKC,0.00,VWS V14.01,2013-03-12 15:09:00,
2013-03-12 11:10:00,53.2,49.5,29.91,South,180,4.0,8.1,87,0.00,,SKC,0.00,VWS V14.01,2013-03-12 15:10:00,
2013-03-12 11:11:00,53.2,49.2,29.91,SSE,158,6.0,8.1,86,0.00,,SKC,0.00,VWS V14.01,2013-03-12 15:11:00,
2013-03-12 11:12:00,53.2,49.2,29.91,SSE,158,3.6,8.1,86,0.00,,SKC,0.00,VWS V14.01,2013-03-12 15:12:00,
2013-03-12 11:13:00,53.2,49.2,29.91,South,180,10.5,10.5,86,0.00,,SKC,0.00,VWS V14.01,2013-03-12 15:13:00,
2013-03-12 11:14:00,53.2,49.2,29.88,South,180,4.7,10.5,86,0.00,,SKC,0.00,VWS V14.01,2013-03-12 15:14:00,
2013-03-12 11:15:00,53.2,49.2,29.88,SSE,158,6.5,10.5,86,0.00,,SKC,0.00,VWS V14.01,2013-03-12 15:15:00,
2013-03-12 11:16:00,53.2,49.2,29.88,South,180,6.3,10.5,86,0.00,,SKC,0.00,VWS V14.01,2013-03-12 15:16:00,
2013-03-12 11:17:00,53.2,49.2,29.88,SSE,158,6.3,10.5,86,0.00,,SKC,0.00,VWS V14.01,2013-03-12 15:17:00,
2013-03-12 11:18:00,53.2,49.2,29.88,SSE,158,7.2,10.5,86,0.00,,SKC,0.00,VWS V14.01,2013-03-12 15:18:00,
2013-03-12 11:19:00,53.2,49.2,29.88,SSE,158,6.0,10.5,86,0.00,,SKC,0.00,VWS V14.01,2013-03-12 15:19:00,
2013-03-12 11:20:00,53.2,49.2,29.88,SSE,158,6.9,10.5,86,0.00,,SKC,0.00,VWS V14.01,2013-03-12 15:20:00,
2013-03-12 11:21:00,53.2,49.2,29.88,SE,135,6.7,10.5,86,0.00,,SKC,0.00,VWS V14.01,2013-03-12 15:21:00,
2013-03-12 11:22:00,53.2,49.2,29.88,South,180,5.6,10.5,86,0.00,,SKC,0.00,VWS V14.01,2013-03-12 15:22:00,
2013-03-12 11:23:00,53.2,49.2,29.88,SE,135,6.0,10.5,86,0.00,,SKC,0.00,VWS V14.01,2013-03-12 15:23:00,
2013-03-12 11:24:00,53.2,49.2,29.88,SSE,158,6.3,10.5,86,0.00,,SKC,0.00,VWS V14.01,2013-03-12 15:24:00,
2013-03-12 11:25:00,53.2,49.2,29.88,SE,135,4.9,10.5,86,0.00,,SKC,0.00,VWS V14.01,2013-03-12 15:25:00,
2013-03-12 11:26:00,53.2,49.2,29.88,SE,135,7.8,10.5,86,0.00,,SKC,0.00,VWS V14.01,2013-03-12 15:26:00,
2013-03-12 11:27:00,53.2,49.2,29.88,SE,135,5.8,10.5,86,0.00,,SKC,0.00,VWS V14.01,2013-03-12 15:27:00,
2013-03-12 11:28:00,53.2,49.2,29.88,SE,135,6.3,10.5,86,0.00,,SKC,0.00,VWS V14.01,2013-03-12 15:28:00,
2013-03-12 11:29:00,53.2,49.5,29.91,SSE,158,6.0,10.5,87,0.00,,SKC,0.00,VWS V14.01,2013-03-12 15:29:00,
2013-03-12 11:30:00,53.2,49.5,29.91,SSE,158,2.9,10.5,87,0.00,,SKC,0.00,VWS V14.01,2013-03-12 15:30:00,
2013-03-12 11:31:00,53.2,49.5,29.91,SSE,158,4.9,10.5,87,0.00,,SKC,0.00,VWS V14.01,2013-03-12 15:31:00,
2013-03-12 11:32:00,53.2,49.5,29.91,SE,135,5.4,10.5,87,0.00,,SKC,0.00,VWS V14.01,2013-03-12 15:32:00,
2013-03-12 11:33:00,53.2,49.5,29.91,SW,225,6.3,7.8,87,0.00,,SKC,0.00,VWS V14.01,2013-03-12 15:33:00,
2013-03-12 11:34:00,53.2,49.5,29.91,SE,135,3.8,7.8,87,0.00,,SKC,0.00,VWS V14.01,2013-03-12 15:34:00,
2013-03-12 11:35:00,53.2,49.5,29.91,SSE,158,4.3,7.8,87,0.00,,SKC,0.00,VWS V14.01,2013-03-12 15:35:00,
2013-03-12 11:36:00,53.2,49.5,29.91,SSE,158,7.4,7.8,87,0.00,,SKC,0.00,VWS V14.01,2013-03-12 15:36:00,
2013-03-12 11:37:00,53.2,49.5,29.91,SSE,158,6.3,7.8,87,0.00,,SKC,0.00,VWS V14.01,2013-03-12 15:37:00,
2013-03-12 11:38:00,53.2,49.5,29.91,SE,135,4.9,7.8,87,0.00,,SKC,0.00,VWS V14.01,2013-03-12 15:38:00,
2013-03-12 11:39:00,53.2,49.5,29.91,South,180,4.9,7.8,87,0.00,,SKC,0.00,VWS V14.01,2013-03-12 15:39:00,
2013-03-12 11:40:00,53.2,49.5,29.91,SSE,158,6.0,7.8,87,0.00,,SKC,0.00,VWS V14.01,2013-03-12 15:40:00,
2013-03-12 11:41:00,53.2,49.5,29.91,SSE,158,10.5,10.5,87,0.00,,SKC,0.00,VWS V14.01,2013-03-12 15:41:00,
2013-03-12 11:42:00,53.1,49.3,29.91,SSE,158,6.5,10.5,87,0.00,,SKC,0.00,VWS V14.01,2013-03-12 15:42:00,
2013-03-12 11:43:00,53.1,49.3,29.91,SE,135,6.3,10.5,87,0.00,,SKC,0.00,VWS V14.01,2013-03-12 15:43:00,
2013-03-12 11:44:00,53.1,49.3,29.91,SSE,158,4.0,10.5,87,0.00,,SKC,0.00,VWS V14.01,2013-03-12 15:44:00,
2013-03-12 11:45:00,53.1,49.3,29.91,SSE,158,7.6,10.5,87,0.00,,SKC,0.00,VWS V14.01,2013-03-12 15:45:00,
2013-03-12 11:46:00,53.1,49.3,29.91,SE,135,10.1,10.5,87,0.00,,SKC,0.00,VWS V14.01,2013-03-12 15:46:00,
2013-03-12 11:47:00,53.1,49.3,29.91,SSE,158,8.1,10.5,87,0.00,,SKC,0.00,VWS V14.01,2013-03-12 15:47:00,
2013-03-12 11:48:00,53.1,49.3,29.91,SSE,158,5.4,10.5,87,0.00,,SKC,0.00,VWS V14.01,2013-03-12 15:48:00,
2013-03-12 11:49:00,53.1,49.3,29.91,SE,135,9.2,10.5,87,0.00,,SKC,0.00,VWS V14.01,2013-03-12 15:49:00,
2013-03-12 11:50:00,53.1,49.3,29.91,SSE,158,6.5,10.5,87,0.00,,SKC,0.00,VWS V14.01,2013-03-12 15:50:00,
2013-03-12 11:51:00,53.1,49.3,29.91,SE,135,7.6,10.5,87,0.00,,SKC,0.00,VWS V14.01,2013-03-12 15:51:00,
2013-03-12 11:52:00,53.1,49.3,29.91,SSE,158,8.5,10.5,87,0.00,,SKC,0.00,VWS V14.01,2013-03-12 15:52:00,
2013-03-12 11:53:00,53.1,49.3,29.91,SSE,158,8.1,10.5,87,0.00,,SKC,0.00,VWS V14.01,2013-03-12 15:53:00,
2013-03-12 11:54:00,52.9,49.4,29.91,SSE,158,7.6,10.5,88,0.00,,SKC,0.00,VWS V14.01,2013-03-12 15:54:00,
2013-03-12 11:55:00,52.9,49.4,29.91,SSE,158,9.4,10.5,88,0.00,,SKC,0.00,VWS V14.01,2013-03-12 15:55:00,
2013-03-12 11:56:00,52.9,49.4,29.91,SE,135,7.8,10.5,88,0.00,,SKC,0.00,VWS V14.01,2013-03-12 15:56:00,
2013-03-12 11:57:00,52.9,49.4,29.91,SE,135,14.1,14.1,88,0.00,,SKC,0.00,VWS V14.01,2013-03-12 15:57:00,
2013-03-12 11:58:00,52.9,49.4,29.91,SE,135,6.5,14.1,88,0.00,,SKC,0.00,VWS V14.01,2013-03-12 15:58:00,
2013-03-12 11:59:00,52.9,49.4,29.88,SSE,158,8.7,14.1,88,0.00,,SKC,0.00,VWS V14.01,2013-03-12 15:59:00,
2013-03-12 12:00:00,52.9,49.4,29.88,SSE,158,10.7,14.1,88,0.00,,SKC,0.00,VWS V14.01,2013-03-12 16:00:00,
2013-03-12 12:01:00,52.9,49.4,29.88,SE,135,6.0,14.1,88,0.00,,SKC,0.00,VWS V14.01,2013-03-12 16:01:00,
2013-03-12 12:02:00,52.9,49.4,29.88,SE,135,10.3,14.1,88,0.00,,SKC,0.00,VWS V14.01,2013-03-12 16:02:00,
2013-03-12 12:03:00,52.9,49.4,29.88,SSE,158,3.4,14.1,88,0.00,,SKC,0.00,VWS V14.01,2013-03-12 16:03:00,
2013-03-12 12:04:00,52.9,49.4,29.88,SSE,158,8.5,14.1,88,0.00,,SKC,0.00,VWS V14.01,2013-03-12 16:04:00,
2013-03-12 12:05:00,52.9,49.4,29.88,SSE,158,5.8,14.1,88,0.00,,SKC,0.00,VWS V14.01,2013-03-12 16:05:00,
2013-03-12 12:06:00,52.9,49.4,29.88,SE,135,3.1,14.1,88,0.00,,SKC,0.00,VWS V14.01,2013-03-12 16:06:00,
2013-03-12 12:07:00,52.9,49.7,29.88,SSE,158,6.5,14.1,89,0.00,,SKC,0.00,VWS V14.01,2013-03-12 16:07:00,
2013-03-12 12:08:00,52.9,49.7,29.88,SSE,158,6.3,14.1,89,0.00,,SKC,0.00,VWS V14.01,2013-03-12 16:08:00,
2013-03-12 12:09:00,52.9,49.7,29.88,SE,135,4.0,14.1,89,0.00,,SKC,0.00,VWS V14.01,2013-03-12 16:09:00,
2013-03-12 12:10:00,52.9,49.7,29.88,SSE,158,8.5,14.1,89,0.00,,SKC,0.00,VWS V14.01,2013-03-12 16:10:00,
2013-03-12 12:11:00,52.9,49.7,29.88,SE,135,2.9,14.1,89,0.00,,SKC,0.00,VWS V14.01,2013-03-12 16:11:00,
2013-03-12 12:12:00,52.9,49.7,29.88,SE,135,5.8,14.1,89,0.00,,SKC,0.00,VWS V14.01,2013-03-12 16:12:00,
2013-03-12 12:13:00,52.9,49.7,29.88,SE,135,5.4,14.1,89,0.00,,SKC,0.00,VWS V14.01,2013-03-12 16:13:00,
2013-03-12 12:14:00,52.9,49.7,29.85,SSE,158,5.8,14.1,89,0.00,,SKC,0.00,VWS V14.01,2013-03-12 16:14:00,
2013-03-12 12:15:00,52.9,49.7,29.85,SSE,158,4.0,14.1,89,0.00,,SKC,0.00,VWS V14.01,2013-03-12 16:15:00,
2013-03-12 12:16:00,52.9,49.7,29.85,SSE,158,5.6,14.1,89,0.00,,SKC,0.00,VWS V14.01,2013-03-12 16:16:00,
2013-03-12 12:17:00,52.9,49.7,29.85,SSE,158,5.4,10.7,89,0.00,,SKC,0.00,VWS V14.01,2013-03-12 16:17:00,
2013-03-12 12:18:00,52.7,49.5,29.85,SSE,158,7.4,10.7,89,0.00,,SKC,0.00,VWS V14.01,2013-03-12 16:18:00,
2013-03-12 12:19:00,52.7,49.5,29.85,SSE,158,5.6,10.7,89,0.00,,SKC,0.00,VWS V14.01,2013-03-12 16:19:00,
2013-03-12 12:20:00,52.9,50.0,29.85,SSE,158,6.0,10.3,90,0.00,,SKC,0.00,VWS V14.01,2013-03-12 16:20:00,
2013-03-12 12:21:00,52.7,49.5,29.85,SSE,158,5.8,10.3,89,0.00,,SKC,0.00,VWS V14.01,2013-03-12 16:21:00,
2013-03-12 12:22:00,52.7,49.8,29.85,SE,135,5.8,8.5,90,0.00,,SKC,0.00,VWS V14.01,2013-03-12 16:22:00,
2013-03-12 12:23:00,52.7,49.8,29.85,South,180,6.0,8.5,90,0.00,,SKC,0.00,VWS V14.01,2013-03-12 16:23:00,
2013-03-12 12:24:00,52.7,49.8,29.85,South,180,6.0,8.5,90,0.00,,SKC,0.00,VWS V14.01,2013-03-12 16:24:00,
2013-03-12 12:25:00,52.7,49.8,29.85,South,180,3.1,8.5,90,0.00,,SKC,0.00,VWS V14.01,2013-03-12 16:25:00,
2013-03-12 12:26:00,52.7,49.8,29.85,SE,135,4.7,8.5,90,0.00,,SKC,0.00,VWS V14.01,2013-03-12 16:26:00,
2013-03-12 12:27:00,52.7,49.5,29.85,SSE,158,10.1,10.1,89,0.00,,SKC,0.00,VWS V14.01,2013-03-12 16:27:00,
2013-03-12 12:28:00,52.7,49.8,29.85,SSE,158,4.9,10.1,90,0.00,,SKC,0.00,VWS V14.01,2013-03-12 16:28:00,
2013-03-12 12:29:00,52.7,49.8,29.88,SSE,158,3.6,10.1,90,0.00,,SKC,0.00,VWS V14.01,2013-03-12 16:29:00,
2013-03-12 12:30:00,52.5,49.7,29.88,South,180,5.4,10.1,90,0.00,,SKC,0.00,VWS V14.01,2013-03-12 16:30:00,
2013-03-12 12:32:00,52.5,49.7,29.88,SSE,158,4.0,10.1,90,0.00,,SKC,0.00,VWS V14.01,2013-03-12 16:32:00,
2013-03-12 12:33:00,52.5,49.7,29.88,South,180,9.2,10.1,90,0.00,,SKC,0.00,VWS V14.01,2013-03-12 16:33:00,
2013-03-12 12:34:00,52.5,49.7,29.88,SSE,158,5.6,10.1,90,0.00,,SKC,0.00,VWS V14.01,2013-03-12 16:34:00,
2013-03-12 12:35:00,52.5,49.7,29.88,SE,135,6.0,10.1,90,0.00,,SKC,0.00,VWS V14.01,2013-03-12 16:35:00,
2013-03-12 12:36:00,52.5,49.7,29.88,SE,135,6.7,10.1,90,0.00,,SKC,0.00,VWS V14.01,2013-03-12 16:36:00,
2013-03-12 12:37:00,52.5,49.7,29.88,SE,135,4.9,10.1,90,0.00,,SKC,0.00,VWS V14.01,2013-03-12 16:37:00,
2013-03-12 12:38:00,52.3,49.5,29.88,South,180,8.7,10.1,90,0.00,,SKC,0.00,VWS V14.01,2013-03-12 16:38:00,
2013-03-12 12:39:00,52.3,49.5,29.88,South,180,11.0,11.0,90,0.00,,SKC,0.00,VWS V14.01,2013-03-12 16:39:00,
2013-03-12 12:40:00,52.3,49.5,29.88,South,180,9.8,11.0,90,0.00,,SKC,0.00,VWS V14.01,2013-03-12 16:40:00,
2013-03-12 12:41:00,52.3,49.5,29.88,SE,135,7.6,11.0,90,0.00,,SKC,0.00,VWS V14.01,2013-03-12 16:41:00,
2013-03-12 12:43:00,52.3,49.5,29.88,SE,135,10.1,11.0,90,0.00,,SKC,0.00,VWS V14.01,2013-03-12 16:43:00,
2013-03-12 12:44:00,52.3,49.8,29.85,SE,135,6.3,11.0,91,0.00,,SKC,0.00,VWS V14.01,2013-03-12 16:44:00,
2013-03-12 12:45:00,52.3,49.8,29.85,SE,135,12.1,12.1,91,0.00,,SKC,0.00,VWS V14.01,2013-03-12 16:45:00,
2013-03-12 12:46:00,52.3,49.8,29.85,SSE,158,5.8,12.1,91,0.00,,SKC,0.00,VWS V14.01,2013-03-12 16:46:00,
2013-03-12 12:47:00,52.3,49.8,29.85,SSE,158,7.8,12.1,91,0.00,,SKC,0.00,VWS V14.01,2013-03-12 16:47:00,
2013-03-12 12:48:00,52.3,49.8,29.85,SE,135,9.8,12.1,91,0.00,,SKC,0.00,VWS V14.01,2013-03-12 16:48:00,
2013-03-12 12:49:00,52.3,49.8,29.85,SSE,158,6.5,12.1,91,0.00,,SKC,0.00,VWS V14.01,2013-03-12 16:49:00,
2013-03-12 12:50:00,52.3,49.8,29.85,SSE,158,6.3,12.1,91,0.00,,SKC,0.00,VWS V14.01,2013-03-12 16:50:00,
2013-03-12 12:51:00,52.3,49.8,29.85,SSE,158,2.9,12.1,91,0.00,,SKC,0.00,VWS V14.01,2013-03-12 16:51:00,
2013-03-12 12:52:00,52.3,50.1,29.85,ESE,112,8.1,12.1,92,0.00,,SKC,0.00,VWS V14.01,2013-03-12 16:52:00,
2013-03-12 12:53:00,52.3,50.1,29.85,SE,135,9.4,12.1,92,0.00,,SKC,0.00,VWS V14.01,2013-03-12 16:53:00,
2013-03-12 12:54:00,52.3,50.1,29.85,South,180,6.3,12.1,92,0.00,,SKC,0.00,VWS V14.01,2013-03-12 16:54:00,
2013-03-12 12:55:00,52.3,50.1,29.85,South,180,6.5,12.1,92,0.00,,SKC,0.00,VWS V14.01,2013-03-12 16:55:00,
2013-03-12 12:56:00,52.3,50.1,29.85,SSE,158,7.6,12.1,92,0.00,,SKC,0.00,VWS V14.01,2013-03-12 16:56:00,
2013-03-12 12:57:00,52.3,50.1,29.85,SE,135,6.5,12.1,92,0.00,,SKC,0.00,VWS V14.01,2013-03-12 16:57:00,
2013-03-12 12:58:00,52.3,50.1,29.85,SE,135,10.5,12.1,92,0.00,,SKC,0.00,VWS V14.01,2013-03-12 16:58:00,
2013-03-12 12:59:00,52.3,50.1,29.85,SSE,158,7.2,12.1,92,0.00,,SKC,0.00,VWS V14.01,2013-03-12 16:59:00,
2013-03-12 13:00:00,52.3,50.1,29.85,SE,135,16.3,16.3,92,0.00,,SKC,0.00,VWS V14.01,2013-03-12 17:00:00,
2013-03-12 13:01:00,52.3,50.1,29.85,SSE,158,6.7,16.3,92,0.00,,SKC,0.00,VWS V14.01,2013-03-12 17:01:00,
2013-03-12 13:02:00,52.5,50.3,29.85,SE,135,12.3,16.3,92,0.00,,SKC,0.00,VWS V14.01,2013-03-12 17:02:00,
2013-03-12 13:03:00,52.5,50.3,29.85,SSE,158,10.1,16.3,92,0.00,,SKC,0.00,VWS V14.01,2013-03-12 17:03:00,
2013-03-12 13:04:00,52.5,50.3,29.85,SSE,158,9.6,16.3,92,0.00,,SKC,0.00,VWS V14.01,2013-03-12 17:04:00,
2013-03-12 13:05:00,52.5,50.3,29.85,SSE,158,6.5,16.3,92,0.00,,SKC,0.00,VWS V14.01,2013-03-12 17:05:00,
2013-03-12 13:06:00,52.5,50.3,29.85,SE,135,6.5,16.3,92,0.00,,SKC,0.00,VWS V14.01,2013-03-12 17:06:00,
2013-03-12 13:07:00,52.5,50.6,29.85,SE,135,11.0,16.3,93,0.00,,SKC,0.00,VWS V14.01,2013-03-12 17:07:00,
2013-03-12 13:08:00,52.5,50.6,29.85,SSE,158,6.5,16.3,93,0.00,,SKC,0.00,VWS V14.01,2013-03-12 17:08:00,
2013-03-12 13:09:00,52.5,50.6,29.85,SE,135,9.0,16.3,93,0.00,,SKC,0.00,VWS V14.01,2013-03-12 17:09:00,
2013-03-12 13:10:00,52.5,50.6,29.85,SSE,158,5.8,16.3,93,0.00,,SKC,0.00,VWS V14.01,2013-03-12 17:10:00,
2013-03-12 13:11:00,52.5,50.6,29.85,SSE,158,6.0,16.3,93,0.00,,SKC,0.00,VWS V14.01,2013-03-12 17:11:00,
2013-03-12 13:12:00,52.5,50.6,29.85,SSE,158,10.5,16.3,93,0.00,,SKC,0.00,VWS V14.01,2013-03-12 17:12:00,
2013-03-12 13:13:00,52.5,50.6,29.85,SSE,158,6.0,16.3,93,0.00,,SKC,0.00,VWS V14.01,2013-03-12 17:13:00,
2013-03-12 13:14:00,52.5,50.6,29.82,SSE,158,13.0,16.3,93,0.00,,SKC,0.00,VWS V14.01,2013-03-12 17:14:00,
2013-03-12 13:15:00,52.5,50.6,29.82,SSE,158,13.2,16.3,93,0.00,,SKC,0.00,VWS V14.01,2013-03-12 17:15:00,
2013-03-12 13:16:00,52.5,50.6,29.82,SSE,158,8.7,16.3,93,0.00,,SKC,0.00,VWS V14.01,2013-03-12 17:16:00,
2013-03-12 13:17:00,52.5,50.6,29.82,South,180,7.4,16.3,93,0.00,,SKC,0.00,VWS V14.01,2013-03-12 17:17:00,
2013-03-12 13:18:00,52.7,50.7,29.82,SSE,158,7.4,16.3,93,0.00,,SKC,0.00,VWS V14.01,2013-03-12 17:18:00,
2013-03-12 13:19:00,52.7,50.7,29.82,SSE,158,11.9,16.3,93,0.00,,SKC,0.00,VWS V14.01,2013-03-12 17:19:00,
2013-03-12 13:20:00,52.7,50.7,29.82,South,180,7.6,13.2,93,0.00,,SKC,0.00,VWS V14.01,2013-03-12 17:20:00,
2013-03-12 13:21:00,52.5,50.6,29.82,SSE,158,9.0,13.2,93,0.00,,SKC,0.00,VWS V14.01,2013-03-12 17:21:00,
2013-03-12 13:22:00,52.5,50.6,29.82,SE,135,3.8,13.2,93,0.00,,SKC,0.00,VWS V14.01,2013-03-12 17:22:00,
2013-03-12 13:23:00,52.5,50.6,29.82,SSE,158,12.8,13.2,93,0.00,,SKC,0.00,VWS V14.01,2013-03-12 17:23:00,
2013-03-12 13:24:00,52.5,50.6,29.82,South,180,12.5,13.2,93,0.00,,SKC,0.00,VWS V14.01,2013-03-12 17:24:00,
2013-03-12 13:25:00,52.5,50.6,29.82,South,180,13.2,13.2,93,0.00,,SKC,0.00,VWS V14.01,2013-03-12 17:25:00,
2013-03-12 13:26:00,52.5,50.6,29.82,SSE,158,6.0,13.2,93,0.00,,SKC,0.00,VWS V14.01,2013-03-12 17:26:00,
2013-03-12 13:27:00,52.5,50.6,29.82,SSE,158,10.3,13.2,93,0.00,,SKC,0.00,VWS V14.01,2013-03-12 17:27:00,
2013-03-12 13:28:00,52.5,50.6,29.82,SSE,158,7.6,13.2,93,0.00,,SKC,0.00,VWS V14.01,2013-03-12 17:28:00,
2013-03-12 13:29:00,52.7,50.7,29.85,South,180,7.6,13.2,93,0.00,,SKC,0.00,VWS V14.01,2013-03-12 17:29:00,
2013-03-12 13:30:00,52.7,50.7,29.85,SSE,158,8.5,13.2,93,0.00,,SKC,0.00,VWS V14.01,2013-03-12 17:30:00,
2013-03-12 13:31:00,52.5,50.6,29.85,SSE,158,7.4,13.2,93,0.00,,SKC,0.00,VWS V14.01,2013-03-12 17:31:00,
2013-03-12 13:32:00,52.5,50.6,29.85,SSE,158,10.5,13.2,93,0.00,,SKC,0.00,VWS V14.01,2013-03-12 17:32:00,
2013-03-12 13:33:00,52.5,50.6,29.85,SE,135,10.5,13.2,93,0.00,,SKC,0.00,VWS V14.01,2013-03-12 17:33:00,
2013-03-12 13:34:00,52.5,50.6,29.85,SSE,158,8.1,13.2,93,0.00,,SKC,0.00,VWS V14.01,2013-03-12 17:34:00,
2013-03-12 13:35:00,52.5,50.6,29.85,SSE,158,6.7,13.2,93,0.00,,SKC,0.00,VWS V14.01,2013-03-12 17:35:00,
2013-03-12 13:36:00,52.5,50.6,29.85,SSE,158,9.0,13.2,93,0.00,,SKC,0.00,VWS V14.01,2013-03-12 17:36:00,
2013-03-12 13:37:00,52.5,50.6,29.85,SSE,158,11.9,13.2,93,0.00,,SKC,0.00,VWS V14.01,2013-03-12 17:37:00,
2013-03-12 13:38:00,52.5,50.6,29.85,South,180,7.6,13.2,93,0.00,,SKC,0.00,VWS V14.01,2013-03-12 17:38:00,
2013-03-12 13:39:00,52.5,50.6,29.85,South,180,7.8,13.2,93,0.00,,SKC,0.00,VWS V14.01,2013-03-12 17:39:00,
2013-03-12 13:40:00,52.5,50.6,29.85,SSE,158,7.6,13.2,93,0.00,,SKC,0.00,VWS V14.01,2013-03-12 17:40:00,
2013-03-12 13:41:00,52.5,50.6,29.85,South,180,8.1,13.2,93,0.00,,SKC,0.00,VWS V14.01,2013-03-12 17:41:00,
2013-03-12 13:42:00,52.5,50.6,29.85,South,180,7.6,13.2,93,0.00,,SKC,0.00,VWS V14.01,2013-03-12 17:42:00,
2013-03-12 13:43:00,52.5,50.6,29.85,SSE,158,5.8,13.2,93,0.00,,SKC,0.00,VWS V14.01,2013-03-12 17:43:00,
2013-03-12 13:44:00,52.5,50.6,29.85,SSE,158,7.4,13.2,93,0.00,,SKC,0.00,VWS V14.01,2013-03-12 17:44:00,
2013-03-12 13:45:00,52.5,50.6,29.85,South,180,7.4,11.9,93,0.00,,SKC,0.00,VWS V14.01,2013-03-12 17:45:00,
2013-03-12 13:46:00,52.5,50.6,29.85,SE,135,9.2,11.9,93,0.00,,SKC,0.00,VWS V14.01,2013-03-12 17:46:00,
2013-03-12 13:47:00,52.3,50.4,29.85,SSE,158,8.7,11.9,93,0.00,,SKC,0.00,VWS V14.01,2013-03-12 17:47:00,
2013-03-12 13:48:00,52.3,50.4,29.85,SE,135,7.4,11.9,93,0.00,,SKC,0.00,VWS V14.01,2013-03-12 17:48:00,
2013-03-12 13:49:00,52.3,50.4,29.85,SE,135,6.5,11.9,93,0.00,,SKC,0.00,VWS V14.01,2013-03-12 17:49:00,
2013-03-12 13:50:00,52.3,50.4,29.85,SSE,158,6.5,11.9,93,0.00,,SKC,0.00,VWS V14.01,2013-03-12 17:50:00,
2013-03-12 13:51:00,52.3,50.4,29.85,SSE,158,6.3,11.9,93,0.00,,SKC,0.00,VWS V14.01,2013-03-12 17:51:00,
2013-03-12 13:52:00,52.2,50.2,29.85,SSE,158,6.0,11.9,93,0.00,,SKC,0.00,VWS V14.01,2013-03-12 17:52:00,
2013-03-12 13:53:00,52.2,50.2,29.85,South,180,10.1,11.9,93,0.00,,SKC,0.00,VWS V14.01,2013-03-12 17:53:00,
2013-03-12 13:54:00,52.2,50.2,29.85,South,180,6.0,11.9,93,0.00,,SKC,0.00,VWS V14.01,2013-03-12 17:54:00,
2013-03-12 13:55:00,52.2,50.2,29.85,SSE,158,4.3,11.9,93,0.00,,SKC,0.00,VWS V14.01,2013-03-12 17:55:00,
2013-03-12 13:56:00,52.0,50.0,29.85,SE,135,6.5,11.9,93,0.00,,SKC,0.00,VWS V14.01,2013-03-12 17:56:00,
2013-03-12 13:57:00,52.0,50.0,29.85,SE,135,3.8,10.1,93,0.00,,SKC,0.00,VWS V14.01,2013-03-12 17:57:00,
2013-03-12 13:58:00,52.0,50.0,29.85,SE,135,3.6,10.1,93,0.00,,SKC,0.00,VWS V14.01,2013-03-12 17:58:00,
2013-03-12 13:59:00,52.0,50.0,29.85,SE,135,7.2,10.1,93,0.00,,SKC,0.00,VWS V14.01,2013-03-12 17:59:00,
2013-03-12 14:00:00,52.0,50.0,29.85,SSE,158,10.3,10.3,93,0.00,,SKC,0.00,VWS V14.01,2013-03-12 18:00:00,
2013-03-12 14:01:00,51.8,49.8,29.85,SSE,158,6.0,10.3,93,0.00,,SKC,0.00,VWS V14.01,2013-03-12 18:01:00,
2013-03-12 14:02:00,51.8,49.8,29.85,SSE,158,10.7,10.7,93,0.00,,SKC,0.00,VWS V14.01,2013-03-12 18:02:00,
2013-03-12 14:03:00,51.8,49.8,29.85,SE,135,8.7,10.7,93,0.00,,SKC,0.00,VWS V14.01,2013-03-12 18:03:00,
2013-03-12 14:04:00,51.8,49.8,29.85,SE,135,7.8,10.7,93,0.00,,SKC,0.00,VWS V14.01,2013-03-12 18:04:00,
2013-03-12 14:05:00,51.8,49.8,29.85,SE,135,5.4,10.7,93,0.00,,SKC,0.00,VWS V14.01,2013-03-12 18:05:00,
2013-03-12 14:06:00,51.8,49.8,29.85,SSE,158,6.0,10.7,93,0.00,,SKC,0.00,VWS V14.01,2013-03-12 18:06:00,
2013-03-12 14:07:00,51.8,49.8,29.85,SSE,158,5.8,10.7,93,0.00,,SKC,0.00,VWS V14.01,2013-03-12 18:07:00,
2013-03-12 14:08:00,51.8,49.8,29.85,SSE,158,10.1,10.7,93,0.00,,SKC,0.00,VWS V14.01,2013-03-12 18:08:00,
2013-03-12 14:09:00,51.8,49.8,29.85,South,180,6.3,10.7,93,0.00,,SKC,0.00,VWS V14.01,2013-03-12 18:09:00,
2013-03-12 14:10:00,51.8,49.8,29.85,SE,135,8.5,10.7,93,0.00,,SKC,0.00,VWS V14.01,2013-03-12 18:10:00,
2013-03-12 14:11:00,51.8,49.8,29.85,SSE,158,11.0,11.0,93,0.00,,SKC,0.00,VWS V14.01,2013-03-12 18:11:00,
2013-03-12 14:12:00,51.8,49.8,29.85,South,180,7.8,11.0,93,0.00,,SKC,0.00,VWS V14.01,2013-03-12 18:12:00,
2013-03-12 14:13:00,51.8,50.1,29.85,SE,135,6.0,11.0,94,0.00,,SKC,0.00,VWS V14.01,2013-03-12 18:13:00,
2013-03-12 14:14:00,51.8,50.1,29.82,SE,135,7.8,11.0,94,0.00,,SKC,0.00,VWS V14.01,2013-03-12 18:14:00,
2013-03-12 14:15:00,51.8,50.1,29.82,SE,135,12.1,12.1,94,0.00,,SKC,0.00,VWS V14.01,2013-03-12 18:15:00,
2013-03-12 14:16:00,51.8,50.1,29.82,SE,135,8.7,12.1,94,0.00,,SKC,0.00,VWS V14.01,2013-03-12 18:16:00,
2013-03-12 14:17:00,51.8,50.1,29.82,SE,135,10.3,12.1,94,0.00,,SKC,0.00,VWS V14.01,2013-03-12 18:17:00,
2013-03-12 14:18:00,51.6,50.0,29.82,SSE,158,14.8,14.8,94,0.00,,SKC,0.00,VWS V14.01,2013-03-12 18:18:00,
2013-03-12 14:19:00,51.6,50.0,29.82,SSE,158,12.8,14.8,94,0.00,,SKC,0.00,VWS V14.01,2013-03-12 18:19:00,
2013-03-12 14:20:00,51.6,50.0,29.82,SSE,158,6.3,14.8,94,0.00,,SKC,0.00,VWS V14.01,2013-03-12 18:20:00,
2013-03-12 14:21:00,51.6,50.0,29.82,SSE,158,8.1,14.8,94,0.00,,SKC,0.00,VWS V14.01,2013-03-12 18:21:00,
2013-03-12 14:22:00,51.6,50.0,29.82,SE,135,9.4,14.8,94,0.00,,SKC,0.00,VWS V14.01,2013-03-12 18:22:00,
2013-03-12 14:23:00,51.6,50.0,29.82,SSE,158,7.6,14.8,94,0.00,,SKC,0.00,VWS V14.01,2013-03-12 18:23:00,
2013-03-12 14:24:00,51.6,50.0,29.82,SE,135,14.1,14.8,94,0.00,,SKC,0.00,VWS V14.01,2013-03-12 18:24:00,
2013-03-12 14:25:00,51.6,50.0,29.82,SSE,158,15.2,15.2,94,0.00,,SKC,0.00,VWS V14.01,2013-03-12 18:25:00,
2013-03-12 14:26:00,51.6,50.0,29.82,SSE,158,10.1,15.2,94,0.00,,SKC,0.00,VWS V14.01,2013-03-12 18:26:00,
2013-03-12 14:27:00,51.6,50.0,29.82,SSE,158,9.8,15.2,94,0.00,,SKC,0.00,VWS V14.01,2013-03-12 18:27:00,
2013-03-12 14:28:00,51.6,50.0,29.82,SSE,158,8.5,15.2,94,0.00,,SKC,0.00,VWS V14.01,2013-03-12 18:28:00,
2013-03-12 14:29:00,51.6,50.0,29.79,South,180,8.1,15.2,94,0.00,,SKC,0.00,VWS V14.01,2013-03-12 18:29:00,
2013-03-12 14:30:00,51.6,50.2,29.79,SSE,158,9.8,15.2,95,0.00,,SKC,0.00,VWS V14.01,2013-03-12 18:30:00,
2013-03-12 14:31:00,51.6,50.2,29.79,SSE,158,12.3,15.2,95,0.00,,SKC,0.00,VWS V14.01,2013-03-12 18:31:00,
2013-03-12 14:32:00,51.6,50.2,29.79,SSE,158,8.7,15.2,95,0.00,,SKC,0.00,VWS V14.01,2013-03-12 18:32:00,
2013-03-12 14:33:00,51.6,50.2,29.79,SSE,158,9.8,15.2,95,0.00,,SKC,0.00,VWS V14.01,2013-03-12 18:33:00,
2013-03-12 14:34:00,51.6,50.2,29.79,South,180,8.1,15.2,95,0.00,,SKC,0.00,VWS V14.01,2013-03-12 18:34:00,
2013-03-12 14:35:00,51.6,50.2,29.79,SE,135,9.8,15.2,95,0.00,,SKC,0.00,VWS V14.01,2013-03-12 18:35:00,
2013-03-12 14:36:00,51.6,50.2,29.79,SSE,158,11.0,15.2,95,0.00,,SKC,0.00,VWS V14.01,2013-03-12 18:36:00,
2013-03-12 14:37:00,51.6,50.2,29.79,SSE,158,8.1,15.2,95,0.00,,SKC,0.00,VWS V14.01,2013-03-12 18:37:00,
2013-03-12 14:38:00,51.6,50.2,29.79,SSE,158,12.8,15.2,95,0.00,,SKC,0.00,VWS V14.01,2013-03-12 18:38:00,
2013-03-12 14:39:00,51.6,50.2,29.79,SSE,158,10.7,15.2,95,0.00,,SKC,0.00,VWS V14.01,2013-03-12 18:39:00,
2013-03-12 14:40:00,51.6,50.2,29.79,SSE,158,11.0,15.2,95,0.00,,SKC,0.00,VWS V14.01,2013-03-12 18:40:00,
2013-03-12 14:41:00,51.4,50.1,29.79,SSE,158,8.5,15.2,95,0.00,,SKC,0.00,VWS V14.01,2013-03-12 18:41:00,
2013-03-12 14:42:00,51.4,50.1,29.79,SE,135,11.0,15.2,95,0.00,,SKC,0.00,VWS V14.01,2013-03-12 18:42:00,
2013-03-12 14:43:00,51.4,50.1,29.79,SSE,158,6.3,15.2,95,0.00,,SKC,0.00,VWS V14.01,2013-03-12 18:43:00,
2013-03-12 14:44:00,51.4,50.1,29.79,SE,135,12.8,15.2,95,0.00,,SKC,0.00,VWS V14.01,2013-03-12 18:44:00,
2013-03-12 14:45:00,51.4,50.1,29.79,South,180,17.5,17.5,95,0.00,,SKC,0.00,VWS V14.01,2013-03-12 18:45:00,
2013-03-12 14:46:00,51.4,50.1,29.79,SSE,158,10.1,17.5,95,0.00,,SKC,0.00,VWS V14.01,2013-03-12 18:46:00,
2013-03-12 14:47:00,51.4,50.1,29.79,SE,135,10.3,17.5,95,0.00,,SKC,0.00,VWS V14.01,2013-03-12 18:47:00,
2013-03-12 14:48:00,51.4,50.1,29.79,South,180,10.3,17.5,95,0.00,,SKC,0.00,VWS V14.01,2013-03-12 18:48:00,
2013-03-12 14:49:00,51.4,50.1,29.79,SE,135,8.1,17.5,95,0.00,,SKC,0.00,VWS V14.01,2013-03-12 18:49:00,
2013-03-12 14:50:00,51.4,50.1,29.79,SE,135,13.2,17.5,95,0.00,,SKC,0.00,VWS V14.01,2013-03-12 18:50:00,
2013-03-12 14:51:00,51.4,50.1,29.79,SSE,158,6.5,17.5,95,0.00,,SKC,0.00,VWS V14.01,2013-03-12 18:51:00,
2013-03-12 14:52:00,51.4,50.1,29.79,South,180,13.0,17.5,95,0.00,,SKC,0.00,VWS V14.01,2013-03-12 18:52:00,
2013-03-12 14:53:00,51.4,50.1,29.79,SSE,158,14.1,17.5,95,0.00,,SKC,0.00,VWS V14.01,2013-03-12 18:53:00,
2013-03-12 14:54:00,51.4,50.1,29.79,SE,135,10.1,17.5,95,0.00,,SKC,0.00,VWS V14.01,2013-03-12 18:54:00,
2013-03-12 14:55:00,51.4,50.1,29.79,SSE,158,6.5,17.5,95,0.00,,SKC,0.00,VWS V14.01,2013-03-12 18:55:00,
2013-03-12 14:56:00,51.4,50.1,29.79,SE,135,8.7,17.5,95,0.00,,SKC,0.00,VWS V14.01,2013-03-12 18:56:00,
2013-03-12 14:57:00,51.3,49.9,29.79,SSE,158,12.5,17.5,95,0.00,,SKC,0.00,VWS V14.01,2013-03-12 18:57:00,
2013-03-12 14:58:00,51.3,49.9,29.79,SE,135,7.8,17.5,95,0.00,,SKC,0.00,VWS V14.01,2013-03-12 18:58:00,
2013-03-12 14:59:00,51.3,49.9,29.79,SE,135,8.7,17.5,95,0.00,,SKC,0.00,VWS V14.01,2013-03-12 18:59:00,
2013-03-12 15:00:00,51.4,50.1,29.79,SE,135,10.1,17.5,95,0.00,,SKC,0.00,VWS V14.01,2013-03-12 19:00:00,
2013-03-12 15:01:00,51.4,50.1,29.79,SSE,158,12.1,17.5,95,0.00,,SKC,0.00,VWS V14.01,2013-03-12 19:01:00,
2013-03-12 15:02:00,51.4,50.1,29.79,South,180,12.3,17.5,95,0.00,,SKC,0.00,VWS V14.01,2013-03-12 19:02:00,
2013-03-12 15:03:00,51.4,50.1,29.79,SE,135,12.8,17.5,95,0.00,,SKC,0.00,VWS V14.01,2013-03-12 19:03:00,
2013-03-12 15:04:00,51.4,50.1,29.79,SE,135,10.1,17.5,95,0.00,,SKC,0.00,VWS V14.01,2013-03-12 19:04:00,
2013-03-12 15:05:00,51.4,50.3,29.79,SE,135,22.4,22.4,96,0.00,,SKC,0.00,VWS V14.01,2013-03-12 19:05:00,
2013-03-12 15:06:00,51.4,50.3,29.79,SSE,158,17.2,22.4,96,0.00,,SKC,0.00,VWS V14.01,2013-03-12 19:06:00,
2013-03-12 15:07:00,51.4,50.3,29.79,SSE,158,16.8,22.4,96,0.00,,SKC,0.00,VWS V14.01,2013-03-12 19:07:00,
2013-03-12 15:08:00,51.6,50.5,29.79,South,180,15.9,22.4,96,0.00,,SKC,0.00,VWS V14.01,2013-03-12 19:08:00,
2013-03-12 15:09:00,51.6,50.5,29.79,SE,135,10.3,22.4,96,0.00,,SKC,0.00,VWS V14.01,2013-03-12 19:09:00,
2013-03-12 15:10:00,51.6,50.5,29.79,SE,135,13.2,22.4,96,0.00,,SKC,0.00,VWS V14.01,2013-03-12 19:10:00,
2013-03-12 15:11:00,51.6,50.5,29.79,SSE,158,10.5,22.4,96,0.00,,SKC,0.00,VWS V14.01,2013-03-12 19:11:00,
2013-03-12 15:12:00,51.6,50.5,29.79,SE,135,17.2,22.4,96,0.00,,SKC,0.00,VWS V14.01,2013-03-12 19:12:00,
2013-03-12 15:13:00,51.6,50.5,29.79,SE,135,7.8,22.4,96,0.00,,SKC,0.00,VWS V14.01,2013-03-12 19:13:00,
2013-03-12 15:14:00,51.6,50.5,29.79,SE,135,9.8,22.4,96,0.00,,SKC,0.00,VWS V14.01,2013-03-12 19:14:00,
2013-03-12 15:15:00,51.6,50.5,29.79,SSE,158,14.1,22.4,96,0.00,,SKC,0.00,VWS V14.01,2013-03-12 19:15:00,
2013-03-12 15:16:00,51.6,50.5,29.79,South,180,12.1,22.4,96,0.00,,SKC,0.00,VWS V14.01,2013-03-12 19:16:00,
2013-03-12 15:17:00,51.8,50.7,29.79,South,180,12.8,22.4,96,0.00,,SKC,0.00,VWS V14.01,2013-03-12 19:17:00,
2013-03-12 15:18:00,51.8,50.7,29.79,SE,135,8.7,22.4,96,0.00,,SKC,0.00,VWS V14.01,2013-03-12 19:18:00,
2013-03-12 15:19:00,51.8,50.7,29.79,SE,135,8.1,22.4,96,0.00,,SKC,0.00,VWS V14.01,2013-03-12 19:19:00,
2013-03-12 15:20:00,51.8,50.7,29.79,SSE,158,12.8,22.4,96,0.00,,SKC,0.00,VWS V14.01,2013-03-12 19:20:00,
2013-03-12 15:21:00,51.8,50.7,29.79,SSE,158,13.2,22.4,96,0.00,,SKC,0.00,VWS V14.01,2013-03-12 19:21:00,
2013-03-12 15:22:00,51.8,50.7,29.79,SE,135,15.2,22.4,96,0.00,,SKC,0.00,VWS V14.01,2013-03-12 19:22:00,
2013-03-12 15:23:00,51.8,50.7,29.79,SSE,158,12.5,22.4,96,0.00,,SKC,0.00,VWS V14.01,2013-03-12 19:23:00,
2013-03-12 15:24:00,52.0,50.9,29.79,SSE,158,8.5,22.4,96,0.00,,SKC,0.00,VWS V14.01,2013-03-12 19:24:00,
2013-03-12 15:25:00,52.0,50.9,29.79,SSE,158,10.7,17.2,96,0.00,,SKC,0.00,VWS V14.01,2013-03-12 19:25:00,
2013-03-12 15:26:00,52.0,50.9,29.79,SE,135,8.7,17.2,96,0.00,,SKC,0.00,VWS V14.01,2013-03-12 19:26:00,
2013-03-12 15:27:00,52.0,50.9,29.79,SSE,158,19.9,19.9,96,0.00,,SKC,0.00,VWS V14.01,2013-03-12 19:27:00,
2013-03-12 15:28:00,52.0,50.9,29.79,SE,135,18.1,19.9,96,0.00,,SKC,0.00,VWS V14.01,2013-03-12 19:28:00,
2013-03-12 15:29:00,52.0,50.9,29.79,SSE,158,11.0,19.9,96,0.00,,SKC,0.00,VWS V14.01,2013-03-12 19:29:00,
2013-03-12 15:30:00,52.0,50.9,29.79,SSE,158,8.7,19.9,96,0.00,,SKC,0.00,VWS V14.01,2013-03-12 19:30:00,
2013-03-12 15:31:00,52.0,51.2,29.79,South,180,23.9,23.9,97,0.00,,SKC,0.00,VWS V14.01,2013-03-12 19:31:00,
2013-03-12 15:32:00,52.0,51.2,29.79,SSE,158,10.7,23.9,97,0.00,,SKC,0.00,VWS V14.01,2013-03-12 19:32:00,
2013-03-12 15:33:00,52.0,51.2,29.79,SE,135,10.1,23.9,97,0.00,,SKC,0.00,VWS V14.01,2013-03-12 19:33:00,
2013-03-12 15:34:00,52.0,51.2,29.79,South,180,14.5,23.9,97,0.00,,SKC,0.00,VWS V14.01,2013-03-12 19:34:00,
2013-03-12 15:35:00,52.0,51.2,29.79,SSE,158,8.1,23.9,97,0.00,,SKC,0.00,VWS V14.01,2013-03-12 19:35:00,
2013-03-12 15:36:00,52.0,50.9,29.79,East,90,8.5,23.9,96,0.00,,SKC,0.00,VWS V14.01,2013-03-12 19:36:00,
2013-03-12 15:37:00,52.0,50.9,29.79,SSE,158,11.4,23.9,96,0.00,,SKC,0.00,VWS V14.01,2013-03-12 19:37:00,
2013-03-12 15:38:00,52.0,50.9,29.79,SSE,158,8.1,23.9,96,0.00,,SKC,0.00,VWS V14.01,2013-03-12 19:38:00,
2013-03-12 15:39:00,52.0,51.2,29.79,SE,135,13.0,23.9,97,0.00,,SKC,0.00,VWS V14.01,2013-03-12 19:39:00,
2013-03-12 15:40:00,52.0,51.2,29.79,SE,135,12.5,23.9,97,0.00,,SKC,0.00,VWS V14.01,2013-03-12 19:40:00,
2013-03-12 15:41:00,52.0,50.9,29.79,SE,135,12.8,23.9,96,0.00,,SKC,0.00,VWS V14.01,2013-03-12 19:41:00,
2013-03-12 15:42:00,52.0,50.9,29.79,SE,135,8.5,23.9,96,0.00,,SKC,0.00,VWS V14.01,2013-03-12 19:42:00,
2013-03-12 15:43:00,52.0,50.9,29.79,SSE,158,13.6,23.9,96,0.00,,SKC,0.00,VWS V14.01,2013-03-12 19:43:00,
2013-03-12 15:44:00,52.0,50.9,29.74,SSE,158,16.8,23.9,96,0.00,,SKC,0.00,VWS V14.01,2013-03-12 19:44:00,
2013-03-12 15:45:00,51.8,50.7,29.74,SSE,158,13.2,23.9,96,0.00,,SKC,0.00,VWS V14.01,2013-03-12 19:45:00,
2013-03-12 15:46:00,51.8,50.7,29.74,SSE,158,11.0,23.9,96,0.00,,SKC,0.00,VWS V14.01,2013-03-12 19:46:00,
2013-03-12 15:47:00,51.8,50.7,29.74,SE,135,12.5,23.9,96,0.00,,SKC,0.00,VWS V14.01,2013-03-12 19:47:00,
2013-03-12 15:48:00,51.8,50.7,29.74,SE,135,12.5,23.9,96,0.00,,SKC,0.00,VWS V14.01,2013-03-12 19:48:00,
2013-03-12 15:49:00,51.8,50.7,29.74,SSE,158,13.2,23.9,96,0.00,,SKC,0.00,VWS V14.01,2013-03-12 19:49:00,
2013-03-12 15:50:00,51.8,50.7,29.74,SE,135,10.3,23.9,96,0.00,,SKC,0.00,VWS V14.01,2013-03-12 19:50:00,
2013-03-12 15:51:00,51.8,50.7,29.74,SE,135,17.2,17.2,96,0.00,,SKC,0.00,VWS V14.01,2013-03-12 19:51:00,
2013-03-12 15:52:00,51.8,50.7,29.74,SE,135,14.5,17.2,96,0.00,,SKC,0.00,VWS V14.01,2013-03-12 19:52:00,
2013-03-12 15:53:00,51.8,50.7,29.74,SSE,158,14.5,17.2,96,0.00,,SKC,0.00,VWS V14.01,2013-03-12 19:53:00,
2013-03-12 15:54:00,51.8,50.7,29.74,South,180,16.8,17.2,96,0.00,,SKC,0.00,VWS V14.01,2013-03-12 19:54:00,
2013-03-12 15:55:00,51.6,50.8,29.74,SE,135,10.3,17.2,97,0.00,,SKC,0.00,VWS V14.01,2013-03-12 19:55:00,
2013-03-12 15:56:00,51.6,50.8,29.74,SE,135,14.8,17.2,97,0.00,,SKC,0.00,VWS V14.01,2013-03-12 19:56:00,
2013-03-12 15:57:00,51.6,50.8,29.74,SSE,158,17.2,17.2,97,0.00,,SKC,0.00,VWS V14.01,2013-03-12 19:57:00,
2013-03-12 15:58:00,51.6,50.8,29.74,SSE,158,10.3,17.2,97,0.00,,SKC,0.00,VWS V14.01,2013-03-12 19:58:00,
2013-03-12 15:59:00,51.6,50.8,29.71,SE,135,14.3,17.2,97,0.00,,SKC,0.00,VWS V14.01,2013-03-12 19:59:00,
2013-03-12 16:00:00,51.6,50.8,29.71,SE,135,14.3,17.2,97,0.00,,SKC,0.00,VWS V14.01,2013-03-12 20:00:00,
2013-03-12 16:01:00,51.6,50.8,29.71,SE,135,10.3,17.2,97,0.00,,SKC,0.00,VWS V14.01,2013-03-12 20:01:00,
2013-03-12 16:02:00,51.6,50.8,29.71,South,180,12.3,17.2,97,0.00,,SKC,0.00,VWS V14.01,2013-03-12 20:02:00,
2013-03-12 16:03:00,51.6,50.8,29.71,SSE,158,10.5,17.2,97,0.00,,SKC,0.00,VWS V14.01,2013-03-12 20:03:00,
2013-03-12 16:04:00,51.6,50.8,29.71,SSE,158,15.4,17.2,97,0.00,,SKC,0.00,VWS V14.01,2013-03-12 20:04:00,
2013-03-12 16:05:00,51.6,50.8,29.71,SE,135,15.7,17.2,97,0.00,,SKC,0.00,VWS V14.01,2013-03-12 20:05:00,
2013-03-12 16:06:00,51.6,50.8,29.71,SE,135,19.7,19.7,97,0.00,,SKC,0.00,VWS V14.01,2013-03-12 20:06:00,
2013-03-12 16:07:00,51.6,50.8,29.71,SSE,158,21.0,21.0,97,0.00,,SKC,0.00,VWS V14.01,2013-03-12 20:07:00,
2013-03-12 16:08:00,51.4,50.6,29.71,SE,135,11.0,21.0,97,0.00,,SKC,0.00,VWS V14.01,2013-03-12 20:08:00,
2013-03-12 16:09:00,51.6,50.8,29.71,SE,135,8.7,21.0,97,0.00,,SKC,0.00,VWS V14.01,2013-03-12 20:09:00,
2013-03-12 16:10:00,51.6,50.8,29.71,SSE,158,10.7,21.0,97,0.00,,SKC,0.00,VWS V14.01,2013-03-12 20:10:00,
2013-03-12 16:11:00,51.6,50.8,29.71,SE,135,12.8,21.0,97,0.00,,SKC,0.00,VWS V14.01,2013-03-12 20:11:00,
2013-03-12 16:12:00,51.6,50.8,29.71,SE,135,12.5,21.0,97,0.00,,SKC,0.00,VWS V14.01,2013-03-12 20:12:00,
2013-03-12 16:13:00,51.6,50.8,29.71,South,180,22.2,22.2,97,0.00,,SKC,0.00,VWS V14.01,2013-03-12 20:13:00,
2013-03-12 16:14:00,51.6,50.8,29.74,SE,135,10.7,22.2,97,0.00,,SKC,0.00,VWS V14.01,2013-03-12 20:14:00,
2013-03-12 16:15:00,51.6,50.8,29.74,SSE,158,17.2,22.2,97,0.00,,SKC,0.00,VWS V14.01,2013-03-12 20:15:00,
2013-03-12 16:16:00,51.6,50.8,29.74,SSE,158,15.2,22.2,97,0.00,,SKC,0.00,VWS V14.01,2013-03-12 20:16:00,
2013-03-12 16:17:00,51.6,50.8,29.74,SE,135,12.3,22.2,97,0.00,,SKC,0.00,VWS V14.01,2013-03-12 20:17:00,
2013-03-12 16:18:00,51.6,50.8,29.74,SSE,158,16.3,22.2,97,0.00,,SKC,0.00,VWS V14.01,2013-03-12 20:18:00,
2013-03-12 16:19:00,51.6,50.8,29.74,SE,135,23.5,23.5,97,0.00,,SKC,0.00,VWS V14.01,2013-03-12 20:19:00,
2013-03-12 16:20:00,51.6,50.8,29.74,SSE,158,10.5,23.5,97,0.00,,SKC,0.00,VWS V14.01,2013-03-12 20:20:00,
2013-03-12 16:22:00,51.6,50.8,29.74,SE,135,14.5,23.5,97,0.00,,SKC,0.00,VWS V14.01,2013-03-12 20:22:00,
2013-03-12 16:23:00,51.6,50.8,29.74,SSE,158,16.1,23.5,97,0.00,,SKC,0.00,VWS V14.01,2013-03-12 20:23:00,
2013-03-12 16:24:00,51.6,50.8,29.74,SE,135,13.0,23.5,97,0.00,,SKC,0.00,VWS V14.01,2013-03-12 20:24:00,
2013-03-12 16:25:00,51.6,50.8,29.74,SE,135,15.2,23.5,97,0.00,,SKC,0.00,VWS V14.01,2013-03-12 20:25:00,
2013-03-12 16:26:00,51.6,50.8,29.74,SE,135,17.7,23.5,97,0.00,,SKC,0.00,VWS V14.01,2013-03-12 20:26:00,
2013-03-12 16:27:00,51.6,50.8,29.74,SE,135,10.7,23.5,97,0.00,,SKC,0.00,VWS V14.01,2013-03-12 20:27:00,
2013-03-12 16:28:00,51.6,50.8,29.74,South,180,14.5,23.5,97,0.00,,SKC,0.00,VWS V14.01,2013-03-12 20:28:00,
2013-03-12 16:29:00,51.6,50.8,29.74,SE,135,9.0,23.5,97,0.00,,SKC,0.00,VWS V14.01,2013-03-12 20:29:00,
2013-03-12 16:30:00,51.6,50.8,29.74,SE,135,11.2,23.5,97,0.00,,SKC,0.00,VWS V14.01,2013-03-12 20:30:00,
2013-03-12 16:31:00,51.6,50.8,29.74,SE,135,23.5,23.5,97,0.00,,SKC,0.00,VWS V14.01,2013-03-12 20:31:00,
2013-03-12 16:32:00,51.6,50.8,29.74,SSE,158,10.7,23.5,97,0.00,,SKC,0.00,VWS V14.01,2013-03-12 20:32:00,
2013-03-12 16:33:00,51.6,50.8,29.74,ESE,112,18.6,23.5,97,0.00,,SKC,0.00,VWS V14.01,2013-03-12 20:33:00,
2013-03-12 16:34:00,51.6,50.8,29.74,SE,135,15.7,23.5,97,0.00,,SKC,0.00,VWS V14.01,2013-03-12 20:34:00,
2013-03-12 16:35:00,51.6,50.8,29.74,SE,135,15.4,23.5,97,0.00,,SKC,0.00,VWS V14.01,2013-03-12 20:35:00,
2013-03-12 16:36:00,51.6,51.1,29.74,SSE,158,22.2,23.5,98,0.00,,SKC,0.00,VWS V14.01,2013-03-12 20:36:00,
2013-03-12 16:37:00,51.6,51.1,29.74,SSE,158,17.5,23.5,98,0.00,,SKC,0.00,VWS V14.01,2013-03-12 20:37:00,
2013-03-12 16:38:00,51.6,51.1,29.74,SSE,158,12.8,23.5,98,0.00,,SKC,0.00,VWS V14.01,2013-03-12 20:38:00,
2013-03-12 16:39:00,51.6,51.1,29.74,South,180,23.0,23.5,98,0.00,,SKC,0.00,VWS V14.01,2013-03-12 20:39:00,
2013-03-12 16:40:00,51.6,51.1,29.74,SE,135,19.5,23.5,98,0.00,,SKC,0.00,VWS V14.01,2013-03-12 20:40:00,
2013-03-12 16:41:00,51.6,51.1,29.74,SSE,158,7.8,23.5,98,0.00,,SKC,0.00,VWS V14.01,2013-03-12 20:41:00,
2013-03-12 16:42:00,51.6,51.1,29.74,SE,135,20.8,23.5,98,0.00,,SKC,0.00,VWS V14.01,2013-03-12 20:42:00,
2013-03-12 16:43:00,51.6,51.1,29.74,SE,135,16.8,23.5,98,0.00,,SKC,0.00,VWS V14.01,2013-03-12 20:43:00,
2013-03-12 16:44:00,51.6,51.1,29.74,SE,135,15.4,23.5,98,0.00,,SKC,0.00,VWS V14.01,2013-03-12 20:44:00,
2013-03-12 16:45:00,51.6,51.1,29.74,SSE,158,13.6,23.5,98,0.00,,SKC,0.00,VWS V14.01,2013-03-12 20:45:00,
2013-03-12 16:46:00,51.6,51.1,29.74,SSE,158,20.4,23.5,98,0.00,,SKC,0.00,VWS V14.01,2013-03-12 20:46:00,
2013-03-12 16:47:00,51.6,51.1,29.74,SSE,158,15.2,23.5,98,0.00,,SKC,0.00,VWS V14.01,2013-03-12 20:47:00,
2013-03-12 16:48:00,51.6,51.1,29.74,SSE,158,25.1,25.1,98,0.00,,SKC,0.00,VWS V14.01,2013-03-12 20:48:00,
2013-03-12 16:49:00,51.6,51.1,29.74,SSE,158,13.2,25.1,98,0.00,,SKC,0.00,VWS V14.01,2013-03-12 20:49:00,
2013-03-12 16:50:00,51.6,51.1,29.74,SE,135,19.9,25.1,98,0.00,,SKC,0.00,VWS V14.01,2013-03-12 20:50:00,
2013-03-12 16:51:00,51.6,51.1,29.74,SE,135,22.4,25.1,98,0.00,,SKC,0.00,VWS V14.01,2013-03-12 20:51:00,
2013-03-12 16:52:00,51.6,51.1,29.74,SE,135,23.9,25.1,98,0.00,,SKC,0.00,VWS V14.01,2013-03-12 20:52:00,
2013-03-12 16:53:00,51.6,51.1,29.74,SE,135,19.2,25.1,98,0.00,,SKC,0.00,VWS V14.01,2013-03-12 20:53:00,
2013-03-12 16:54:00,51.6,51.1,29.74,SE,135,15.4,25.1,98,0.00,,SKC,0.00,VWS V14.01,2013-03-12 20:54:00,
2013-03-12 16:55:00,51.6,51.1,29.74,SE,135,17.0,25.1,98,0.00,,SKC,0.00,VWS V14.01,2013-03-12 20:55:00,
2013-03-12 16:56:00,51.6,51.1,29.74,SSE,158,13.9,25.1,98,0.00,,SKC,0.00,VWS V14.01,2013-03-12 20:56:00,
2013-03-12 16:57:00,51.6,51.1,29.74,SE,135,15.2,25.1,98,0.00,,SKC,0.00,VWS V14.01,2013-03-12 20:57:00,
2013-03-12 16:58:00,51.6,51.1,29.74,SE,135,17.5,25.1,98,0.00,,SKC,0.00,VWS V14.01,2013-03-12 20:58:00,
2013-03-12 16:59:00,51.6,51.1,29.71,SE,135,22.6,25.1,98,0.00,,SKC,0.00,VWS V14.01,2013-03-12 20:59:00,
2013-03-12 17:00:00,51.6,51.1,29.71,SE,135,17.5,25.1,98,0.00,,SKC,0.00,VWS V14.01,2013-03-12 21:00:00,
2013-03-12 17:01:00,51.6,51.1,29.71,South,180,21.9,25.1,98,0.00,,SKC,0.00,VWS V14.01,2013-03-12 21:01:00,
2013-03-12 17:02:00,51.4,50.9,29.71,SSE,158,28.0,28.0,98,0.00,,SKC,0.00,VWS V14.01,2013-03-12 21:02:00,
2013-03-12 17:03:00,51.4,50.9,29.71,SE,135,18.1,28.0,98,0.00,,SKC,0.00,VWS V14.01,2013-03-12 21:03:00,
2013-03-12 17:04:00,51.6,51.1,29.71,SSE,158,14.5,28.0,98,0.00,,SKC,0.00,VWS V14.01,2013-03-12 21:04:00,
2013-03-12 17:05:00,51.6,51.1,29.71,SSE,158,10.5,28.0,98,0.00,,SKC,0.00,VWS V14.01,2013-03-12 21:05:00,
2013-03-12 17:06:00,51.4,50.9,29.71,SSE,158,26.0,28.0,98,0.00,,SKC,0.00,VWS V14.01,2013-03-12 21:06:00,
2013-03-12 17:07:00,51.4,50.9,29.71,SSE,158,15.2,28.0,98,0.00,,SKC,0.00,VWS V14.01,2013-03-12 21:07:00,
2013-03-12 17:08:00,51.4,50.9,29.71,SE,135,22.2,28.0,98,0.00,,SKC,0.00,VWS V14.01,2013-03-12 21:08:00,
2013-03-12 17:09:00,51.6,51.1,29.71,South,180,22.8,28.0,98,0.00,,SKC,0.00,VWS V14.01,2013-03-12 21:09:00,
2013-03-12 17:10:00,51.4,50.9,29.71,SSE,158,12.3,28.0,98,0.00,,SKC,0.00,VWS V14.01,2013-03-12 21:10:00,
2013-03-12 17:11:00,51.4,50.9,29.71,SE,135,15.4,28.0,98,0.00,,SKC,0.00,VWS V14.01,2013-03-12 21:11:00,
2013-03-12 17:12:00,51.4,50.9,29.71,SE,135,17.7,28.0,98,0.00,,SKC,0.00,VWS V14.01,2013-03-12 21:12:00,
2013-03-12 17:13:00,51.4,50.9,29.71,South,180,17.2,28.0,98,0.00,,SKC,0.00,VWS V14.01,2013-03-12 21:13:00,
2013-03-12 17:14:00,51.4,50.9,29.68,SE,135,15.2,28.0,98,0.00,,SKC,0.00,VWS V14.01,2013-03-12 21:14:00,
2013-03-12 17:15:00,51.4,50.9,29.68,SSE,158,13.0,28.0,98,0.00,,SKC,0.00,VWS V14.01,2013-03-12 21:15:00,
2013-03-12 17:16:00,51.3,50.7,29.68,SSE,158,21.9,28.0,98,0.00,,SKC,0.00,VWS V14.01,2013-03-12 21:16:00,
2013-03-12 17:17:00,51.3,50.7,29.68,SSE,158,19.7,28.0,98,0.00,,SKC,0.00,VWS V14.01,2013-03-12 21:17:00,
2013-03-12 17:18:00,51.3,50.7,29.68,SSE,158,12.3,28.0,98,0.00,,SKC,0.00,VWS V14.01,2013-03-12 21:18:00,
2013-03-12 17:19:00,51.3,50.7,29.68,SE,135,23.5,28.0,98,0.00,,SKC,0.00,VWS V14.01,2013-03-12 21:19:00,
2013-03-12 17:20:00,51.3,50.7,29.68,SSE,158,17.0,28.0,98,0.00,,SKC,0.00,VWS V14.01,2013-03-12 21:20:00,
2013-03-12 17:21:00,51.3,50.7,29.68,SE,135,17.9,28.0,98,0.00,,SKC,0.00,VWS V14.01,2013-03-12 21:21:00,
2013-03-12 17:22:00,51.3,50.7,29.68,SE,135,14.5,26.0,98,0.00,,SKC,0.00,VWS V14.01,2013-03-12 21:22:00,
2013-03-12 17:23:00,51.3,50.7,29.68,SSE,158,12.8,26.0,98,0.00,,SKC,0.00,VWS V14.01,2013-03-12 21:23:00,
2013-03-12 17:24:00,51.3,50.7,29.68,SSE,158,16.1,26.0,98,0.00,,SKC,0.00,VWS V14.01,2013-03-12 21:24:00,
2013-03-12 17:25:00,51.3,50.7,29.68,SE,135,17.2,26.0,98,0.00,,SKC,0.00,VWS V14.01,2013-03-12 21:25:00,
2013-03-12 17:26:00,51.3,50.7,29.68,SE,135,20.1,23.5,98,0.00,,SKC,0.00,VWS V14.01,2013-03-12 21:26:00,
2013-03-12 17:27:00,51.3,50.7,29.68,SE,135,22.8,23.5,98,0.00,,SKC,0.00,VWS V14.01,2013-03-12 21:27:00,
2013-03-12 17:28:00,51.3,50.7,29.68,SE,135,19.5,23.5,98,0.00,,SKC,0.00,VWS V14.01,2013-03-12 21:28:00,
2013-03-12 17:29:00,51.3,50.7,29.65,SSE,158,13.2,23.5,98,0.00,,SKC,0.00,VWS V14.01,2013-03-12 21:29:00,
2013-03-12 17:30:00,51.3,50.7,29.65,SSW,202,23.3,23.5,98,0.00,,SKC,0.00,VWS V14.01,2013-03-12 21:30:00,
2013-03-12 17:31:00,51.1,50.5,29.65,SSW,202,23.3,23.5,98,0.00,,SKC,0.00,VWS V14.01,2013-03-12 21:31:00,
2013-03-12 17:32:00,51.3,50.7,29.65,ESE,112,16.6,23.5,98,0.00,,SKC,0.00,VWS V14.01,2013-03-12 21:32:00,
2013-03-12 17:33:00,51.3,50.7,29.65,ESE,112,16.6,23.5,98,0.00,,SKC,0.00,VWS V14.01,2013-03-12 21:33:00,
2013-03-12 17:34:00,51.3,50.7,29.65,SSE,158,17.7,23.5,98,0.00,,SKC,0.00,VWS V14.01,2013-03-12 21:34:00,
2013-03-12 17:35:00,51.3,50.7,29.65,SSE,158,17.7,23.5,98,0.00,,SKC,0.00,VWS V14.01,2013-03-12 21:35:00,
2013-03-12 17:36:00,51.3,50.7,29.65,SSE,158,17.7,23.5,98,0.00,,SKC,0.00,VWS V14.01,2013-03-12 21:36:00,
2013-03-12 17:37:00,51.3,50.7,29.65,SSE,158,17.7,23.5,98,0.00,,SKC,0.00,VWS V14.01,2013-03-12 21:37:00,
2013-03-12 17:38:00,51.3,50.7,29.65,SSE,158,14.8,23.5,98,0.00,,SKC,0.00,VWS V14.01,2013-03-12 21:38:00,
2013-03-12 17:39:00,51.4,50.9,29.65,SE,135,23.3,23.3,98,0.00,,SKC,0.00,VWS V14.01,2013-03-12 21:39:00,
2013-03-12 17:40:00,51.4,50.9,29.65,SE,135,17.7,23.3,98,0.00,,SKC,0.00,VWS V14.01,2013-03-12 21:40:00,
2013-03-12 17:41:00,51.4,50.9,29.65,SE,135,25.1,25.1,98,0.00,,SKC,0.00,VWS V14.01,2013-03-12 21:41:00,
2013-03-12 17:42:00,51.4,50.9,29.65,SE,135,25.1,25.1,98,0.00,,SKC,0.00,VWS V14.01,2013-03-12 21:42:00,
2013-03-12 17:43:00,51.4,50.9,29.65,SE,135,25.1,25.1,98,0.00,,SKC,0.00,VWS V14.01,2013-03-12 21:43:00,
2013-03-12 17:44:00,51.6,51.1,29.68,SE,135,11.2,25.1,98,0.00,,SKC,0.00,VWS V14.01,2013-03-12 21:44:00,
2013-03-12 17:45:00,51.6,51.1,29.68,SE,135,17.2,25.1,98,0.00,,SKC,0.00,VWS V14.01,2013-03-12 21:45:00,
2013-03-12 17:46:00,51.6,51.1,29.68,SSE,158,14.5,25.1,98,0.00,,SKC,0.00,VWS V14.01,2013-03-12 21:46:00,
2013-03-12 17:47:00,51.6,51.1,29.68,SE,135,22.6,25.1,98,0.00,,SKC,0.00,VWS V14.01,2013-03-12 21:47:00,
2013-03-12 17:48:00,51.6,51.1,29.68,SE,135,15.2,25.1,98,0.00,,SKC,0.00,VWS V14.01,2013-03-12 21:48:00,
2013-03-12 17:49:00,51.6,51.1,29.68,South,180,13.9,25.1,98,0.00,,SKC,0.00,VWS V14.01,2013-03-12 21:49:00,
2013-03-12 17:50:00,51.6,51.1,29.68,SSE,158,10.5,25.1,98,0.00,,SKC,0.00,VWS V14.01,2013-03-12 21:50:00,
2013-03-12 17:52:00,51.8,51.3,29.68,SE,135,21.9,25.1,98,0.00,,SKC,0.00,VWS V14.01,2013-03-12 21:52:00,
2013-03-12 17:54:00,51.8,51.3,29.68,SE,135,14.8,22.6,98,0.00,,SKC,0.00,VWS V14.01,2013-03-12 21:54:00,
2013-03-12 17:56:00,51.8,51.3,29.68,SE,135,6.3,21.9,98,0.00,,SKC,0.00,VWS V14.01,2013-03-12 21:56:00,
2013-03-12 17:57:00,51.8,51.3,29.68,SSE,158,10.5,14.8,98,0.00,,SKC,0.00,VWS V14.01,2013-03-12 21:57:00,
2013-03-12 17:58:00,51.8,51.3,29.68,SSE,158,9.4,17.2,98,0.00,,SKC,0.00,VWS V14.01,2013-03-12 21:58:00,
2013-03-12 18:00:00,51.8,51.3,29.68,SE,135,14.5,16.8,98,0.00,,SKC,0.00,VWS V14.01,2013-03-12 22:00:00,
2013-03-12 18:02:00,51.8,51.3,29.68,SSE,158,13.0,15.9,98,0.00,,SKC,0.00,VWS V14.01,2013-03-12 22:02:00,
2013-03-12 18:04:00,51.6,51.1,29.68,SE,135,12.5,19.9,98,0.00,,SKC,0.00,VWS V14.01,2013-03-12 22:04:00,
2013-03-12 18:06:00,51.6,51.1,29.68,SSE,158,11.2,17.9,98,0.00,,SKC,0.00,VWS V14.01,2013-03-12 22:06:00,
2013-03-12 18:07:00,51.6,51.1,29.68,SSE,158,10.3,19.9,98,0.00,,SKC,0.00,VWS V14.01,2013-03-12 22:07:00,
2013-03-12 18:08:00,51.6,51.1,29.68,SSE,158,10.3,19.9,98,0.00,,SKC,0.00,VWS V14.01,2013-03-12 22:08:00,
2013-03-12 18:10:00,51.4,50.9,29.68,SE,135,10.7,15.4,98,0.00,,SKC,0.00,VWS V14.01,2013-03-12 22:10:00,
2013-03-12 18:12:00,51.6,51.1,29.68,South,180,8.1,11.2,98,0.00,,SKC,0.00,VWS V14.01,2013-03-12 22:12:00,
2013-03-12 18:14:00,51.6,51.1,29.68,SSE,158,17.7,17.7,98,0.00,,SKC,0.00,VWS V14.01,2013-03-12 22:14:00,
2013-03-12 18:16:00,51.6,51.1,29.68,South,180,7.2,17.7,98,0.00,,SKC,0.00,VWS V14.01,2013-03-12 22:16:00,
2013-03-12 18:18:00,51.6,51.1,29.68,SE,135,4.0,7.4,98,0.00,,SKC,0.00,VWS V14.01,2013-03-12 22:18:00,
2013-03-12 18:20:00,51.6,51.1,29.68,ESE,112,5.6,8.7,98,0.00,,SKC,0.00,VWS V14.01,2013-03-12 22:20:00,
2013-03-12 18:22:00,51.6,51.1,29.68,SSE,158,10.3,10.3,98,0.00,,SKC,0.00,VWS V14.01,2013-03-12 22:22:00,
2013-03-12 18:23:00,51.6,51.1,29.68,South,180,6.0,10.5,98,0.00,,SKC,0.00,VWS V14.01,2013-03-12 22:23:00,
2013-03-12 18:24:00,51.4,50.9,29.68,SE,135,3.8,10.5,98,0.00,,SKC,0.00,VWS V14.01,2013-03-12 22:24:00,
2013-03-12 18:26:00,51.4,50.9,29.68,South,180,4.0,5.6,98,0.00,,SKC,0.00,VWS V14.01,2013-03-12 22:26:00,
2013-03-12 18:27:00,51.4,50.9,29.68,SE,135,4.3,6.3,98,0.00,,SKC,0.00,VWS V14.01,2013-03-12 22:27:00,
2013-03-12 18:28:00,51.4,50.9,29.68,SE,135,4.3,6.3,98,0.00,,SKC,0.00,VWS V14.01,2013-03-12 22:28:00,
2013-03-12 18:30:00,51.4,50.9,29.68,SSE,158,8.1,10.5,98,0.00,,SKC,0.00,VWS V14.01,2013-03-12 22:30:00,
2013-03-12 18:32:00,51.4,50.9,29.68,South,180,3.4,5.6,98,0.00,,SKC,0.00,VWS V14.01,2013-03-12 22:32:00,
2013-03-12 18:34:00,51.4,50.9,29.68,SW,225,2.9,4.9,98,0.00,,SKC,0.00,VWS V14.01,2013-03-12 22:34:00,
2013-03-12 18:36:00,51.4,50.9,29.68,SSW,202,5.6,6.5,98,0.00,,SKC,0.00,VWS V14.01,2013-03-12 22:36:00,
2013-03-12 18:37:00,51.6,51.1,29.68,South,180,4.0,4.0,98,0.00,,SKC,0.00,VWS V14.01,2013-03-12 22:37:00,
2013-03-12 18:38:00,51.6,51.1,29.68,South,180,4.0,4.0,98,0.00,,SKC,0.00,VWS V14.01,2013-03-12 22:38:00,
2013-03-12 18:40:00,51.8,51.3,29.68,SSW,202,6.3,6.3,98,0.00,,SKC,0.00,VWS V14.01,2013-03-12 22:40:00,
2013-03-12 18:42:00,51.8,51.3,29.68,SSW,202,2.9,4.3,98,0.00,,SKC,0.00,VWS V14.01,2013-03-12 22:42:00,
2013-03-12 18:43:00,51.8,51.3,29.68,South,180,2.2,4.3,98,0.00,,SKC,0.00,VWS V14.01,2013-03-12 22:43:00,
2013-03-12 18:44:00,51.8,51.3,29.68,South,180,2.5,5.6,98,0.00,,SKC,0.00,VWS V14.01,2013-03-12 22:44:00,
2013-03-12 18:46:00,51.8,51.3,29.68,SE,135,3.4,6.7,98,0.00,,SKC,0.00,VWS V14.01,2013-03-12 22:46:00,
2013-03-12 18:48:00,51.8,51.3,29.68,SSW,202,3.1,7.6,98,0.00,,SKC,0.00,VWS V14.01,2013-03-12 22:48:00,
2013-03-12 18:50:00,51.8,51.3,29.68,SSW,202,3.8,4.9,98,0.00,,SKC,0.00,VWS V14.01,2013-03-12 22:50:00,
2013-03-12 18:52:00,51.6,51.1,29.68,SW,225,3.1,7.6,98,0.00,,SKC,0.00,VWS V14.01,2013-03-12 22:52:00,
2013-03-12 18:53:00,51.6,51.1,29.68,SSE,158,5.6,7.6,98,0.00,,SKC,0.00,VWS V14.01,2013-03-12 22:53:00,
2013-03-12 18:54:00,51.6,51.1,29.68,SSW,202,4.0,5.6,98,0.00,,SKC,0.00,VWS V14.01,2013-03-12 22:54:00,
2013-03-12 18:56:00,51.6,51.1,29.68,SW,225,2.7,4.0,98,0.00,,SKC,0.00,VWS V14.01,2013-03-12 22:56:00,
2013-03-12 18:58:00,51.6,51.1,29.68,South,180,4.0,4.0,98,0.00,,SKC,0.00,VWS V14.01,2013-03-12 22:58:00,
2013-03-12 19:00:00,51.6,51.1,29.71,SSW,202,2.2,6.3,98,0.00,,SKC,0.00,VWS V14.01,2013-03-12 23:00:00,
2013-03-12 19:02:00,51.6,51.1,29.71,WSW,248,3.6,3.6,98,0.00,,SKC,0.00,VWS V14.01,2013-03-12 23:02:00,
2013-03-12 19:03:00,51.6,51.1,29.71,SE,135,4.7,4.9,98,0.00,,SKC,0.00,VWS V14.01,2013-03-12 23:03:00,
2013-03-12 19:04:00,51.6,51.1,29.71,SSW,202,4.3,5.4,98,0.00,,SKC,0.00,VWS V14.01,2013-03-12 23:04:00,
2013-03-12 19:06:00,51.6,51.1,29.71,SW,225,3.6,4.7,98,0.00,,SKC,0.00,VWS V14.01,2013-03-12 23:06:00,
2013-03-12 19:08:00,51.6,51.1,29.71,SW,225,2.0,3.4,98,0.00,,SKC,0.00,VWS V14.01,2013-03-12 23:08:00,
2013-03-12 19:10:00,51.6,51.1,29.71,South,180,4.0,6.3,98,0.00,,SKC,0.00,VWS V14.01,2013-03-12 23:10:00,
2013-03-12 19:12:00,51.6,51.1,29.71,SSW,202,2.7,4.7,98,0.00,,SKC,0.00,VWS V14.01,2013-03-12 23:12:00,
2013-03-12 19:13:00,51.6,51.1,29.71,SE,135,3.8,3.8,98,0.00,,SKC,0.00,VWS V14.01,2013-03-12 23:13:00,
2013-03-12 19:14:00,51.6,51.1,29.71,SE,135,6.0,6.0,98,0.00,,SKC,0.00,VWS V14.01,2013-03-12 23:14:00,
2013-03-12 19:16:00,51.8,51.3,29.71,ESE,112,1.6,4.3,98,0.00,,SKC,0.00,VWS V14.01,2013-03-12 23:16:00,
2013-03-12 19:18:00,51.8,51.3,29.71,SSW,202,2.0,3.4,98,0.00,,SKC,0.00,VWS V14.01,2013-03-12 23:18:00,
2013-03-12 19:20:00,51.8,51.3,29.71,South,180,2.2,2.9,98,0.00,,SKC,0.00,VWS V14.01,2013-03-12 23:20:00,
2013-03-12 19:22:00,51.8,51.3,29.71,South,180,5.6,5.6,98,0.00,,SKC,0.00,VWS V14.01,2013-03-12 23:22:00,
2013-03-12 19:23:00,51.8,51.3,29.71,SSE,158,2.7,5.6,98,0.00,,SKC,0.00,VWS V14.01,2013-03-12 23:23:00,
2013-03-12 19:24:00,51.8,51.3,29.71,SSW,202,3.1,4.9,98,0.00,,SKC,0.00,VWS V14.01,2013-03-12 23:24:00,
2013-03-12 19:26:00,51.8,51.3,29.71,SSW,202,4.0,5.4,98,0.00,,SKC,0.00,VWS V14.01,2013-03-12 23:26:00,
2013-03-12 19:28:00,51.8,51.3,29.71,SSE,158,2.5,5.4,98,0.00,,SKC,0.00,VWS V14.01,2013-03-12 23:28:00,
2013-03-12 19:30:00,51.8,51.3,29.71,SSW,202,3.1,4.0,98,0.00,,SKC,0.00,VWS V14.01,2013-03-12 23:30:00,
2013-03-12 19:32:00,51.8,51.3,29.71,South,180,3.1,4.5,98,0.00,,SKC,0.00,VWS V14.01,2013-03-12 23:32:00,
2013-03-12 19:33:00,51.8,51.3,29.71,SSW,202,4.3,5.8,98,0.00,,SKC,0.00,VWS V14.01,2013-03-12 23:33:00,
2013-03-12 19:34:00,52.0,51.4,29.71,South,180,2.5,4.3,98,0.00,,SKC,0.00,VWS V14.01,2013-03-12 23:34:00,
2013-03-12 19:36:00,52.0,51.4,29.71,SW,225,3.1,3.4,98,0.00,,SKC,0.00,VWS V14.01,2013-03-12 23:36:00,
2013-03-12 19:38:00,52.0,51.4,29.71,SW,225,3.8,5.4,98,0.00,,SKC,0.00,VWS V14.01,2013-03-12 23:38:00,
2013-03-12 19:40:00,52.0,51.4,29.71,SSW,202,3.8,4.9,98,0.00,,SKC,0.00,VWS V14.01,2013-03-12 23:40:00,
2013-03-12 19:42:00,52.2,51.6,29.71,West,270,8.5,8.5,98,0.00,,SKC,0.00,VWS V14.01,2013-03-12 23:42:00,
2013-03-12 19:43:00,52.2,51.6,29.71,SW,225,3.8,8.5,98,0.00,,SKC,0.00,VWS V14.01,2013-03-12 23:43:00,
2013-03-12 19:44:00,52.2,51.6,29.71,SW,225,3.8,4.3,98,0.00,,SKC,0.00,VWS V14.01,2013-03-12 23:44:00,
2013-03-12 19:46:00,52.2,51.6,29.71,SW,225,4.3,7.8,98,0.00,,SKC,0.00,VWS V14.01,2013-03-12 23:46:00,
2013-03-12 19:48:00,52.2,51.6,29.71,SW,225,4.3,5.6,98,0.00,,SKC,0.00,VWS V14.01,2013-03-12 23:48:00,
2013-03-12 19:50:00,52.3,51.8,29.71,SSW,202,3.6,6.0,98,0.00,,SKC,0.00,VWS V14.01,2013-03-12 23:50:00,
2013-03-12 19:52:00,52.3,51.8,29.71,SSW,202,3.1,5.4,98,0.00,,SKC,0.00,VWS V14.01,2013-03-12 23:52:00,
2013-03-12 19:53:00,52.3,51.8,29.71,WSW,248,4.0,4.9,98,0.00,,SKC,0.00,VWS V14.01,2013-03-12 23:53:00,
2013-03-12 19:54:00,52.3,51.8,29.71,South,180,4.0,6.0,98,0.00,,SKC,0.00,VWS V14.01,2013-03-12 23:54:00,
2013-03-12 19:56:00,52.2,51.6,29.71,SW,225,3.1,5.4,98,0.00,,SKC,0.00,VWS V14.01,2013-03-12 23:56:00,
2013-03-12 19:58:00,52.2,51.6,29.71,SSE,158,5.6,5.6,98,0.00,,SKC,0.00,VWS V14.01,2013-03-12 23:58:00,
2013-03-12 20:00:00,52.2,51.6,29.71,SW,225,3.8,5.6,98,0.00,,SKC,0.00,VWS V14.01,2013-03-13 00:00:00,
2013-03-12 20:02:00,52.3,51.8,29.71,SW,225,3.6,5.4,98,0.00,,SKC,0.00,VWS V14.01,2013-03-13 00:02:00,
2013-03-12 20:03:00,52.3,51.8,29.71,SW,225,5.4,8.1,98,0.00,,SKC,0.00,VWS V14.01,2013-03-13 00:03:00,
2013-03-12 20:04:00,52.2,51.6,29.71,SW,225,5.8,8.1,98,0.00,,SKC,0.00,VWS V14.01,2013-03-13 00:04:00,
2013-03-12 20:06:00,52.2,51.6,29.71,SW,225,3.8,9.6,98,0.00,,SKC,0.00,VWS V14.01,2013-03-13 00:06:00,
2013-03-12 20:08:00,52.2,51.6,29.71,WSW,248,5.4,8.5,98,0.00,,SKC,0.00,VWS V14.01,2013-03-13 00:08:00,
2013-03-12 20:10:00,52.2,51.6,29.71,SSW,202,3.6,10.3,98,0.00,,SKC,0.00,VWS V14.01,2013-03-13 00:10:00,
2013-03-12 20:12:00,52.2,51.6,29.71,WSW,248,3.8,4.9,98,0.00,,SKC,0.00,VWS V14.01,2013-03-13 00:12:00,
2013-03-12 20:13:00,52.2,51.6,29.71,South,180,3.1,12.3,98,0.00,,SKC,0.00,VWS V14.01,2013-03-13 00:13:00,
2013-03-12 20:14:00,52.2,51.6,29.71,WSW,248,4.3,7.8,98,0.00,,SKC,0.00,VWS V14.01,2013-03-13 00:14:00,
2013-03-12 20:16:00,52.2,51.6,29.71,SW,225,5.4,7.8,98,0.00,,SKC,0.00,VWS V14.01,2013-03-13 00:16:00,
2013-03-12 20:18:00,52.0,51.4,29.71,SW,225,3.8,5.4,98,0.00,,SKC,0.00,VWS V14.01,2013-03-13 00:18:00,
2013-03-12 20:20:00,52.0,51.4,29.71,SW,225,3.8,7.2,98,0.00,,SKC,0.00,VWS V14.01,2013-03-13 00:20:00,
2013-03-12 20:22:00,52.0,51.4,29.71,SW,225,2.7,4.7,98,0.00,,SKC,0.00,VWS V14.01,2013-03-13 00:22:00,
2013-03-12 20:23:00,52.0,51.4,29.71,SW,225,2.5,4.7,98,0.00,,SKC,0.00,VWS V14.01,2013-03-13 00:23:00,
2013-03-12 20:24:00,52.0,51.4,29.71,SW,225,4.0,4.7,98,0.00,,SKC,0.00,VWS V14.01,2013-03-13 00:24:00,
2013-03-12 20:26:00,51.8,51.3,29.71,SSE,158,2.7,4.3,98,0.00,,SKC,0.00,VWS V14.01,2013-03-13 00:26:00,
2013-03-12 20:28:00,51.8,51.3,29.71,SSW,202,4.3,4.3,98,0.00,,SKC,0.00,VWS V14.01,2013-03-13 00:28:00,
2013-03-12 20:30:00,51.8,51.3,29.71,SW,225,3.6,4.3,98,0.00,,SKC,0.00,VWS V14.01,2013-03-13 00:30:00,
2013-03-12 20:32:00,51.6,51.1,29.71,SSW,202,4.3,4.3,98,0.00,,SKC,0.00,VWS V14.01,2013-03-13 00:32:00,
2013-03-12 20:33:00,51.6,51.1,29.71,SW,225,0.9,4.9,98,0.00,,SKC,0.00,VWS V14.01,2013-03-13 00:33:00,
2013-03-12 20:34:00,51.6,51.1,29.71,SSW,202,2.9,4.9,98,0.00,,SKC,0.00,VWS V14.01,2013-03-13 00:34:00,
2013-03-12 20:36:00,51.6,51.1,29.71,SSW,202,3.8,3.8,98,0.00,,SKC,0.00,VWS V14.01,2013-03-13 00:36:00,
2013-03-12 20:38:00,51.6,51.1,29.71,South,180,2.0,3.8,98,0.00,,SKC,0.00,VWS V14.01,2013-03-13 00:38:00,
2013-03-12 20:40:00,51.4,50.9,29.71,SW,225,3.1,3.8,98,0.00,,SKC,0.00,VWS V14.01,2013-03-13 00:40:00,
2013-03-12 20:42:00,51.4,50.9,29.71,SW,225,4.3,4.9,98,0.00,,SKC,0.00,VWS V14.01,2013-03-13 00:42:00,
2013-03-12 20:43:00,51.3,50.7,29.71,South,180,2.7,4.3,98,0.00,,SKC,0.00,VWS V14.01,2013-03-13 00:43:00,
2013-03-12 20:44:00,51.3,50.7,29.71,SW,225,3.1,4.3,98,0.00,,SKC,0.00,VWS V14.01,2013-03-13 00:44:00,
2013-03-12 20:46:00,51.3,50.7,29.71,SSW,202,2.7,4.3,98,0.00,,SKC,0.00,VWS V14.01,2013-03-13 00:46:00,
2013-03-12 20:48:00,51.3,50.7,29.71,South,180,2.5,3.6,98,0.00,,SKC,0.00,VWS V14.01,2013-03-13 00:48:00,
2013-03-12 20:50:00,51.1,50.5,29.71,SSW,202,2.9,3.8,98,0.00,,SKC,0.00,VWS V14.01,2013-03-13 00:50:00,
2013-03-12 20:52:00,51.1,50.5,29.71,SW,225,2.0,3.4,98,0.00,,SKC,0.00,VWS V14.01,2013-03-13 00:52:00,
2013-03-12 20:53:00,51.1,50.5,29.71,South,180,3.6,3.6,98,0.00,,SKC,0.00,VWS V14.01,2013-03-13 00:53:00,
2013-03-12 20:54:00,51.1,50.5,29.71,SW,225,2.9,3.6,98,0.00,,SKC,0.00,VWS V14.01,2013-03-13 00:54:00,
2013-03-12 20:56:00,50.9,50.4,29.71,SW,225,2.5,4.9,98,0.00,,SKC,0.00,VWS V14.01,2013-03-13 00:56:00,
2013-03-12 20:58:00,50.9,50.4,29.71,SW,225,2.5,2.9,98,0.00,,SKC,0.00,VWS V14.01,2013-03-13 00:58:00,
2013-03-12 21:00:00,50.9,50.4,29.71,SSW,202,1.3,2.7,98,0.00,,SKC,0.00,VWS V14.01,2013-03-13 01:00:00,
2013-03-12 21:02:00,50.9,50.4,29.71,SW,225,0.0,3.1,98,0.00,,SKC,0.00,VWS V14.01,2013-03-13 01:02:00,
2013-03-12 21:03:00,50.9,50.4,29.71,SW,225,0.9,2.7,98,0.00,,SKC,0.00,VWS V14.01,2013-03-13 01:03:00,
2013-03-12 21:04:00,50.7,50.2,29.71,South,180,1.6,2.7,98,0.00,,SKC,0.00,VWS V14.01,2013-03-13 01:04:00,
2013-03-12 21:06:00,50.7,50.2,29.71,SW,225,2.5,2.5,98,0.00,,SKC,0.00,VWS V14.01,2013-03-13 01:06:00,
2013-03-12 21:08:00,50.7,50.2,29.71,SW,225,2.0,2.0,98,0.00,,SKC,0.00,VWS V14.01,2013-03-13 01:08:00,
2013-03-12 21:10:00,50.7,50.2,29.71,SW,225,1.3,2.2,98,0.00,,SKC,0.00,VWS V14.01,2013-03-13 01:10:00,
2013-03-12 21:12:00,50.7,50.2,29.71,SW,225,2.0,2.9,98,0.00,,SKC,0.00,VWS V14.01,2013-03-13 01:12:00,
2013-03-12 21:13:00,50.7,50.2,29.71,SW,225,2.7,3.4,98,0.00,,SKC,0.00,VWS V14.01,2013-03-13 01:13:00,
2013-03-12 21:14:00,50.7,50.2,29.71,SW,225,2.7,3.4,98,0.00,,SKC,0.00,VWS V14.01,2013-03-13 01:14:00,
2013-03-12 21:16:00,50.7,50.2,29.71,SW,225,4.0,6.3,98,0.00,,SKC,0.00,VWS V14.01,2013-03-13 01:16:00,
2013-03-12 21:18:00,50.5,50.0,29.71,SW,225,2.9,6.0,98,0.00,,SKC,0.00,VWS V14.01,2013-03-13 01:18:00,
2013-03-12 21:19:00,50.5,50.0,29.71,WSW,248,2.9,3.8,98,0.00,,SKC,0.00,VWS V14.01,2013-03-13 01:19:00,
2013-03-12 21:20:00,50.7,50.2,29.71,SW,225,5.4,5.8,98,0.00,,SKC,0.00,VWS V14.01,2013-03-13 01:20:00,
2013-03-12 21:22:00,50.7,50.2,29.71,SW,225,4.0,4.0,98,0.00,,SKC,0.00,VWS V14.01,2013-03-13 01:22:00,
2013-03-12 21:23:00,50.7,50.2,29.71,SW,225,3.8,6.0,98,0.00,,SKC,0.00,VWS V14.01,2013-03-13 01:23:00,
2013-03-12 21:24:00,50.7,50.2,29.71,SW,225,3.8,6.0,98,0.00,,SKC,0.00,VWS V14.01,2013-03-13 01:24:00,
2013-03-12 21:26:00,50.7,50.2,29.71,SW,225,3.8,4.3,98,0.00,,SKC,0.00,VWS V14.01,2013-03-13 01:26:00,
2013-03-12 21:28:00,50.7,50.2,29.71,WSW,248,5.8,6.0,98,0.00,,SKC,0.00,VWS V14.01,2013-03-13 01:28:00,
2013-03-12 21:30:00,50.7,50.2,29.71,SW,225,5.4,5.8,98,0.00,,SKC,0.00,VWS V14.01,2013-03-13 01:30:00,
2013-03-12 21:32:00,50.7,50.2,29.71,WSW,248,3.6,5.8,98,0.00,,SKC,0.00,VWS V14.01,2013-03-13 01:32:00,
2013-03-12 21:33:00,50.7,50.2,29.71,SW,225,3.4,5.8,98,0.00,,SKC,0.00,VWS V14.01,2013-03-13 01:33:00,
2013-03-12 21:34:00,50.7,50.2,29.71,SW,225,3.4,5.8,98,0.00,,SKC,0.00,VWS V14.01,2013-03-13 01:34:00,
2013-03-12 21:36:00,50.7,50.2,29.71,SW,225,2.7,4.7,98,0.00,,SKC,0.00,VWS V14.01,2013-03-13 01:36:00,
2013-03-12 21:38:00,50.7,50.2,29.71,WSW,248,5.4,5.8,98,0.00,,SKC,0.00,VWS V14.01,2013-03-13 01:38:00,
2013-03-12 21:39:00,50.7,50.2,29.71,WSW,248,5.6,5.8,98,0.00,,SKC,0.00,VWS V14.01,2013-03-13 01:39:00,
2013-03-12 21:40:00,50.7,50.2,29.71,WSW,248,3.1,5.6,98,0.00,,SKC,0.00,VWS V14.01,2013-03-13 01:40:00,
2013-03-12 21:42:00,50.7,50.2,29.71,SW,225,3.4,5.4,98,0.00,,SKC,0.00,VWS V14.01,2013-03-13 01:42:00,
2013-03-12 21:44:00,50.7,50.2,29.71,SW,225,3.4,3.6,98,0.00,,SKC,0.00,VWS V14.01,2013-03-13 01:44:00,
2013-03-12 21:46:00,50.5,50.0,29.71,WSW,248,2.9,4.0,98,0.00,,SKC,0.00,VWS V14.01,2013-03-13 01:46:00,
2013-03-12 21:48:00,50.5,50.0,29.71,SW,225,3.4,3.6,98,0.00,,SKC,0.00,VWS V14.01,2013-03-13 01:48:00,
2013-03-12 21:49:00,50.5,50.0,29.71,South,180,2.5,3.6,98,0.00,,SKC,0.00,VWS V14.01,2013-03-13 01:49:00,
2013-03-12 21:50:00,50.5,50.0,29.71,WSW,248,2.5,3.6,98,0.00,,SKC,0.00,VWS V14.01,2013-03-13 01:50:00,
2013-03-12 21:52:00,50.5,50.0,29.71,SW,225,3.1,3.4,98,0.00,,SKC,0.00,VWS V14.01,2013-03-13 01:52:00,
2013-03-12 21:54:00,50.4,49.8,29.71,SW,225,2.7,4.3,98,0.00,,SKC,0.00,VWS V14.01,2013-03-13 01:54:00,
2013-03-12 21:56:00,50.4,49.8,29.71,SW,225,3.1,3.1,98,0.00,,SKC,0.00,VWS V14.01,2013-03-13 01:56:00,
2013-03-12 21:58:00,50.4,49.8,29.71,WSW,248,3.1,3.1,98,0.00,,SKC,0.00,VWS V14.01,2013-03-13 01:58:00,
2013-03-12 21:59:00,50.4,49.8,29.71,West,270,1.6,4.3,98,0.00,,SKC,0.00,VWS V14.01,2013-03-13 01:59:00,
2013-03-12 22:00:00,50.4,49.8,29.71,WSW,248,1.3,2.5,98,0.00,,SKC,0.00,VWS V14.01,2013-03-13 02:00:00,
2013-03-12 22:02:00,50.2,49.6,29.71,WSW,248,2.7,3.8,98,0.00,,SKC,0.00,VWS V14.01,2013-03-13 02:02:00,
2013-03-12 22:04:00,50.2,49.6,29.71,West,270,1.3,2.9,98,0.00,,SKC,0.00,VWS V14.01,2013-03-13 02:04:00,
2013-03-12 22:06:00,50.2,49.6,29.71,SW,225,2.9,3.1,98,0.00,,SKC,0.00,VWS V14.01,2013-03-13 02:06:00,
2013-03-12 22:08:00,50.2,49.6,29.71,WSW,248,1.6,2.9,98,0.00,,SKC,0.00,VWS V14.01,2013-03-13 02:08:00,
2013-03-12 22:09:00,50.2,49.6,29.71,SW,225,0.0,2.5,98,0.00,,SKC,0.00,VWS V14.01,2013-03-13 02:09:00,
2013-03-12 22:10:00,50.0,49.5,29.71,SW,225,0.0,2.5,98,0.00,,SKC,0.00,VWS V14.01,2013-03-13 02:10:00,
2013-03-12 22:12:00,50.2,49.6,29.71,SW,225,1.1,2.7,98,0.00,,SKC,0.00,VWS V14.01,2013-03-13 02:12:00,
2013-03-12 22:14:00,50.2,49.6,29.71,SW,225,0.0,0.0,98,0.00,,SKC,0.00,VWS V14.01,2013-03-13 02:14:00,
2013-03-12 22:16:00,50.2,49.6,29.71,SW,225,1.3,1.6,98,0.00,,SKC,0.00,VWS V14.01,2013-03-13 02:16:00,
2013-03-12 22:18:00,50.2,49.6,29.71,WSW,248,2.0,2.7,98,0.00,,SKC,0.00,VWS V14.01,2013-03-13 02:18:00,
2013-03-12 22:19:00,50.2,49.6,29.71,WSW,248,1.3,3.6,98,0.00,,SKC,0.00,VWS V14.01,2013-03-13 02:19:00,
2013-03-12 22:20:00,50.2,49.6,29.71,WSW,248,2.0,3.6,98,0.00,,SKC,0.00,VWS V14.01,2013-03-13 02:20:00,
2013-03-12 22:22:00,50.2,49.6,29.71,WSW,248,1.6,2.9,98,0.00,,SKC,0.00,VWS V14.01,2013-03-13 02:22:00,
2013-03-12 22:24:00,50.0,49.5,29.71,WSW,248,2.7,2.9,98,0.00,,SKC,0.00,VWS V14.01,2013-03-13 02:24:00,
2013-03-12 22:26:00,50.0,49.5,29.71,West,270,2.9,3.8,98,0.00,,SKC,0.00,VWS V14.01,2013-03-13 02:26:00,
2013-03-12 22:28:00,50.0,49.5,29.71,West,270,3.1,6.0,98,0.00,,SKC,0.00,VWS V14.01,2013-03-13 02:28:00,
2013-03-12 22:29:00,49.8,49.3,29.71,SW,225,4.0,4.9,98,0.00,,SKC,0.00,VWS V14.01,2013-03-13 02:29:00,
2013-03-12 22:30:00,49.8,49.3,29.71,WNW,292,4.0,6.3,98,0.00,,SKC,0.00,VWS V14.01,2013-03-13 02:30:00,
2013-03-12 22:32:00,49.8,49.3,29.71,WSW,248,9.8,11.2,98,0.00,,SKC,0.00,VWS V14.01,2013-03-13 02:32:00,
2013-03-12 22:34:00,49.6,49.1,29.71,West,270,8.5,9.4,98,0.00,,SKC,0.00,VWS V14.01,2013-03-13 02:34:00,
2013-03-12 22:36:00,49.5,48.9,29.71,NW,315,8.5,10.7,98,0.00,,SKC,0.00,VWS V14.01,2013-03-13 02:36:00,
2013-03-12 22:38:00,49.1,48.6,29.71,WSW,248,9.8,9.8,98,0.00,,SKC,0.00,VWS V14.01,2013-03-13 02:38:00,
2013-03-12 22:39:00,48.9,48.1,29.71,WNW,292,9.6,12.8,97,0.00,,SKC,0.00,VWS V14.01,2013-03-13 02:39:00,
2013-03-12 22:40:00,48.9,48.1,29.71,West,270,10.7,12.8,97,0.00,,SKC,0.00,VWS V14.01,2013-03-13 02:40:00,
2013-03-12 22:42:00,48.7,47.9,29.71,West,270,7.8,13.4,97,0.00,,SKC,0.00,VWS V14.01,2013-03-13 02:42:00,
2013-03-12 22:44:00,48.6,47.5,29.74,West,270,12.3,12.8,96,0.00,,SKC,0.00,VWS V14.01,2013-03-13 02:44:00,
2013-03-12 22:46:00,48.4,47.0,29.74,WSW,248,8.5,11.2,95,0.00,,SKC,0.00,VWS V14.01,2013-03-13 02:46:00,
2013-03-12 22:48:00,48.2,46.8,29.74,West,270,7.6,13.0,95,0.00,,SKC,0.00,VWS V14.01,2013-03-13 02:48:00,
2013-03-12 22:49:00,48.0,46.9,29.74,West,270,7.4,8.7,96,0.00,,SKC,0.00,VWS V14.01,2013-03-13 02:49:00,
2013-03-12 22:50:00,47.8,46.5,29.74,West,270,11.0,11.0,95,0.00,,SKC,0.00,VWS V14.01,2013-03-13 02:50:00,
2013-03-12 22:52:00,47.7,46.3,29.74,West,270,9.4,11.0,95,0.00,,SKC,0.00,VWS V14.01,2013-03-13 02:52:00,
2013-03-12 22:54:00,47.7,46.3,29.74,WNW,292,7.8,10.3,95,0.00,,SKC,0.00,VWS V14.01,2013-03-13 02:54:00,
2013-03-12 22:56:00,47.5,45.8,29.74,West,270,10.1,11.0,94,0.00,,SKC,0.00,VWS V14.01,2013-03-13 02:56:00,
2013-03-12 22:58:00,47.3,45.7,29.74,West,270,10.7,13.0,94,0.00,,SKC,0.00,VWS V14.01,2013-03-13 02:58:00,
2013-03-12 22:59:00,47.3,45.7,29.74,West,270,7.6,10.3,94,0.00,,SKC,0.00,VWS V14.01,2013-03-13 02:59:00,
2013-03-12 23:00:00,47.3,45.7,29.74,WNW,292,7.8,9.8,94,0.00,,SKC,0.00,VWS V14.01,2013-03-13 03:00:00,
2013-03-12 23:02:00,47.1,45.5,29.74,West,270,10.5,15.4,94,0.00,,SKC,0.00,VWS V14.01,2013-03-13 03:02:00,
2013-03-12 23:04:00,46.9,45.0,29.74,West,270,10.5,13.0,93,0.00,,SKC,0.00,VWS V14.01,2013-03-13 03:04:00,
2013-03-12 23:06:00,46.8,44.8,29.74,West,270,11.0,13.0,93,0.00,,SKC,0.00,VWS V14.01,2013-03-13 03:06:00,
2013-03-12 23:08:00,46.6,44.7,29.74,WNW,292,10.5,15.2,93,0.00,,SKC,0.00,VWS V14.01,2013-03-13 03:08:00,
2013-03-12 23:09:00,46.6,44.7,29.74,West,270,7.4,14.5,93,0.00,,SKC,0.00,VWS V14.01,2013-03-13 03:09:00,
2013-03-12 23:10:00,46.6,44.7,29.74,West,270,8.1,14.5,93,0.00,,SKC,0.00,VWS V14.01,2013-03-13 03:10:00,
2013-03-12 23:12:00,46.2,44.3,29.74,West,270,10.3,10.7,93,0.00,,SKC,0.00,VWS V14.01,2013-03-13 03:12:00,
2013-03-12 23:14:00,46.2,44.3,29.74,West,270,8.1,10.3,93,0.00,,SKC,0.00,VWS V14.01,2013-03-13 03:14:00,
2013-03-12 23:16:00,46.0,44.1,29.74,West,270,12.1,12.1,93,0.00,,SKC,0.00,VWS V14.01,2013-03-13 03:16:00,
2013-03-12 23:18:00,45.7,43.5,29.74,West,270,12.8,12.8,92,0.00,,SKC,0.00,VWS V14.01,2013-03-13 03:18:00,
2013-03-12 23:19:00,45.7,43.5,29.74,WNW,292,7.8,12.8,92,0.00,,SKC,0.00,VWS V14.01,2013-03-13 03:19:00,
2013-03-12 23:20:00,45.7,43.8,29.74,NW,315,7.4,11.0,93,0.00,,SKC,0.00,VWS V14.01,2013-03-13 03:20:00,
2013-03-12 23:22:00,45.5,43.6,29.74,West,270,9.0,10.5,93,0.00,,SKC,0.00,VWS V14.01,2013-03-13 03:22:00,
2013-03-12 23:24:00,45.3,43.4,29.74,West,270,10.1,10.3,93,0.00,,SKC,0.00,VWS V14.01,2013-03-13 03:24:00,
2013-03-12 23:26:00,45.3,43.4,29.74,West,270,10.5,10.7,93,0.00,,SKC,0.00,VWS V14.01,2013-03-13 03:26:00,
2013-03-12 23:28:00,45.3,43.4,29.74,West,270,7.8,10.3,93,0.00,,SKC,0.00,VWS V14.01,2013-03-13 03:28:00,
2013-03-12 23:29:00,45.3,43.4,29.74,WNW,292,7.8,13.9,93,0.00,,SKC,0.00,VWS V14.01,2013-03-13 03:29:00,
2013-03-12 23:30:00,45.1,43.5,29.74,West,270,14.5,14.5,94,0.00,,SKC,0.00,VWS V14.01,2013-03-13 03:30:00,
2013-03-12 23:32:00,45.1,43.5,29.74,WNW,292,8.5,10.7,94,0.00,,SKC,0.00,VWS V14.01,2013-03-13 03:32:00,
2013-03-12 23:34:00,45.3,44.0,29.74,West,270,6.5,8.7,95,0.00,,SKC,0.00,VWS V14.01,2013-03-13 03:34:00,
2013-03-12 23:36:00,45.1,43.8,29.74,NW,315,6.0,10.3,95,0.00,,SKC,0.00,VWS V14.01,2013-03-13 03:36:00,
2013-03-12 23:38:00,45.3,44.0,29.74,WNW,292,6.9,11.0,95,0.00,,SKC,0.00,VWS V14.01,2013-03-13 03:38:00,
2013-03-12 23:39:00,45.1,43.8,29.74,NW,315,8.5,8.5,95,0.00,,SKC,0.00,VWS V14.01,2013-03-13 03:39:00,
2013-03-12 23:40:00,45.1,43.8,29.74,NW,315,5.4,8.5,95,0.00,,SKC,0.00,VWS V14.01,2013-03-13 03:40:00,
2013-03-12 23:42:00,45.1,43.8,29.74,West,270,7.6,9.0,95,0.00,,SKC,0.00,VWS V14.01,2013-03-13 03:42:00,
2013-03-12 23:44:00,45.1,43.8,29.74,NW,315,8.7,10.1,95,0.00,,SKC,0.00,VWS V14.01,2013-03-13 03:44:00,
2013-03-12 23:46:00,45.0,43.6,29.74,West,270,5.8,8.7,95,0.00,,SKC,0.00,VWS V14.01,2013-03-13 03:46:00,
2013-03-12 23:48:00,45.0,43.6,29.74,West,270,7.8,12.1,95,0.00,,SKC,0.00,VWS V14.01,2013-03-13 03:48:00,
2013-03-12 23:49:00,45.0,43.6,29.74,NW,315,8.1,10.1,95,0.00,,SKC,0.00,VWS V14.01,2013-03-13 03:49:00,
2013-03-12 23:50:00,45.0,43.6,29.74,NW,315,8.5,10.1,95,0.00,,SKC,0.00,VWS V14.01,2013-03-13 03:50:00,
2013-03-12 23:52:00,44.8,43.4,29.74,NW,315,6.0,8.5,95,0.00,,SKC,0.00,VWS V14.01,2013-03-13 03:52:00,
2013-03-12 23:54:00,44.8,43.4,29.74,NW,315,6.5,9.2,95,0.00,,SKC,0.00,VWS V14.01,2013-03-13 03:54:00,
2013-03-12 23:56:00,44.8,43.4,29.74,NW,315,7.6,10.5,95,0.00,,SKC,0.00,VWS V14.01,2013-03-13 03:56:00,
2013-03-12 23:58:00,44.8,43.4,29.74,NW,315,7.6,11.9,95,0.00,,SKC,0.00,VWS V14.01,2013-03-13 03:58:00,
2013-03-12 23:59:00,44.8,43.4,29.71,NW,315,8.5,12.8,95,0.00,,SKC,0.00,VWS V14.01,2013-03-13 03:59:00,